[[{"header":{"parameterUnit":"m.s-1","parameterCategory":1,"la1":31.0,"la2":29.5877,"lo1":-88.7671,"lo2":-86.6584,"dy":0.0162,"dx":0.0185,"nx":115,"ny":88,"refTime":"2025-09-05T12:00:00:Z","depth":0,"parameterNumber":2,"parameterNumberName":"U-component_of_WINDS"},"data":[0.0,0.0,0.0,0.0,0.0,0.0,0.0,0.0,0.0,0.0,0.0,0.0,0.0,0.0,0.0,0.0,0.0,0.0,0.0,0.0,0.0,0.0,0.0,0.0,0.0,0.0,0.0,0.0,0.0,0.0,0.0,0.0,0.0,0.0,0.0,0.0,0.0,0.0,0.0,0.0,0.0,0.0,0.0,0.0,0.0,0.0,0.0,0.0,0.0,0.0,0.0,0.0,0.0,0.0,0.0,0.0,0.0,0.0,0.0,0.0,0.0,0.0,0.0,0.0,0.0,0.0,0.0,0.0,0.0,0.0,0.0,0.0,0.0,0.0,0.0,0.0,0.0,0.0,0.0,0.0,0.0,0.0,0.0,0.0,0.0,0.0,0.0,0.0,0.0,0.0,0.0,0.0,0.0,0.0,0.0,0.0,0.0,0.0,0.0,0.0,0.0,0.0,0.0,0.0,0.0,0.0,0.0,0.0,0.0,0.0,0.0,0.0,0.0,0.0,0.0,0.0,0.0,0.0,0.0,0.0,0.0,0.0,0.0,0.0,0.0,0.0,0.0,0.0,0.0,0.0,0.0,0.0,0.0,0.0,0.0,0.0,0.0,0.0,0.0,0.0,0.0,0.0,0.0,0.0,0.0,0.0,0.0,0.0,0.0,0.0,0.0,0.0,0.0,0.0,0.0,0.0,0.0,0.0,0.0,0.0,0.0,0.0,0.0,0.0,0.0,0.0,0.0,0.0,0.0,0.0,0.0,0.0,0.0,0.0,0.0,0.0,0.0,0.0,0.0,0.0,0.0,0.0,0.0,0.0,0.0,0.0,0.0,0.0,0.0,0.0,0.0,0.0,0.0,0.0,0.0,0.0,0.0,0.0,0.0,0.0,0.0,0.0,0.0,0.0,0.0,0.0,0.0,0.0,0.0,0.0,0.0,0.0,0.0,0.0,0.0,0.0,0.0,0.0,0.0,0.0,0.0,0.0,0.0,0.0,0.0,0.0,0.0,0.0,0.0,0.0,0.0,0.0,0.0,0.0,0.0,0.0,0.0,0.0,0.0,0.0,0.0,0.0,0.0,0.0,0.0,0.0,0.0,0.0,0.0,0.0,0.0,0.0,0.0,0.0,0.0,0.0,0.0,0.0,0.0,0.0,0.0,0.0,0.0,0.0,0.0,0.0,0.0,0.0,0.0,0.0,0.0,0.0,0.0,0.0,0.0,0.0,0.0,0.0,0.0,0.0,0.0,0.0,0.0,0.0,0.0,0.0,0.0,0.0,0.0,0.0,0.0,0.0,0.0,0.0,0.0,0.0,0.0,0.0,0.0,0.0,0.0,0.0,0.0,0.0,0.0,0.0,0.0,0.0,0.0,0.0,0.0,0.0,0.0,0.0,0.0,0.0,0.0,0.0,0.0,0.0,0.0,0.0,0.0,0.0,0.0,0.0,0.0,0.0,0.0,0.0,0.0,0.0,0.0,0.0,0.0,0.0,0.0,0.0,0.0,0.0,0.0,0.0,0.0,0.0,0.0,0.0,0.0,0.0,0.0,0.0,0.0,0.0,0.0,0.0,0.0,0.0,0.0,0.0,0.0,0.0,0.0,0.0,0.0,0.0,0.0,0.0,0.0,0.0,0.0,0.0,0.0,0.0,0.0,0.0,0.0,0.0,0.0,0.0,0.0,0.0,0.0,0.0,0.0,0.0,0.0,0.0,0.0,0.0,0.0,0.0,0.0,0.0,0.0,0.0,0.0,0.0,0.0,0.0,0.0,0.0,0.0,0.0,0.0,0.0,0.0,0.0,0.0,0.0,0.0,0.0,0.0,0.0,0.0,0.0,0.0,0.0,0.0,0.0,0.0,0.0,0.0,0.0,0.0,0.0,0.0,0.0,0.0,0.0,0.0,0.0,0.0,0.0,0.0,0.0,0.0,0.0,0.0,0.0,0.0,0.0,0.0,0.0,0.0,0.0,0.0,0.0,0.0,0.0,0.0,0.0,0.0,0.0,0.0,0.0,0.0,0.0,0.0,0.0,0.0,0.0,0.0,0.0,0.0,0.0,0.0,0.0,0.0,0.0,0.0,0.0,0.0,0.0,0.0,0.0,0.0,0.0,0.0,0.0,0.0,0.0,0.0,0.0,0.0,0.0,0.0,0.0,0.0,0.0,0.0,0.0,0.0,0.0,0.0,0.0,0.0,0.0,0.0,0.0,0.0,0.0,0.0,0.0,0.0,0.0,0.0,0.0,0.0,0.0,0.0,0.0,0.0,0.0,0.0,0.0,0.0,0.0,0.0,0.0,0.0,0.0,0.0,0.0,0.0,0.0,0.0,0.0,0.0,0.0,0.0,0.0,0.0,0.0,0.0,0.0,0.0,0.0,0.0,0.0,0.0,0.0,0.0,0.0,0.0,0.0,0.0,0.0,0.0,0.0,0.0,0.0,0.0,0.0,0.0,0.0,0.0,0.0,0.0,0.0,0.0,0.0,0.0,0.0,0.0,0.0,0.0,0.0,0.0,0.0,0.0,0.0,0.0,0.0,0.0,0.0,0.0,0.0,0.0,0.0,0.0,0.0,0.0,0.0,0.0,0.0,0.0,0.0,0.0,0.0,0.0,0.0,0.0,0.0,0.0,0.0,0.0,0.0,0.0,0.0,0.0,0.0,0.0,0.0,0.0,0.0,0.0,0.0,0.0,0.0,0.0,0.0,0.0,0.0,0.0,0.0,0.0,0.0,0.0,0.0,0.0,0.0,0.0,0.0,0.0,0.0,0.0,0.0,0.0,0.0,0.0,0.0,0.0,0.0,0.0,0.0,0.0,0.0,0.0,0.0,0.0,0.0,0.0,0.0,0.0,0.0,0.0,0.0,0.0,0.0,0.0,0.0,0.0,0.0,0.0,0.0,0.0,0.0,0.0,0.0,0.0,0.0,0.0,0.0,0.0,0.0,0.0,0.0,0.0,0.0,0.0,0.0,0.0,0.0,0.0,0.0,0.0,0.0,0.0,0.0,0.0,0.0,0.0,0.0,0.0,0.0,0.0,0.0,0.0,0.0,0.0,0.0,0.0,0.0,0.0,0.0,0.0,0.0,0.0,0.0,0.0,0.0,0.0,0.0,0.0,0.0,0.0,0.0,0.0,0.0,0.0,0.0,0.0,0.0,0.0,0.0,0.0,0.0,0.0,0.0,0.0,0.0,0.0,0.0,0.0,0.0,0.0,0.0,0.0,0.0,0.0,0.0,0.0,0.0,0.0,0.0,0.0,0.0,0.0,0.0,0.0,0.0,0.0,0.0,0.0,0.0,0.0,0.0,0.0,0.0,0.0,0.0,0.0,0.0,0.0,0.0,0.0,0.0,0.0,0.0,0.0,0.0,0.0,0.0,0.0,0.0,0.0,0.0,0.0,0.0,0.0,0.0,0.0,0.0,0.0,0.0,0.0,0.0,0.0,0.0,0.0,0.0,0.0,0.0,0.0,0.0,0.0,0.0,0.0,0.0,0.0,0.0,0.0,0.0,0.0,0.0,0.0,0.0,0.0,0.0,0.0,0.0,0.0,0.0,0.0,0.0,0.0,0.0,0.0,0.0,0.0,0.0,0.0,0.0,0.0,0.0,0.0,0.0,0.0,0.0,0.0,0.0,0.0,0.0,0.0,0.0,0.0,0.0,0.0,0.0,0.0,0.0,0.0,0.0,0.0,0.0,0.0,0.0,0.0,0.0,0.0,0.0,0.0,0.0,0.0,0.0,0.0,0.0,0.0,0.0,0.0,0.0,0.0,0.0,0.0,0.0,0.0,0.0,0.0,0.0,0.0,0.0,0.0,0.0,0.0,0.0,0.0,0.0,0.0,0.0,0.0,0.0,0.0,0.0,0.0,0.0,0.0,0.0,0.0,0.0,0.0,0.0,0.0,0.0,0.0,0.0,0.0,0.0,0.0,0.0,0.0,0.0,0.0,0.0,0.0,0.0,0.0,0.0,0.0,0.0,0.0,0.0,0.0,0.0,0.0,0.0,0.0,0.0,0.0,0.0,0.0,0.0,0.0,0.0,0.0,0.0,0.0,0.0,0.0,0.0,0.0,0.0,0.0,0.0,0.0,0.0,0.0,0.0,0.0,0.0,0.0,0.0,0.0,0.0,0.0,0.0,0.0,0.0,0.0,0.0,0.0,0.0,0.0,0.0,0.0,0.0,0.0,0.0,0.0,0.0,0.0,0.0,0.0,0.0,0.0,0.0,0.0,0.0,0.0,0.0,0.0,0.0,0.0,0.0,0.0,0.0,0.0,0.0,1.3832,0.0,0.0,0.0,0.0,0.0,0.0,0.0,0.0,0.0,0.0,0.0,0.0,0.0,0.0,0.0,0.0,0.0,0.0,0.0,0.0,0.0,0.0,0.0,0.0,0.0,0.0,0.0,0.0,0.0,0.0,0.0,0.0,0.0,0.0,0.0,0.0,0.0,0.0,0.0,0.0,0.0,0.0,0.0,0.0,0.0,0.0,0.0,0.0,0.0,0.0,0.0,0.0,0.0,0.0,0.0,0.0,0.0,0.0,0.0,0.0,0.0,0.0,0.0,0.0,0.0,0.0,0.0,0.0,0.0,0.0,0.0,0.0,0.0,0.0,0.0,0.0,0.0,0.0,0.0,0.0,0.0,0.0,0.0,0.0,0.0,0.0,0.0,0.0,0.0,0.0,0.0,0.0,0.0,0.0,0.0,0.0,0.0,0.0,0.0,0.0,0.0,0.0,0.0,0.0,0.0,0.0,0.0,0.0,0.0,0.0,1.6535,1.8063,1.7652,1.6609,1.484,0.0,0.0,0.0,0.0,0.0,0.0,0.0,0.0,0.0,0.0,0.0,0.0,0.0,0.0,0.0,0.0,0.0,0.0,0.0,0.0,0.0,0.0,0.0,0.0,0.0,0.0,0.0,0.0,0.0,0.0,0.0,0.0,0.0,0.0,0.0,0.0,0.0,0.0,0.0,0.0,0.0,0.0,0.0,0.0,0.0,0.0,0.0,0.0,0.0,0.0,0.0,0.0,0.0,0.0,0.0,0.0,0.0,0.0,0.0,0.0,0.0,0.0,0.0,0.0,0.0,0.0,0.0,0.0,0.0,0.0,0.0,0.0,0.0,0.0,0.0,0.0,0.0,0.0,0.0,0.0,0.0,0.0,0.0,0.0,0.0,0.0,0.0,0.0,0.0,0.0,0.0,0.0,0.0,0.0,0.0,0.0,0.0,0.0,0.0,0.0,0.0,0.0,0.0,0.0,0.0,0.0,0.0,0.0,0.0,0.0,0.0,0.0,1.8203,1.7216,1.5369,0.0,0.0,0.0,0.0,0.0,0.0,0.0,0.0,0.0,0.0,0.0,0.0,0.0,0.0,0.0,0.0,0.0,0.0,0.0,0.0,0.0,0.0,0.0,0.0,0.0,0.0,0.0,0.0,0.0,0.0,0.0,0.0,0.0,0.0,0.0,0.0,0.0,0.0,0.0,0.0,0.0,0.0,0.0,0.0,0.0,0.0,0.0,0.0,0.0,0.0,0.0,0.0,0.0,0.0,0.0,0.0,0.0,0.0,0.0,0.0,0.0,0.0,0.0,0.0,0.0,0.0,0.0,0.0,0.0,0.0,0.0,0.0,0.0,0.0,0.0,0.0,0.0,0.0,0.0,0.0,0.0,0.0,0.0,0.0,0.0,0.0,0.0,0.0,0.0,0.0,0.0,0.0,0.0,0.0,0.0,0.0,0.0,0.0,0.0,0.0,0.0,0.0,0.0,0.0,0.0,0.0,0.0,0.0,0.0,0.0,1.4341,1.8083,1.9278,0.0,1.386,0.0,0.0,0.0,0.0,0.0,0.0,0.0,0.0,0.0,0.0,0.0,0.0,0.0,0.0,0.0,0.0,0.0,0.0,0.0,0.0,0.0,0.0,0.0,0.0,0.0,0.0,0.0,0.0,0.0,0.0,0.0,0.0,0.0,0.0,0.0,0.0,0.0,0.0,0.0,0.0,0.0,0.0,0.0,0.0,0.0,0.0,0.0,0.0,0.0,0.0,0.0,0.0,0.0,0.0,0.0,0.0,0.0,0.0,0.0,0.0,0.0,0.0,0.0,0.0,0.0,0.0,0.0,0.0,0.0,0.0,0.0,0.0,0.0,0.0,0.0,0.0,0.0,0.0,0.0,0.0,0.0,0.0,0.0,0.0,0.0,0.0,0.0,0.0,0.0,0.0,0.0,0.0,0.0,0.0,0.0,0.0,0.0,0.0,0.0,0.0,0.0,0.0,0.0,0.0,0.0,0.0,0.0,0.0,0.0,0.0,1.5006,1.9219,1.8835,1.6937,0.0,0.0,0.0,0.0,0.0,0.0,0.0,0.0,0.0,0.0,0.0,0.0,0.0,0.0,0.0,0.0,0.0,0.0,0.0,0.0,0.0,0.0,0.0,0.0,0.0,0.0,0.0,0.0,0.0,0.0,0.0,0.0,0.0,0.0,0.0,0.0,0.0,0.0,0.0,0.0,0.0,0.0,0.0,0.0,0.0,0.0,0.0,0.0,0.0,0.0,0.0,0.0,0.0,0.0,0.0,0.0,0.0,0.0,0.0,0.0,0.0,0.0,0.0,0.0,0.0,0.0,0.0,0.0,0.0,0.0,0.0,0.0,0.0,0.0,0.0,0.0,0.0,0.0,0.0,0.0,0.0,0.0,0.0,0.0,0.0,0.0,0.0,0.0,0.0,0.0,0.0,0.0,0.0,0.0,0.0,0.0,0.0,0.0,0.0,0.0,0.0,0.0,0.0,0.0,0.0,0.0,0.0,0.0,0.0,0.0,0.7987,1.2154,1.6228,1.7545,1.6792,1.3983,0.0,0.0,0.0,0.0,0.0,0.0,0.0,0.0,0.0,0.0,0.0,0.0,0.0,0.0,0.0,0.0,0.0,0.0,0.0,0.0,0.0,0.0,0.0,0.0,0.0,0.0,0.0,0.0,0.0,0.0,0.0,0.0,0.0,0.0,0.0,0.0,0.0,0.0,0.0,0.0,0.0,0.0,0.0,0.0,0.0,0.0,0.0,0.0,0.0,0.0,0.0,0.0,0.0,0.0,0.0,0.0,0.0,0.0,0.0,0.0,0.0,0.0,0.0,0.0,0.0,0.0,0.0,0.0,0.0,0.0,0.0,0.0,0.0,0.0,0.0,0.0,0.0,0.0,0.0,0.0,0.0,0.0,0.0,0.0,0.0,0.0,0.0,0.0,0.0,0.0,0.0,0.0,0.0,0.0,0.0,0.0,0.0,0.0,0.0,0.0,0.0,0.0,0.0,0.0,0.0,0.0,0.0,0.0,0.0109,0.1317,0.3716,0.7646,1.5329,1.8315,0.0,0.0,0.0,0.0,0.0,0.0,0.0,0.0,0.0,0.0,0.0,0.0,0.0,0.0,0.0,0.0,0.0,0.0,0.0,0.0,0.0,0.0,0.0,0.0,0.0,0.0,0.0,0.0,0.0,0.0,0.0,0.0,0.0,0.0,0.0,0.0,0.0,0.0,0.0,0.0,0.0,0.0,0.0,0.0,0.0,0.0,0.0,0.0,0.0,0.0,0.0,0.0,0.0,0.0,0.0,0.0,0.0,0.0,0.0,0.0,0.0,0.0,0.0,0.0,0.0,0.0,0.0,0.0,0.0,0.0,0.0,0.0,0.0,0.0,0.0,0.0,0.0,0.0,0.0,0.0,0.0,0.0,0.0,0.0,0.0,0.0,0.0,0.0,0.0,0.0,0.0,0.0,0.0,0.0,0.0,0.0,0.0,0.0,0.0,0.0,0.0,0.0,0.0,0.0,0.0,0.0,0.0,0.0,0.0,-0.1772,0.1247,0.3734,0.5498,1.0309,1.1959,0.0,0.0,0.0,0.0,0.0,0.0,0.0,0.0,0.0,0.0,0.0,0.0,0.0,0.0,0.0,0.0,0.0,0.0,0.0,0.0,0.0,0.0,0.0,0.0,0.0,0.0,0.0,0.0,0.0,0.0,0.0,0.0,0.0,0.0,0.0,0.0,0.0,0.0,0.0,0.0,0.0,0.0,0.0,0.0,0.0,0.0,0.0,0.0,0.0,0.0,0.0,0.0,0.0,0.0,0.0,0.0,0.0,0.0,0.0,0.0,0.0,0.0,0.0,0.0,0.0,0.0,0.0,0.0,0.0,0.0,0.0,0.0,0.0,0.0,0.0,0.0,0.0,0.0,0.0,0.0,0.0,0.0,0.0,0.0,0.0,0.0,0.0,0.0,0.0,0.0,0.0,0.0,0.0,0.0,0.0,0.0,0.0,0.0,0.0,0.0,0.0,0.0,0.0,0.0,0.0,0.0,0.0,0.0,0.0,-0.6296,0.0,-0.347,-0.2123,0.2045,0.4153,0.0,0.0,0.0,0.0,0.0,0.0,0.0,0.0,0.0,0.0,0.0,0.0,0.0,0.0,0.0,0.0,0.0,0.0,0.0,0.0,0.0,0.0,0.0,0.0,0.0,0.0,0.0,0.0,0.0,0.0,0.0,0.0,0.0,0.0,0.0,0.0,0.0,0.0,0.0,0.0,0.0,0.0,0.0,0.0,0.0,0.0,0.0,0.0,0.0,0.0,0.0,0.0,0.0,0.0,0.0,0.0,0.0,0.0,0.0,0.0,0.0,0.0,0.0,0.0,0.0,0.0,0.0,0.0,0.0,0.0,0.0,0.0,0.0,0.0,0.0,0.0,0.0,0.0,0.0,0.0,0.0,0.0,0.0,0.0,0.0,0.0,0.0,0.0,0.0,0.0,0.0,0.0,0.0,0.0,0.0,0.0,0.0,0.0,0.0,0.0,0.0,0.0,0.0,0.0,0.0,0.0,0.0,0.0,-0.7394,-1.3704,-1.7952,-1.8281,-1.6226,-0.9028,-0.4374,0.0,0.0,0.0,0.0,0.0,0.0,0.0,0.0,0.0,0.0,0.0,0.0,0.0,0.0,0.0,0.0,0.0,0.0,0.0,0.0,0.0,0.0,0.0,0.0,0.0,0.0,0.0,0.0,0.0,0.0,0.0,0.0,0.0,0.0,0.0,0.0,0.0,0.0,0.0,0.0,0.0,0.0,0.0,0.0,0.0,0.0,0.0,0.0,0.0,0.0,0.0,0.0,0.0,0.0,0.0,0.0,0.0,0.0,0.0,0.0,0.0,0.0,0.0,0.0,0.0,0.0,0.0,0.0,0.0,0.0,0.0,0.0,0.0,0.0,0.0,0.0,0.0,0.0,0.0,0.0,0.0,0.0,0.0,0.0,0.0,0.0,0.0,0.0,0.0,0.0,0.0,0.0,0.0,0.0,0.0,0.0,0.0,0.0,0.0,0.0,0.0,0.0,0.0,0.0,0.0,0.0,0.0,0.0,0.0,-1.7941,-1.8818,-1.8876,-1.7907,-1.2444,-0.836,0.0,0.0,0.0,0.0,0.0,0.0,0.0,0.0,0.0,0.0,0.0,0.0,0.0,0.0,0.0,0.0,0.0,0.0,0.0,0.0,0.0,0.0,0.0,0.0,0.0,0.0,0.0,0.0,0.0,0.0,0.0,0.0,0.0,0.0,0.0,0.0,0.0,0.0,0.0,0.0,0.0,0.0,0.0,0.0,0.0,0.0,0.0,0.0,0.0,0.0,0.0,0.0,0.0,0.0,0.0,0.0,0.0,0.0,0.0,0.0,0.0,0.0,0.0,0.0,0.0,0.0,0.0,0.0,0.0,0.0,0.0,0.0,0.0,0.0,0.0,0.0,0.0,0.0,0.0,0.0,0.0,0.0,0.0,0.0,0.0,0.0,0.0,0.0,0.0,0.0,0.0,0.0,0.0,0.0,0.0,0.0,0.0,0.0,0.0,0.0,0.0,0.0,0.0,0.0,0.0,0.0,0.0,0.0,0.0,-2.0463,-2.0279,-1.9609,-1.8599,-1.5149,-1.1873,-0.8737,0.0,0.0,0.0,0.0,0.0,0.0,0.0,0.0,0.0,0.0,0.0,0.0,0.0,0.0,0.0,0.0,0.0,0.0,0.0,0.0,0.0,0.0,0.0,0.0,0.0,0.0,0.0,0.0,0.0,0.0,0.0,0.0,0.0,0.0,0.0,0.0,0.0,0.0,0.0,0.0,0.0,0.0,0.0,0.0,0.0,0.0,0.0,0.0,0.0,0.0,0.0,0.0,0.0,0.0,0.0,0.0,0.0,0.0,0.0,0.0,0.0,0.0,0.0,0.0,0.0,0.0,0.0,0.0,0.0,0.0,0.0,0.0,0.0,0.0,0.0,0.0,0.0,0.0,0.0,0.0,0.0,0.0,0.0,0.0,0.0,0.0,0.0,0.0,0.0,0.0,0.0,0.0,0.0,0.0,0.0,0.0,0.0,0.0,0.0,0.0,0.0,0.0,0.0,0.0,0.0,0.0,0.0,0.0,-2.1581,-2.2393,-2.1352,-1.8561,-1.7517,-1.4911,0.0,0.0,0.0,0.0,0.0,0.0,0.0,0.0,0.0,0.0,0.0,0.0,0.0,0.0,0.0,0.0,0.0,0.0,0.0,0.0,0.0,0.0,0.0,0.0,0.0,0.0,0.0,0.0,0.0,0.0,0.0,0.0,0.0,0.0,0.0,0.0,0.0,0.0,0.0,0.0,0.0,0.0,0.0,0.0,0.0,0.0,0.0,0.0,0.0,0.0,0.0,0.0,0.0,0.0,0.0,0.0,0.0,0.0,0.0,0.0,0.0,0.0,0.0,0.0,0.0,0.0,0.0,0.0,0.0,0.0,0.0,0.0,0.0,0.0,0.0,0.0,0.0,0.0,0.0,0.0,0.0,0.0,0.0,0.0,0.0,0.0,0.0,0.0,0.0,0.0,0.0,0.0,0.0,0.0,0.0,0.0,0.0,0.0,0.0,0.0,0.0,0.0,0.0,0.0,0.0,0.0,0.0,0.0,0.0,-2.1756,-2.3033,-2.2815,-2.1105,-1.8235,-1.5325,0.0,0.0,0.0,0.0,0.0,0.0,0.0,0.0,0.0,0.0,0.0,0.0,0.0,0.0,0.0,0.0,0.0,0.0,0.0,0.0,0.0,0.0,0.0,0.0,0.0,0.0,0.0,0.0,0.0,0.0,0.0,0.0,0.0,0.0,0.0,0.0,0.0,0.0,0.0,0.0,0.0,0.0,0.0,0.0,0.0,0.0,0.0,0.0,0.0,0.0,0.0,0.0,0.0,0.0,0.0,0.0,0.0,0.0,0.0,0.0,0.0,0.0,0.0,0.0,0.0,0.0,0.0,0.0,0.0,0.0,0.0,0.0,0.0,0.0,0.0,0.0,0.0,0.0,0.0,0.0,0.0,0.0,0.0,0.0,0.0,0.0,0.0,0.0,0.0,0.0,0.0,0.0,0.0,0.0,0.0,0.0,0.0,0.0,0.0,0.0,0.0,0.0,0.0,0.0,0.0,0.0,0.0,0.0,-2.1762,-2.3406,-2.4139,-2.3895,-2.2506,-1.9462,-1.6414,0.0,0.0,0.0,0.0,0.0,0.0,0.0,0.0,0.0,0.0,0.0,0.0,0.0,0.0,0.0,0.0,0.0,0.0,0.0,0.0,0.0,0.0,0.0,0.0,0.0,0.0,0.0,0.0,0.0,0.0,0.0,0.0,0.0,0.0,0.0,0.0,0.0,0.0,0.0,0.0,0.0,0.0,0.0,0.0,0.0,0.0,0.0,0.0,0.0,0.0,0.0,0.0,0.0,0.0,0.0,0.0,0.0,0.0,0.0,0.0,0.0,0.0,0.0,0.0,0.0,0.0,0.0,0.0,0.0,0.0,0.0,0.0,0.0,0.0,0.0,0.0,0.0,0.0,0.0,0.0,0.0,0.0,0.0,0.0,0.0,0.0,0.0,0.0,0.0,0.0,0.0,0.0,0.0,0.0,0.0,0.0,0.0,0.0,0.0,0.0,0.0,0.0,0.0,0.0,0.0,0.0,0.0,0.0,-2.4038,-2.5408,-2.5379,-2.4638,-2.3022,-2.0693,-1.7727,0.0,0.0,0.0,0.0,0.0,0.0,0.0,0.0,0.0,0.0,0.0,0.0,0.0,0.0,0.0,0.0,0.0,0.0,0.0,0.0,0.0,0.0,0.0,0.0,0.0,0.0,0.0,0.0,0.0,0.0,0.0,0.0,0.0,0.0,0.0,0.0,0.0,0.0,0.0,0.0,0.0,0.0,0.0,0.0,0.0,0.0,0.0,0.0,0.0,0.0,0.0,0.0,0.0,0.0,0.0,0.0,0.0,0.0,0.0,0.0,0.0,0.0,0.0,0.0,0.0,0.0,0.0,0.0,0.0,0.0,0.0,0.0,0.0,0.0,0.0,0.0,0.0,0.0,0.0,0.0,0.0,0.0,0.0,0.0,0.0,0.0,0.0,0.0,0.0,0.0,0.0,0.0,0.0,0.0,0.0,0.0,0.0,0.0,0.0,0.0,0.0,0.0,0.0,0.0,0.0,0.0,0.0,0.0,-2.3249,-2.5129,-2.5654,-2.4994,-2.3115,-2.0047,-1.7398,0.0,0.0,0.0,0.0,0.0,0.0,0.0,0.0,0.0,0.0,0.0,0.0,0.0,0.0,0.0,0.0,0.0,0.0,0.0,0.0,0.0,0.0,0.0,0.0,0.0,0.0,0.0,0.0,0.0,0.0,0.0,0.0,0.0,0.0,0.0,0.0,0.0,0.0,0.0,0.0,0.0,0.0,0.0,0.0,0.0,0.0,0.0,0.0,-2.148,0.0,0.0,0.0,0.0,0.0,0.0,0.0,0.0,0.0,0.0,0.0,0.0,0.0,0.0,0.0,0.0,0.0,0.0,0.0,0.0,0.0,0.0,0.0,0.0,0.0,0.0,0.0,0.0,0.0,0.0,0.0,0.0,0.0,0.0,0.0,0.0,0.0,0.0,0.0,0.0,0.0,0.0,0.0,0.0,0.0,0.0,0.0,0.0,0.0,0.0,0.0,0.0,0.0,0.0,0.0,0.0,0.0,0.0,0.0,-2.3436,-2.5764,-2.6,-2.5149,-2.3058,-2.0323,-1.7812,0.0,0.0,0.0,0.0,0.0,0.0,0.0,0.0,0.0,0.0,0.0,0.0,0.0,0.0,0.0,0.0,0.0,0.0,0.0,0.0,0.0,0.0,0.0,0.0,0.0,0.0,0.0,0.0,0.0,0.0,0.0,0.0,0.0,0.0,0.0,0.0,0.0,0.0,0.0,0.0,0.0,0.0,0.0,0.0,0.0,0.0,0.0,0.0,0.0,0.0,0.0,0.0,0.0,0.0,0.0,0.0,0.0,0.0,0.0,0.0,0.0,0.0,0.0,0.0,0.0,0.0,0.0,0.0,0.0,0.0,0.0,0.0,0.0,0.0,0.0,0.0,0.0,0.0,0.0,0.0,0.0,0.0,0.0,0.0,0.0,0.0,0.0,0.0,0.0,0.0,0.0,0.0,0.0,0.0,0.0,0.0,0.0,0.0,0.0,0.0,0.0,0.0,0.0,0.0,0.0,0.0,0.0,-1.9194,-2.3958,-2.6691,-2.6471,-2.5222,-2.3123,-2.0856,-1.8446,-1.5798,0.0,0.0,0.0,0.0,0.0,0.0,0.0,0.0,0.0,0.0,0.0,0.0,0.0,0.0,0.0,0.0,0.0,0.0,0.0,0.0,0.0,0.0,0.0,0.0,0.0,0.0,0.0,0.0,0.0,0.0,0.0,0.0,0.0,0.0,0.0,0.0,0.0,0.0,-1.1737,-1.6409,0.0,0.0,0.0,0.0,0.0,0.0,0.0,0.0,-2.4113,0.0,0.0,0.0,0.0,0.0,0.0,0.0,0.0,0.0,0.0,0.0,0.0,0.0,0.0,0.0,0.0,0.0,0.0,0.0,0.0,0.0,0.0,0.0,0.0,0.0,0.0,0.0,0.0,0.0,0.0,0.0,0.0,0.0,0.0,0.0,0.0,0.0,0.0,0.0,0.0,0.0,0.0,0.0,0.0,0.0,0.0,0.0,0.0,0.0,0.0,0.0,0.0,0.0,0.0,0.0,0.0,-1.5817,-2.0221,-2.409,-2.7426,-2.7103,-2.5799,-2.3553,-2.0914,-1.8585,-1.6566,0.0,0.0,0.0,0.0,0.0,0.0,0.0,0.0,0.0,0.0,0.0,0.0,0.0,0.0,0.0,0.0,0.0,0.0,0.0,0.0,0.0,0.0,0.0,0.0,0.0,0.0,0.0,0.0,0.0,0.0,0.0,0.0,0.0,0.0,0.0,0.0,0.0,0.0,0.0,-1.7864,-2.0423,0.0,0.0,0.0,0.0,0.0,0.0,0.0,0.0,-2.6488,0.0,0.0,0.0,0.0,0.0,0.0,0.0,0.0,0.0,0.0,0.0,0.0,0.0,0.0,0.0,0.0,0.0,0.0,0.0,0.0,0.0,0.0,0.0,0.0,0.0,0.0,0.0,0.0,0.0,0.0,0.0,0.0,0.0,0.0,0.0,0.0,0.0,0.0,0.0,0.0,0.0,0.0,0.0,0.0,0.0,0.0,0.0,0.0,0.0,0.0,0.0,0.0,0.0,0.0,0.0,-1.7231,-2.1873,-2.5425,-2.7842,-2.7324,-2.6251,-2.4658,-2.2104,-1.9546,0.0,0.0,0.0,0.0,0.0,0.0,0.0,0.0,0.0,0.0,0.0,0.0,0.0,0.0,0.0,0.0,0.0,0.0,0.0,0.0,0.0,0.0,0.0,0.0,0.0,0.0,0.0,0.0,0.0,0.0,0.0,0.0,0.0,0.0,0.0,0.0,0.0,0.0,0.0,0.0,-2.001,-2.2913,-2.3934,0.0,0.0,0.0,0.0,0.0,0.0,-2.6713,-2.691,0.0,0.0,0.0,0.0,0.0,0.0,0.0,0.0,0.0,0.0,0.0,0.0,0.0,0.0,0.0,0.0,0.0,0.0,0.0,0.0,0.0,0.0,0.0,0.0,0.0,0.0,0.0,0.0,0.0,0.0,0.0,0.0,0.0,0.0,0.0,0.0,0.0,0.0,0.0,0.0,0.0,0.0,0.0,0.0,0.0,0.0,0.0,0.0,0.0,0.0,0.0,0.0,0.0,0.0,0.0,-1.8375,-2.3345,-2.6765,-2.8408,-2.7718,-2.69,-2.6084,-2.3378,-2.0535,0.0,0.0,0.0,0.0,0.0,0.0,0.0,0.0,0.0,0.0,0.0,0.0,0.0,0.0,0.0,0.0,0.0,0.0,0.0,0.0,0.0,0.0,0.0,0.0,0.0,0.0,0.0,0.0,0.0,0.0,0.0,0.0,0.0,0.0,0.0,0.0,0.0,0.0,0.0,0.0,0.0,-2.5291,-2.5863,-2.6257,0.0,0.0,0.0,0.0,-2.6746,-2.739,0.0,0.0,0.0,0.0,0.0,0.0,0.0,0.0,0.0,0.0,0.0,0.0,0.0,0.0,0.0,0.0,0.0,0.0,0.0,0.0,0.0,0.0,0.0,0.0,0.0,0.0,0.0,0.0,0.0,0.0,0.0,0.0,0.0,0.0,0.0,0.0,0.0,0.0,0.0,0.0,0.0,0.0,0.0,0.0,0.0,0.0,0.0,0.0,0.0,0.0,0.0,0.0,0.0,0.0,0.0,0.0,-1.9847,-2.384,-2.711,-2.9442,-2.8789,-2.8136,-2.7682,-2.389,-2.1007,0.0,0.0,0.0,0.0,0.0,0.0,0.0,0.0,0.0,0.0,0.0,0.0,0.0,0.0,0.0,0.0,0.0,0.0,0.0,0.0,0.0,0.0,0.0,0.0,0.0,0.0,0.0,0.0,0.0,0.0,0.0,0.0,0.0,0.0,0.0,0.0,0.0,0.0,0.0,0.0,0.0,-2.5964,-2.4862,-2.6132,-2.674,0.0,0.0,-2.9728,-2.8734,-3.0261,0.0,0.0,0.0,0.0,0.0,0.0,0.0,0.0,0.0,0.0,0.0,0.0,0.0,0.0,0.0,0.0,0.0,0.0,0.0,0.0,0.0,0.0,0.0,0.0,0.0,0.0,0.0,0.0,0.0,0.0,0.0,0.0,0.0,0.0,0.0,0.0,0.0,0.0,0.0,0.0,0.0,0.0,0.0,0.0,0.0,0.0,0.0,0.0,0.0,0.0,0.0,0.0,0.0,0.0,0.0,-1.9421,-2.1328,-2.5945,-2.8846,-2.9738,-2.926,-2.8716,-2.8222,-2.4566,-2.1752,0.0,0.0,0.0,0.0,0.0,0.0,0.0,0.0,0.0,0.0,0.0,0.0,0.0,0.0,0.0,0.0,0.0,0.0,0.0,0.0,0.0,0.0,0.0,0.0,0.0,0.0,0.0,0.0,0.0,0.0,0.0,0.0,0.0,0.0,0.0,0.0,0.0,0.0,0.0,0.0,0.0,0.0,-2.6692,-2.7702,0.0,0.0,0.0,-2.9787,-2.8425,0.0,0.0,0.0,0.0,0.0,0.0,0.0,0.0,0.0,0.0,0.0,0.0,0.0,0.0,0.0,0.0,0.0,0.0,0.0,0.0,0.0,0.0,0.0,0.0,0.0,0.0,0.0,0.0,0.0,0.0,0.0,0.0,0.0,0.0,0.0,0.0,0.0,0.0,0.0,0.0,0.0,0.0,0.0,0.0,0.0,0.0,0.0,0.0,0.0,0.0,0.0,0.0,0.0,0.0,0.0,0.0,0.0,-2.2416,-2.7624,-3.022,-2.9891,-2.958,-2.9044,-2.8312,-2.5272,0.0,0.0,0.0,0.0,0.0,0.0,0.0,0.0,0.0,0.0,0.0,0.0,0.0,0.0,0.0,0.0,0.0,0.0,0.0,0.0,0.0,0.0,0.0,0.0,0.0,0.0,0.0,-1.0973,0.0,0.0,0.0,0.0,0.0,0.0,0.0,0.0,0.0,0.0,0.0,0.0,0.0,0.0,-2.7214,-2.7704,-2.8558,-2.9137,0.0,0.0,-2.9813,-2.9069,-3.0447,-3.0497,0.0,0.0,0.0,0.0,0.0,0.0,0.0,0.0,0.0,0.0,0.0,0.0,0.0,0.0,0.0,0.0,0.0,0.0,0.0,0.0,0.0,0.0,0.0,0.0,0.0,0.0,0.0,0.0,0.0,0.0,0.0,0.0,0.0,0.0,0.0,0.0,0.0,0.0,0.0,0.0,0.0,0.0,0.0,0.0,0.0,0.0,0.0,0.0,0.0,0.0,0.0,0.0,0.0,0.0,0.0,-2.3103,-2.7917,-3.0369,-3.0175,-2.9848,-2.9175,-2.8125,-2.6033,-2.341,0.0,0.0,0.0,0.0,0.0,0.0,0.0,0.0,0.0,0.0,0.0,0.0,0.0,0.0,0.0,0.0,0.0,0.0,0.0,0.0,0.0,0.0,0.0,0.0,0.0,0.0,0.0,0.0,0.0,0.0,0.0,0.0,0.0,0.0,0.0,0.0,0.0,0.0,0.0,0.0,0.0,-2.7666,-2.6255,-2.7554,-2.9001,0.0,0.0,-3.0581,-3.2043,-3.3443,-3.3032,-2.8978,0.0,0.0,0.0,0.0,0.0,0.0,0.0,0.0,0.0,0.0,0.0,0.0,0.0,0.0,0.0,0.0,0.0,0.0,0.0,0.0,0.0,0.0,0.0,0.0,0.0,0.0,0.0,0.0,0.0,0.0,0.0,0.0,0.0,0.0,0.0,0.0,0.0,0.0,0.0,0.0,0.0,0.0,0.0,0.0,0.0,0.0,0.0,0.0,0.0,0.0,0.0,0.0,0.0,-2.2165,-2.2322,-2.7177,-2.955,-2.9219,-2.9045,-2.8613,-2.7925,-2.5693,-2.3174,0.0,0.0,0.0,0.0,0.0,0.0,0.0,0.0,0.0,0.0,0.0,0.0,0.0,0.0,0.0,0.0,0.0,0.0,0.0,0.0,0.0,0.0,0.0,0.0,0.0,0.0,0.0,0.0,-1.5641,-1.4848,-1.2793,0.0,0.0,0.0,0.0,0.0,0.0,0.0,0.0,0.0,0.0,-2.7601,-2.7794,-2.8413,0.0,0.0,-3.0207,-3.0456,-3.0746,-3.158,-3.1002,-2.7504,-2.5471,0.0,0.0,0.0,0.0,0.0,0.0,0.0,0.0,0.0,0.0,0.0,0.0,0.0,0.0,0.0,0.0,0.0,0.0,0.0,0.0,0.0,0.0,0.0,0.0,0.0,0.0,0.0,0.0,0.0,0.0,0.0,0.0,0.0,0.0,0.0,0.0,0.0,0.0,0.0,0.0,0.0,0.0,0.0,0.0,0.0,0.0,0.0,0.0,0.0,0.0,0.0,0.0,-2.1843,-2.2139,-2.6493,-2.8566,-2.8194,-2.8067,-2.7736,-2.7056,-2.5438,-2.3381,0.0,0.0,0.0,0.0,0.0,0.0,0.0,0.0,0.0,0.0,0.0,0.0,0.0,0.0,0.0,0.0,0.0,0.0,0.0,0.0,0.0,0.0,0.0,0.0,0.0,0.0,0.0,0.0,-1.6532,-1.5761,-1.3749,0.0,0.0,0.0,0.0,0.0,0.0,0.0,0.0,0.0,0.0,-2.8099,-2.8413,-2.8478,-2.8645,-2.9185,-2.9289,-2.9353,-2.9564,-2.988,-2.9187,-2.6544,0.0,0.0,0.0,0.0,0.0,0.0,0.0,0.0,0.0,0.0,0.0,0.0,0.0,0.0,0.0,0.0,0.0,0.0,0.0,0.0,0.0,0.0,0.0,0.0,0.0,0.0,0.0,0.0,0.0,0.0,-2.0422,0.0,0.0,0.0,0.0,0.0,0.0,0.0,0.0,0.0,0.0,0.0,0.0,0.0,0.0,0.0,0.0,0.0,0.0,0.0,0.0,0.0,0.0,-2.2071,-2.2881,-2.6053,-2.7553,-2.7239,-2.7042,-2.647,-2.5495,-2.5384,-2.4227,-2.1822,0.0,0.0,0.0,0.0,0.0,0.0,0.0,0.0,0.0,0.0,0.0,0.0,0.0,0.0,0.0,0.0,0.0,0.0,0.0,0.0,0.0,0.0,0.0,0.0,0.0,0.0,-1.5667,-1.5524,-1.5307,0.0,0.0,0.0,0.0,0.0,0.0,0.0,0.0,0.0,0.0,-2.7852,-2.933,-2.748,-2.7227,-2.7404,-2.7832,-2.718,-2.7232,-2.9026,-2.9081,-2.8344,0.0,0.0,0.0,0.0,0.0,0.0,0.0,0.0,0.0,0.0,0.0,0.0,0.0,0.0,0.0,0.0,0.0,0.0,0.0,0.0,0.0,0.0,0.0,0.0,0.0,0.0,0.0,-2.4136,-2.3356,0.0,0.0,0.0,0.0,0.0,0.0,0.0,0.0,0.0,0.0,0.0,-3.0018,-2.9208,0.0,0.0,0.0,0.0,0.0,0.0,0.0,0.0,0.0,0.0,0.0,0.0,-2.1707,-2.2163,-2.5157,-2.6663,-2.6396,-2.6199,-2.5634,-2.465,-2.4593,-2.3712,-2.1876,0.0,0.0,0.0,0.0,0.0,0.0,0.0,0.0,0.0,0.0,0.0,0.0,0.0,0.0,0.0,0.0,0.0,0.0,0.0,0.0,0.0,0.0,0.0,0.0,0.0,-1.7626,0.0,0.0,0.0,0.0,0.0,0.0,0.0,0.0,0.0,0.0,0.0,-2.6146,-2.6813,-2.6978,-2.6807,-2.6219,-2.6141,-2.6639,0.0,0.0,0.0,0.0,0.0,0.0,0.0,0.0,0.0,0.0,0.0,0.0,0.0,0.0,-1.5124,-1.3941,-1.3987,-1.4318,-1.4656,0.0,0.0,0.0,0.0,0.0,0.0,0.0,0.0,0.0,0.0,0.0,0.0,0.0,0.0,-2.643,0.0,-2.5827,0.0,0.0,0.0,0.0,0.0,0.0,0.0,0.0,-2.9277,-3.1179,-3.1709,-3.1209,-3.0752,0.0,-2.8453,-2.5704,0.0,0.0,0.0,0.0,0.0,0.0,0.0,0.0,-2.1817,-2.2532,-2.4656,-2.556,-2.5152,-2.4897,-2.432,-2.3419,-2.3713,-2.3363,-2.2244,-2.0947,-1.9571,0.0,0.0,0.0,0.0,0.0,0.0,0.0,0.0,0.0,0.0,0.0,0.0,0.0,0.0,0.0,0.0,0.0,0.0,0.0,0.0,0.0,0.0,0.0,-1.8467,0.0,0.0,0.0,0.0,0.0,0.0,0.0,0.0,0.0,-2.5579,-2.6436,-2.7193,-2.7822,-2.7349,-2.6462,-2.5174,0.0,0.0,0.0,0.0,0.0,0.0,0.0,-2.4534,-2.311,-2.2623,-2.2226,-2.1525,-1.9751,-1.8184,-1.7403,0.0,0.0,-1.5024,-1.4877,-1.4972,-1.5129,-1.5166,-1.5186,-1.5138,-1.5429,-1.5999,0.0,0.0,0.0,0.0,0.0,0.0,0.0,0.0,-3.0548,-2.9175,0.0,-2.8676,0.0,0.0,0.0,0.0,0.0,-2.9535,0.0,0.0,-3.3633,-3.3968,-3.0794,-3.1526,-3.1437,-3.039,-2.8664,-2.7345,-2.6517,-2.5688,0.0,0.0,0.0,0.0,0.0,0.0,-2.237,-2.3995,-2.4544,-2.4408,-2.3544,-2.3205,-2.2648,-2.1931,-2.2778,-2.3186,-2.3015,-2.2425,-2.1541,-2.0371,-1.8796,0.0,0.0,0.0,0.0,0.0,0.0,0.0,0.0,0.0,0.0,0.0,0.0,0.0,0.0,0.0,0.0,0.0,0.0,0.0,0.0,-1.7745,0.0,0.0,0.0,0.0,0.0,0.0,0.0,0.0,0.0,0.0,-2.5596,-2.7416,-2.8495,-2.7872,0.0,0.0,0.0,0.0,-2.4957,-2.2221,-2.1973,-2.2378,-2.2823,-2.3472,-2.3797,-2.342,0.0,0.0,-2.2095,-1.9068,-1.6997,-1.6833,-1.685,-1.6596,-1.6227,-1.5181,-1.4459,-1.4809,-1.4971,-1.4817,-1.4906,-1.5712,-1.6775,-3.3607,0.0,0.0,0.0,0.0,-2.9937,-3.0826,-3.2337,-3.2367,-3.1584,-3.0308,-3.0892,0.0,0.0,0.0,0.0,0.0,0.0,-3.0097,-3.0508,-3.2315,-3.2664,-3.1889,-3.2426,-3.2541,-3.2231,-3.1076,-3.0318,-2.987,-2.9206,-2.6588,-2.2217,0.0,0.0,0.0,0.0,-2.2901,-2.3872,-2.4479,-2.435,-2.3375,-2.3138,-2.2887,-2.2666,-2.2463,-2.2831,-2.3823,-2.3799,-2.3019,-2.144,-2.077,0.0,0.0,0.0,0.0,0.0,0.0,0.0,0.0,0.0,0.0,0.0,0.0,0.0,0.0,0.0,0.0,0.0,0.0,0.0,-1.8835,-1.9318,-1.9185,0.0,0.0,0.0,0.0,0.0,0.0,0.0,0.0,0.0,-2.7107,-2.6952,-2.6611,0.0,0.0,-2.3778,-2.2446,-2.3175,-2.3813,-2.349,-2.3419,0.0,0.0,-2.4215,-2.3568,-2.3063,-2.2784,-2.2207,-2.1133,-1.9823,-1.8851,-1.8866,-1.8189,-1.7559,-1.7439,-1.7154,-1.6901,-1.7026,-1.7082,-1.7091,-1.7072,-1.7271,-1.7595,-3.7206,-3.4565,-3.3241,-3.2535,-3.2293,-3.2196,-3.2885,-3.4091,-3.4049,-3.3349,-3.2235,-3.3024,-3.1819,-2.9152,-2.9366,0.0,0.0,0.0,-3.0898,-3.2246,-3.2455,-3.2265,-3.178,-3.231,-3.2419,-3.2023,-3.1487,-3.1149,-3.0957,-3.0232,-2.7953,-2.4309,0.0,0.0,-2.3034,-2.3216,-2.364,-2.4274,-2.4623,-2.4321,-2.3319,-2.2458,-2.2172,-2.2501,-2.2166,-2.2701,-2.4135,-2.4393,-2.3946,-2.2795,-2.2319,-2.1171,0.0,0.0,0.0,0.0,0.0,0.0,0.0,0.0,0.0,0.0,0.0,-1.2471,-1.2188,0.0,0.0,0.0,-1.8245,-1.8909,-2.0345,-2.0063,0.0,0.0,0.0,0.0,0.0,0.0,0.0,-2.2559,-2.458,-2.6276,-2.6951,-2.635,-2.6103,-2.6857,-2.553,-2.4049,-2.2818,0.0,-2.3853,-2.3496,-2.3369,-2.3583,-2.4457,-2.4207,-2.3663,-2.3158,-2.2264,-2.1559,-2.1093,-2.0013,-1.926,-1.9297,-1.8573,-1.7735,-1.7794,-1.791,-1.7872,-1.751,-1.7436,-1.7451,-1.7417,-1.7705,-1.8105,-4.0059,-3.834,-3.5156,-3.4174,-3.4686,-3.4625,-3.4983,-3.5581,-3.5515,-3.4622,-3.325,-3.4859,-3.3876,-3.0981,-3.022,0.0,-3.2461,-3.1523,-3.2226,-3.4199,-3.3652,-3.2439,-3.0799,-3.1535,-3.1434,-3.0611,-3.0525,-3.0477,-3.0372,-2.9554,-2.8268,-2.6651,-2.6525,-2.6034,-2.512,-2.4351,-2.4282,-2.4853,-2.4742,-2.4216,-2.3268,-2.1535,-2.1015,-2.1876,-2.1977,-2.2646,-2.4063,-2.4316,-2.4334,-2.4099,-2.3493,-2.2518,-2.1144,0.0,0.0,0.0,0.0,0.0,0.0,0.0,0.0,0.0,0.0,0.0,0.0,0.0,0.0,0.0,-1.9798,0.0,-2.1521,-2.0532,0.0,0.0,0.0,-2.1042,-2.1276,-2.2772,-2.3891,-2.4271,0.0,0.0,-2.5793,-2.5725,-2.6604,-2.9076,-2.8434,-2.6836,-2.4393,-2.4681,-2.4611,-2.2709,-2.2455,-2.2672,-2.3219,-2.3682,-2.3857,-2.3348,-2.2465,-2.1642,-2.1288,-1.9885,-1.8714,-1.8984,-1.8124,-1.7402,-1.7379,-1.76,-1.7639,-1.6793,-1.6715,-1.6781,-1.6854,-1.7477,-1.8291,-3.8984,-3.8516,-3.7715,-3.6674,-3.5588,-3.5469,-3.5488,-3.5581,-3.5515,-3.5276,-3.4911,-3.5335,-3.5154,-3.4406,-3.3041,-3.3389,-3.5019,-3.3496,-3.3086,-3.3594,-3.3457,-3.25,-3.0897,-3.0979,-3.0885,-3.0677,-3.0617,-3.0244,-2.9596,-2.9363,-2.839,-2.6805,-2.6087,-2.4965,-2.3447,-2.3093,-2.3252,-2.3863,-2.3731,-2.3473,-2.3068,-2.204,-2.1877,-2.2685,-2.2256,-2.2449,-2.341,-2.3633,-2.3649,-2.3483,-2.3872,-2.3548,-2.2206,-2.0388,0.0,0.0,0.0,0.0,0.0,0.0,0.0,0.0,0.0,-1.6185,-1.6393,0.0,-1.9034,0.0,-2.1673,-2.2807,-2.353,-2.334,0.0,0.0,-2.2221,-2.3216,-2.3984,-2.4687,-2.4896,-2.4368,-2.5339,-2.606,-2.6085,-2.6091,-2.6503,-2.7692,-2.5842,-2.3903,-2.2889,-2.3504,-2.3719,-2.2934,-2.3396,-2.3908,-2.3495,-2.3588,-2.3524,-2.2815,-2.2132,-2.1382,-2.0425,-1.9672,-1.8999,-1.8589,-1.8065,-1.7551,-1.7002,-1.6944,-1.6937,-1.6785,-1.7207,-1.7686,-1.7646,-1.7823,-1.8105,-3.8359,-3.8027,-3.8027,-3.7177,-3.5841,-3.6158,-3.6015,-3.5519,-3.5104,-3.493,-3.4911,-3.495,-3.5231,-3.5566,-3.4386,-3.4378,-3.5168,-3.3529,-3.2756,-3.2766,-3.2376,-3.1736,-3.0879,-3.0426,-3.0226,-3.0206,-2.976,-2.9284,-2.8827,-2.8796,-2.8098,-2.6804,-2.6304,-2.4994,-2.2941,-2.2772,-2.2802,-2.2965,-2.3114,-2.3102,-2.2997,-2.2556,-2.2391,-2.2446,-2.2168,-2.2207,-2.2641,-2.278,-2.2761,-2.2696,-2.3075,-2.285,-2.1837,-2.055,-1.9464,0.0,0.0,0.0,0.0,0.0,0.0,0.0,0.0,0.0,0.0,0.0,-1.9835,-2.1197,-2.2217,-2.3011,-2.3447,-2.348,-2.3473,-2.352,-2.4082,-2.4919,-2.6019,-2.6381,-2.6314,-2.5831,-2.6901,-2.7535,-2.7234,-2.7339,-2.7365,-2.7257,-2.5422,-2.3973,-2.3763,-2.3937,-2.3834,-2.3251,-2.3699,-2.3955,-2.3301,-2.3419,-2.3157,-2.2022,-2.175,-2.1266,-2.0042,-1.9393,-1.8881,-1.8126,-1.7765,-1.742,-1.6981,-1.6796,-1.6889,-1.7522,-1.7758,-1.782,-1.7765,-1.791,-1.8008,-3.7812,-3.7129,-3.7129,-3.6582,-3.5762,-3.6527,-3.6251,-3.5276,-3.4526,-3.4199,-3.4212,-3.4375,-3.4796,-3.5388,-3.4645,-3.4321,-3.4218,-3.2642,-3.1938,-3.1945,-3.1211,-3.086,-3.0838,-2.9999,-2.9589,-2.955,-2.8644,-2.8142,-2.8062,-2.7998,-2.7464,-2.653,-2.6491,-2.524,-2.2862,-2.2746,-2.2524,-2.2109,-2.2597,-2.2905,-2.2997,-2.2887,-2.252,-2.1839,-2.184,-2.1857,-2.1872,-2.1887,-2.1868,-2.1872,-2.1937,-2.1698,-2.1093,-2.0546,-1.9881,0.0,-1.7823,0.0,0.0,0.0,0.0,0.0,0.0,0.0,0.0,-2.0438,-2.048,-2.2004,-2.2144,-2.2352,-2.2844,-2.2969,-2.3545,-2.4838,-2.552,-2.6225,-2.716,-2.7434,-2.756,-2.756,-2.846,-2.8772,-2.8078,-2.8344,-2.8062,-2.6907,-2.5744,-2.4958,-2.5165,-2.4724,-2.4148,-2.358,-2.34,-2.3091,-2.2712,-2.3003,-2.2701,-2.1164,-2.1158,-2.1104,-1.9876,-1.9258,-1.865,-1.787,-1.7577,-1.7391,-1.7205,-1.6984,-1.7264,-1.8311,-1.8213,-1.785,-1.78,-1.7925,-1.8073,-3.6339,-3.625,-3.625,-3.6035,-3.5723,-3.5878,-3.5378,-3.443,-3.4276,-3.4199,-3.4257,-3.4969,-3.5005,-3.4487,-3.3645,-3.3328,-3.34,-3.2382,-3.1902,-3.1913,-3.1763,-3.13,-3.0648,-2.9868,-2.9513,-2.9474,-2.8671,-2.7909,-2.7225,-2.7204,-2.6401,-2.4878,-2.4858,-2.3886,-2.2021,0.0,0.0,0.0,-2.1683,-2.2336,-2.2923,-2.2354,-2.1968,-2.1803,-2.13,0.0,-2.1185,-2.1249,-2.1243,-2.1223,-2.2342,0.0,0.0,0.0,0.0,0.0,0.0,0.0,0.0,0.0,0.0,0.0,-1.8194,-1.8081,-1.9602,-1.9553,-2.0077,-2.1642,-2.2245,-2.3203,-2.4833,-2.5474,-2.5516,-2.5091,-2.6306,-2.6807,-2.5763,-2.6731,-2.756,-2.761,-2.7361,-2.7053,-2.6834,-2.6357,-2.6018,-2.5686,-2.4974,-2.4536,-2.4378,-2.4082,-2.3593,-2.2966,-2.2514,-2.2088,-2.1913,-2.2006,-2.1715,-2.0498,-2.0562,-2.0461,-1.9461,-1.9409,-1.9142,-1.8061,-1.8142,-1.805,-1.7092,-1.7166,-1.7459,-1.7798,-1.8021,-1.8298,-1.8585,-1.8667,-1.8731,-3.5259,0.0,-3.5279,-3.5197,0.0,-3.5005,-3.4458,-3.3564,-3.3545,-3.3333,-3.3026,-3.3853,-3.4,-3.3608,-3.3597,-3.3381,-3.3015,-3.2192,-3.182,-3.1824,-3.139,-3.0768,-2.9972,-2.9172,-2.8595,-2.815,-2.7368,-2.6733,-2.6323,-2.6328,-2.5684,-2.4434,-2.4414,-2.3511,-2.1776,-2.1192,-2.1139,-2.1582,-2.2275,-2.3039,-2.3824,-2.3486,-2.3058,-2.2663,0.0,0.0,0.0,0.0,0.0,0.0,0.0,0.0,0.0,0.0,0.0,-2.1535,-2.067,-2.0232,-2.023,-1.9331,-1.9278,-2.041,-2.0025,-1.967,-1.9585,-2.0074,-2.1035,-2.2512,-2.234,-2.2893,-2.4779,-2.4771,-2.4475,-2.4353,-2.5148,-2.5423,-2.5077,-2.5637,-2.6273,-2.6598,-2.6794,-2.68,-2.6366,-2.6537,-2.622,-2.5517,-2.4927,-2.4398,-2.3961,-2.3652,-2.3249,-2.2626,-2.2082,-2.1599,-2.1306,-2.153,-2.1262,-2.0222,-2.0104,-1.9966,-1.9156,-1.9018,-1.8659,-1.7776,-1.7709,-1.7646,-1.7131,-1.6893,-1.7084,-1.8005,-1.8189,-1.8452,-1.9112,-1.9122,-1.8874,-3.4311,-3.4282,-3.433,-3.4237,-3.4091,-3.411,-3.3564,-3.2679,0.0,0.0,0.0,-3.2532,-3.2801,-3.2679,-3.3417,-3.3244,-3.2372,-3.1687,-3.1407,-3.1381,-3.0684,-2.9979,-2.9272,-2.8397,-2.7575,-2.6767,-2.5964,-2.5595,-2.5583,-2.5503,-2.5097,-2.4453,-2.4258,-2.3396,-2.1854,-2.084,-2.1045,-2.2382,-2.2848,-2.3483,-2.4332,-2.437,-2.3997,-2.3267,-2.3253,-2.2956,-2.227,-2.2032,-2.2224,-2.2838,-2.2658,-2.2687,-2.3082,-2.3294,-2.3189,-2.2687,-2.2005,-2.1756,-2.2062,-2.1192,-2.0887,-2.1493,-2.1649,-2.1226,-2.0062,-2.0975,-2.2038,-2.3087,-2.2153,-2.2202,-2.3844,-2.3216,-2.2777,-2.3245,-2.3533,-2.3895,-2.4312,-2.4684,-2.5188,-2.5691,-2.658,-2.6942,-2.6438,-2.6763,-2.6908,-2.5798,-2.4959,-2.4425,-2.3837,-2.3486,-2.2995,-2.2231,-2.1819,-2.1417,-2.0807,-2.0896,-2.0842,-1.9753,-1.9638,-1.9546,-1.904,-1.8545,-1.7972,-1.7548,-1.7303,-1.7296,-1.7162,-1.686,-1.6981,-1.856,-1.8376,-1.8216,-1.9027,-1.8979,-1.8667,-3.334,-3.3387,-3.3412,-3.3361,-3.3267,-3.3267,-3.2724,-3.1872,-3.1852,-3.1661,-3.1427,-3.2442,-3.239,-3.1541,-3.1885,-3.145,-3.0438,-3.029,-3.0157,0.0,-2.9874,-2.9479,-2.8865,-2.8056,-2.7325,-2.6699,-2.5896,-2.5547,-2.55,-2.4861,-2.4458,-2.4305,-2.3709,-2.283,-2.1854,-2.1517,-2.1643,-2.2144,-2.1681,-2.1834,-2.2639,-2.2646,-2.2504,-2.2252,-2.2421,-2.2337,-2.2055,-2.1758,-2.1641,-2.1751,-2.255,-2.2915,-2.285,-2.4135,-2.4394,-2.3136,-2.2581,-2.1953,-2.1097,-2.0367,-2.0205,-2.0881,-2.1376,-2.1417,-2.0745,-2.1281,-2.1575,-2.1287,-2.1464,-2.1707,-2.2137,-2.2427,-2.2375,-2.2175,-2.3016,-2.3529,-2.3124,-2.4298,-2.5394,-2.6088,-2.6319,-2.6529,-2.6623,-2.5961,-2.5528,-2.5363,-2.4531,-2.3819,-2.3669,-2.3372,-2.2686,-2.175,-2.1518,-2.1054,-2.0257,-1.9907,-1.9833,-1.9125,-1.9069,-1.9095,-1.8933,-1.8474,-1.8113,-1.8013,-1.7852,-1.7725,-1.7401,-1.7688,-1.7809,-1.8287,-1.8134,-1.8055,-1.7933,-1.7725,-1.7791,-3.2377,-3.2386,-3.2419,-3.2385,-3.2334,-3.2334,-3.1827,-3.0994,-3.0829,-3.071,-3.0696,-3.1623,-3.145,-3.0541,-3.1058,-3.0776,-2.9864,-2.9829,-2.9794,-2.9666,-2.9257,-2.8676,-2.7902,-2.7222,-2.6504,-2.5793,-2.558,-2.5257,-2.4846,-2.4468,-2.3839,-2.2945,-2.2101,-2.1478,-2.107,-2.0972,-2.1029,-2.1201,-2.2207,-2.3127,-2.3892,-2.3919,-2.3885,-2.3795,-2.372,-2.3616,-2.3495,-2.2978,-2.2895,-2.3311,-2.3239,-2.3457,-2.4125,-2.3918,-2.3649,-2.3295,-2.2212,-2.1363,-2.0832,-2.0497,-2.0714,-2.1614,-2.2033,-2.2146,-2.1871,-2.173,-2.1594,-2.1328,-2.1251,-2.1332,-2.1703,-2.1338,-2.1146,-2.1255,-2.1493,-2.1701,-2.2179,-2.3089,-2.4237,-2.5158,-2.5766,-2.6155,-2.637,-2.5715,-2.5095,-2.497,-2.3804,-2.3126,-2.3445,-2.3374,-2.2964,-2.2212,-2.1701,-2.1055,-2.0207,-2.014,-1.9963,-1.9432,-1.9074,-1.8917,-1.8834,-1.8298,-1.7774,-1.7692,-1.7479,-1.7213,-1.6939,-1.7074,-1.7359,-1.7725,-1.7639,-1.7545,-1.7531,-1.7243,-1.6991,-3.1455,-3.1403,-3.1457,-3.1405,-3.1341,-3.1309,-3.0881,-3.0247,-3.0018,-2.9908,-2.9972,-3.0627,-3.0454,-2.9756,-3.0394,-3.0318,-2.9681,-2.9625,-2.9513,-2.9214,-2.8631,-2.7811,-2.6908,-2.6365,-2.576,-2.5099,-2.5216,-2.4923,-2.4258,-2.4067,-2.3082,-2.1463,-2.0638,-2.0313,-2.0362,-2.0349,-2.0369,-2.0575,-2.2488,-2.3981,-2.4885,-2.5139,-2.5273,-2.5179,-2.4923,-2.476,-2.462,-2.3946,-2.3876,-2.4423,-2.37,-2.3735,-2.4658,-2.3427,-2.2776,-2.2906,-2.1663,-2.0822,-2.0835,-2.0908,-2.1342,-2.2159,-2.2555,-2.2686,-2.2686,-2.2229,-2.1824,-2.1702,-2.1328,-2.1109,-2.113,-2.0449,-2.0003,-2.0497,-2.0258,-2.0688,-2.1725,-2.2455,-2.3363,-2.4621,-2.5611,-2.6106,-2.59,-2.5593,-2.4963,-2.399,-2.2994,-2.2649,-2.3194,-2.3234,-2.2857,-2.2651,-2.1987,-2.1163,-2.0415,-2.0276,-2.0171,-1.9741,-1.9244,-1.9026,-1.8869,-1.8135,-1.7502,-1.7437,-1.6948,-1.6653,-1.6559,-1.6559,-1.6734,-1.7058,-1.6921,-1.6681,-1.6361,-1.5902,-1.5754,-3.0537,-3.0525,-3.0556,-3.0394,-3.0195,-3.018,-3.0034,-2.9799,-2.9748,-2.9607,-2.9513,-2.9718,-2.9701,-2.9474,-2.9701,-2.9664,-2.9358,-2.9414,-2.8897,-2.8044,-2.7904,-2.714,-2.5927,-2.5782,-2.5506,-2.5019,-2.5008,-2.4668,-2.4068,-2.3346,-2.212,-2.0501,-2.0065,-2.0035,-2.018,-2.0227,-2.0325,-2.0605,-2.1385,-2.2462,-2.3727,-2.4771,-2.5168,-2.4842,-2.4818,-2.4623,-2.4303,-2.361,-2.3271,-2.3348,-2.3347,-2.3214,-2.3012,-2.2979,-2.261,-2.1773,-2.1129,-2.0822,-2.0845,-2.1333,-2.1654,-2.177,-2.2379,-2.2676,-2.2691,-2.26,-2.2321,-2.1797,-2.1614,-2.1099,-2.0156,-1.9914,-1.9901,-2.0042,-2.0497,-2.1175,-2.2271,-2.3387,-2.4508,-2.5728,-2.6185,-2.6387,-2.5739,-2.5067,-2.4143,-2.3192,-2.2643,-2.2535,-2.3102,-2.2529,-2.2084,-2.2388,-2.2214,-2.136,-2.0227,-1.9775,-1.9876,-1.9705,-1.9281,-1.9147,-1.9087,-1.8369,-1.7421,-1.7568,-1.7128,-1.6577,-1.6534,-1.6479,-1.6466,-1.6349,-1.5989,-1.5268,-1.3815,-1.3282,-1.3635,-3.0398,-3.0398,-3.0398,-3.0235,-2.9999,-2.9877,-2.9763,-2.9696,-2.957,-2.9474,-2.9353,-2.9071,-2.902,-2.916,-2.8983,-2.8658,-2.8164,-2.796,-2.7381,-2.6501,-2.6033,-2.5584,-2.522,-2.4855,-2.4684,-2.467,-2.4312,-2.3738,-2.2944,-2.1723,-2.0594,-1.9819,-1.9632,-1.9669,-1.981,-1.9909,-2.0156,-2.0618,-2.1313,-2.2017,-2.2743,-2.3956,-2.4703,-2.4886,-2.4842,-2.467,-2.4338,-2.3617,-2.3189,-2.3135,-2.2429,-2.2083,-2.2264,-2.124,-2.0926,-2.1484,-2.1332,-2.1263,-2.1467,-2.1485,-2.1601,-2.1801,-2.2349,-2.2542,-2.2147,-2.2482,-2.2271,-2.1356,-2.117,-2.0769,-2.0003,-2.0144,-2.0396,-2.0484,-2.1239,-2.214,-2.3025,-2.384,-2.468,-2.5465,-2.5836,-2.5924,-2.549,-2.4723,-2.4173,-2.371,-2.3136,-2.2541,-2.2842,-2.2195,-2.1585,-2.1295,-2.1118,-2.0821,-2.0146,-2.0216,-2.008,-1.9801,-1.953,-1.9493,-1.9078,-1.8525,-1.7787,-1.7677,-1.6999,-1.6577,-1.6534,-1.6466,-1.6411,-1.5915,-1.489,-1.3981,-1.3099,-1.26,-1.2797,-3.0215,-3.0215,-3.0202,-3.0066,-2.9829,-2.9678,-2.9439,-2.9195,-2.9142,-2.9015,-2.8747,-2.8395,-2.8412,-2.8626,-2.8368,-2.7841,-2.7202,-2.6908,-2.6233,-2.529,-2.4655,-2.4432,-2.4387,-2.3994,-2.3913,-2.4095,-2.3606,-2.283,-2.1787,-2.0287,-1.9369,-1.9107,-1.8833,-1.8825,-1.9063,-1.9295,-1.9684,-2.0221,-2.0934,-2.1617,-2.2352,-2.325,-2.4024,-2.4598,-2.4755,-2.47,-2.4495,-2.3681,-2.3189,-2.3165,-2.1898,-2.1311,-2.1644,-2.0174,-1.9921,-2.1169,-2.1369,-2.1569,-2.1882,-2.1704,-2.1682,-2.2015,-2.236,-2.2416,-2.2133,-2.2423,-2.23,-2.1547,-2.1175,-2.0832,-2.0258,-2.0497,-2.0881,-2.1266,-2.2045,-2.279,-2.3663,-2.4159,-2.4593,-2.523,-2.552,-2.5357,-2.4971,-2.4208,-2.368,-2.3846,-2.309,-2.2269,-2.2299,-2.181,-2.1166,-2.0405,-2.0246,-2.0132,-2.0143,-2.0187,-2.0146,-1.9897,-1.9566,-1.9273,-1.8903,-1.8369,-1.7879,-1.7436,-1.6866,-1.6534,-1.6479,-1.6423,-1.5908,-1.5129,-1.4217,-1.3275,-1.2709,-1.2316,-1.2007,-2.9731,-2.9748,-2.9731,-2.9644,-2.9434,-2.9394,-2.8823,-2.8092,-2.8312,-2.8055,-2.7488,-2.7718,-2.7908,-2.7847,-2.772,-2.7465,-2.6836,-2.6613,-2.5737,-2.4383,-2.4284,-2.394,-2.3305,-2.3253,-2.335,-2.3545,-2.2978,-2.2048,-2.0728,-1.9423,-1.8625,-1.8305,-1.7471,-1.7299,-1.7679,-1.8113,-1.8695,-1.9138,-2.0009,-2.1175,-2.2598,-2.2848,-2.3295,-2.3934,-2.4471,-2.4682,-2.4405,-2.3663,-2.3189,-2.3189,-2.2141,-2.1401,-2.1086,-2.0582,-2.0421,-2.0558,-2.1098,-2.1609,-2.1942,-2.1992,-2.2035,-2.2229,-2.2347,-2.2415,-2.2441,-2.2629,-2.262,-2.2603,-2.1946,-2.1424,-2.1051,-2.1099,-2.1418,-2.2226,-2.2408,-2.3132,-2.4169,-2.4261,-2.4624,-2.5224,-2.5379,-2.5105,-2.4184,-2.3249,-2.2937,-2.2815,-2.2468,-2.2173,-2.1713,-2.1295,-2.0823,-2.0366,-1.9958,-1.9711,-1.9732,-1.9858,-1.9822,-1.9654,-1.9369,-1.8916,-1.8574,-1.8157,-1.7638,-1.7209,-1.6802,-1.6497,-1.6423,-1.5932,-1.5152,-1.4433,-1.3773,-1.2986,-1.2295,-1.1992,-1.1619,-2.9696,-2.9696,-2.9551,-2.9455,-2.9372,-2.8929,-2.8512,-2.8191,-2.8111,-2.7647,-2.7006,-2.688,-2.6382,-2.5656,-2.5436,-2.5312,-2.5178,-2.4269,-2.3209,-2.2272,-2.2228,-2.231,-2.25,-2.2495,-2.281,-2.3101,-2.2129,-2.0822,-1.9433,-1.8626,-1.7858,-1.6975,-1.6134,-1.5371,-1.4944,-1.5813,-1.6641,-1.7259,-1.9259,-2.103,-2.2125,-2.3179,-2.3863,-2.4058,-2.455,-2.4456,-2.3696,-2.335,-2.3189,-2.3189,-2.1955,-2.115,-2.1023,-2.098,-2.0946,-2.1,-2.1713,-2.2248,-2.2337,-2.2426,-2.2361,-2.2153,-2.2711,-2.2735,-2.2275,-2.2409,-2.2651,-2.2593,-2.2415,-2.2355,-2.2819,-2.273,-2.2614,-2.2911,-2.3667,-2.418,-2.4281,-2.4448,-2.4707,-2.4961,-2.4849,-2.4638,-2.4599,-2.3952,-2.3443,-2.3519,-2.2796,-2.198,-2.1325,-2.0836,-2.0439,-1.9974,-1.9451,-1.9046,-1.9051,-1.9468,-1.9639,-1.953,-1.9281,-1.8722,-1.8271,-1.7678,-1.7129,-1.6708,-1.6431,-1.6218,-1.5967,-1.5168,-1.4381,-1.3839,-1.3195,-1.2618,-1.1899,-1.1801,-1.1416,-2.9122,-2.9119,-2.896,-2.8906,-2.8842,-2.8428,-2.8076,-2.7861,-2.7745,-2.7162,-2.6332,-2.6056,-2.5367,-2.4267,-2.3604,-2.3342,-2.3372,-2.2491,-2.168,-2.1039,-2.1007,-2.1259,-2.1665,-2.1753,-2.2006,-2.2255,-2.1295,-1.9993,-1.8861,-1.8427,-1.7601,-1.6388,-1.5123,-1.3717,-1.2683,-1.3084,-1.3794,-1.5035,-1.7554,-1.9654,-2.1172,-2.3025,-2.3966,-2.4042,-2.4532,-2.4458,-2.3584,-2.3399,-2.32,-2.2888,-2.184,-2.1135,-2.1031,-2.1117,-2.123,-2.1388,-2.1908,-2.2353,-2.2493,-2.2554,-2.2602,-2.271,-2.3135,-2.3173,-2.2634,-2.3152,-2.3402,-2.34,-2.3385,-2.3808,-2.4429,-2.4343,-2.41,-2.4169,-2.466,-2.4953,-2.4811,-2.4629,-2.4599,-2.4705,-2.4813,-2.4823,-2.4746,-2.4274,-2.3927,-2.3904,-2.2807,-2.1936,-2.1294,-2.0824,-2.038,-1.9908,-1.9226,-1.888,-1.8635,-1.8736,-1.8543,-1.8425,-1.8245,-1.7918,-1.7611,-1.7036,-1.6593,-1.6191,-1.5922,-1.574,-1.5243,-1.444,-1.3788,-1.3253,-1.2827,-1.225,-1.1929,-1.184,-1.1635,-2.7936,-2.7974,-2.7926,-2.7992,-2.802,-2.7865,-2.7391,-2.6856,-2.6974,-2.6174,-2.4952,-2.5229,-2.4611,-2.3671,-2.2506,-2.1895,-2.1569,-2.1647,-2.1434,-2.0893,-2.0894,-2.0926,-2.1007,-2.1039,-2.0989,-2.1008,-2.0535,-1.9862,-1.898,-1.8551,-1.773,-1.6293,-1.4221,-1.2357,-1.0984,-1.0262,-1.0534,-1.2285,-1.4647,-1.7323,-2.0022,-2.2169,-2.3359,-2.3647,-2.4541,-2.4822,-2.4301,-2.3784,-2.3267,-2.2737,-2.2017,-2.1423,-2.1198,-2.1145,-2.1225,-2.1595,-2.1678,-2.1886,-2.2259,-2.2389,-2.2965,-2.3551,-2.3829,-2.3903,-2.4116,-2.4626,-2.4957,-2.5026,-2.508,-2.5379,-2.576,-2.5629,-2.5547,-2.6117,-2.5116,-2.481,-2.525,-2.4764,-2.4172,-2.4606,-2.5107,-2.5051,-2.4238,-2.4136,-2.404,-2.3127,-2.2535,-2.2044,-2.1456,-2.0943,-2.0695,-2.0131,-1.9081,-1.8238,-1.8063,-1.7854,-1.739,-1.7014,-1.6803,-1.655,-1.6369,-1.5917,-1.5684,-1.5361,-1.5127,-1.4905,-1.4451,-1.3661,-1.3001,-1.2508,-1.218,-1.2016,-1.1958,-1.191,-1.2329,-2.7897,-2.7897,-2.7897,-2.7897,-2.7798,-2.7075,-2.6393,-2.5811,-2.527,-2.4228,-2.3192,-2.3145,-2.2522,-2.1593,-2.1009,-2.045,-1.9745,-1.9863,-1.9974,-2.0065,-2.007,-2.0243,-2.0465,-2.0516,-2.0236,-1.9846,-1.9937,-1.9415,-1.8467,-1.8022,-1.7089,-1.5394,-1.3009,-1.0498,-0.8386,-0.8245,-0.8642,-0.9123,-1.2897,-1.626,-1.8784,-2.0961,-2.2809,-2.439,-2.5282,-2.5403,-2.4787,-2.3958,-2.3365,-2.3023,-2.2344,-2.1991,-2.2043,-2.189,-2.1936,-2.2271,-2.2163,-2.2106,-2.2333,-2.2784,-2.3033,-2.3325,-2.3933,-2.4405,-2.4539,-2.5013,-2.5533,-2.5988,-2.6112,-2.6319,-2.6766,-2.7057,-2.6631,-2.5601,-2.495,-2.459,-2.47,-2.4505,-2.4708,-2.5198,-2.543,-2.4941,-2.419,-2.4239,-2.4152,-2.2927,-2.2392,-2.198,-2.1289,-2.0574,-1.9749,-1.9211,-1.8236,-1.748,-1.7269,-1.6754,-1.6018,-1.5854,-1.5723,-1.5527,-1.5277,-1.5049,-1.4828,-1.467,-1.4449,-1.4034,-1.3561,-1.2968,-1.2339,-1.1934,-1.1757,-1.1734,-1.1814,-1.2047,-1.2407,-2.7523,-2.7538,-2.7483,-2.7348,-2.7155,-2.6407,-2.5831,-2.5345,-2.4705,-2.3659,-2.2643,-2.2296,-2.1381,-2.0231,-1.9818,-1.9317,-1.865,-1.8612,-1.8674,-1.8812,-1.9043,-1.9251,-1.9426,-1.9236,-1.8907,-1.8561,-1.8728,-1.85,-1.7742,-1.7462,-1.6697,-1.5074,-1.2552,-1.0023,-0.7485,-0.6841,-0.6664,-0.7726,-1.0974,-1.4152,-1.6603,-1.8849,-2.09,-2.2535,-2.3116,-2.3111,-2.2759,-2.2162,-2.2323,-2.3043,-2.2865,-2.2792,-2.3023,-2.2677,-2.2544,-2.2688,-2.2596,-2.2453,-2.2583,-2.3313,-2.3802,-2.3904,-2.4864,-2.5526,-2.5613,-2.593,-2.6505,-2.6905,-2.7046,-2.7187,-2.7571,-2.7674,-2.71,-2.5832,-2.5434,-2.496,-2.4439,-2.4432,-2.4742,-2.5213,-2.5504,-2.499,-2.4338,-2.4234,-2.4162,-2.2995,-2.2375,-2.2097,-2.1341,-2.0428,-1.9688,-1.8762,-1.7642,-1.7005,-1.6499,-1.5693,-1.4697,-1.4661,-1.4747,-1.4602,-1.4401,-1.4223,-1.4035,-1.42,-1.4067,-1.3588,-1.3071,-1.2417,-1.1818,-1.1588,-1.1267,-1.1328,-1.1419,-1.1937,-1.2289,-2.6831,-2.6792,-2.6686,-2.6385,-2.6052,-2.5865,-2.5481,-2.5099,-2.4856,-2.4,-2.288,-2.2211,-2.1151,-1.9701,-1.9136,-1.862,-1.8054,-1.792,-1.7477,-1.7206,-1.737,-1.7706,-1.7944,-1.7611,-1.7344,-1.7155,-1.7235,-1.7194,-1.7022,-1.6955,-1.6515,-1.5028,-1.2606,-1.0417,-0.8293,-0.5886,-0.5695,-0.7144,-0.8977,-1.1296,-1.3805,-1.5815,-1.7481,-1.8714,-1.8772,-1.8759,-1.8706,-1.8574,-1.9954,-2.2663,-2.2871,-2.3092,-2.349,-2.3267,-2.3038,-2.3168,-2.2944,-2.306,-2.3267,-2.4112,-2.4835,-2.5438,-2.6144,-2.6922,-2.6953,-2.7267,-2.7619,-2.7848,-2.7904,-2.7995,-2.8135,-2.8103,-2.7511,-2.6802,-2.6038,-2.5358,-2.4681,-2.4655,-2.4911,-2.5107,-2.5484,-2.5505,-2.4253,-2.4284,-2.394,-2.2998,-2.2466,-2.2237,-2.1781,-2.0885,-2.012,-1.8888,-1.7409,-1.6524,-1.5959,-1.5129,-1.4239,-1.4185,-1.4162,-1.3951,-1.3826,-1.3661,-1.3544,-1.3688,-1.3521,-1.3063,-1.2529,-1.1861,-1.1263,-1.0853,-1.0754,-1.0821,-1.1105,-1.1509,-1.1939,-2.6108,-2.5686,-2.5589,-2.5508,-2.533,-2.4857,-2.4318,-2.3803,-2.3304,-2.2515,-2.1511,-2.1171,-2.0341,-1.8997,-1.8879,-1.8064,-1.6979,-1.6774,-1.5972,-1.4801,-1.4744,-1.5664,-1.6539,-1.6606,-1.6262,-1.5979,-1.6107,-1.6355,-1.5985,-1.5806,-1.5213,-1.4052,-1.1849,-0.9872,-0.7902,-0.6587,-0.5684,-0.555,-0.7239,-0.8848,-1.0306,-1.1976,-1.3495,-1.4782,-1.5336,-1.5227,-1.4745,-1.4364,-1.5885,-1.9216,-2.0891,-2.1806,-2.2127,-2.2751,-2.3209,-2.3769,-2.4276,-2.4569,-2.4735,-2.5437,-2.604,-2.6259,-2.6872,-2.7196,-2.7507,-2.7781,-2.8112,-2.8394,-2.8573,-2.865,-2.8855,-2.897,-2.8461,-2.7186,-2.6261,-2.5261,-2.4743,-2.4785,-2.512,-2.5647,-2.6185,-2.5523,-2.4538,-2.4402,-2.4425,-2.3111,-2.2473,-2.2158,-2.1735,-2.0895,-1.9917,-1.8643,-1.73,-1.6261,-1.535,-1.4526,-1.3994,-1.3887,-1.3758,-1.3471,-1.3415,-1.338,-1.3333,-1.3373,-1.283,-1.2316,-1.1826,-1.1238,-1.0746,-1.0332,-1.0419,-1.0585,-1.0607,-1.09,-1.1383,-2.5415,-2.5282,-2.5217,-2.5051,-2.4768,-2.4139,-2.3585,-2.3032,-2.234,-2.1582,-2.0825,-2.0478,-1.9633,-1.8421,-1.7983,-1.7077,-1.5846,-1.5439,-1.4517,-1.3392,-1.2445,-1.3101,-1.4317,-1.4568,-1.4216,-1.3971,-1.4212,-1.4133,-1.3818,-1.3626,-1.3034,-1.2119,-1.0356,-0.8761,-0.767,-0.6602,-0.5919,-0.5634,-0.6645,-0.7547,-0.838,-0.8851,-0.9844,-1.0871,-1.1228,-1.078,-1.0538,-1.0174,-1.1766,-1.5074,-1.6835,-1.7906,-1.9252,-2.0195,-2.1377,-2.271,-2.3665,-2.4256,-2.4884,-2.5851,-2.6697,-2.7099,-2.7662,-2.8275,-2.8586,-2.8702,-2.8959,-2.9182,-2.9243,-2.9366,-2.953,-2.9602,-2.9257,-2.8586,-2.7172,-2.5834,-2.4751,-2.5077,-2.531,-2.5527,-2.5574,-2.5467,-2.3959,-2.4384,-2.3922,-2.3041,-2.2463,-2.2074,-2.162,-2.0635,-1.9684,-1.856,-1.7377,-1.6335,-1.5542,-1.4735,-1.4211,-1.4055,-1.3543,-1.3257,-1.3141,-1.3141,-1.3072,-1.2897,-1.2258,-1.1689,-1.1308,-1.0943,-1.0582,-1.0322,-1.0322,-1.0342,-1.043,-1.0527,-1.0981,-2.4596,-2.5017,-2.4892,-2.4545,-2.3971,-2.3475,-2.279,-2.2395,-2.1652,-2.1015,-2.0455,-2.0025,-1.8999,-1.769,-1.6812,-1.5829,-1.4974,-1.3994,-1.3064,-1.1805,-1.062,-1.0346,-1.1393,-1.1659,-1.1531,-1.146,-1.1375,-1.1451,-1.139,-1.0939,-1.0563,-1.0074,-0.8495,-0.7588,-0.6951,-0.6009,-0.5756,-0.5747,-0.5779,-0.6133,-0.6411,-0.6303,-0.6609,-0.6879,-0.6171,-0.6099,-0.6222,-0.6309,-0.7645,-1.1526,-1.193,-1.3529,-1.5381,-1.6147,-1.7987,-2.024,-2.1819,-2.3056,-2.3955,-2.5496,-2.6882,-2.7598,-2.8723,-2.9557,-2.9544,-2.9555,-2.9675,-2.9771,-2.9846,-2.9775,-2.9919,-2.9688,-2.9596,-2.9513,-2.8711,-2.7286,-2.5655,-2.5582,-2.5747,-2.5004,-2.4905,-2.4654,-2.4213,-2.3804,-2.3401,-2.3175,-2.2634,-2.2096,-2.1615,-2.0884,-1.9957,-1.8944,-1.7708,-1.6481,-1.5764,-1.5065,-1.4633,-1.4293,-1.3607,-1.3176,-1.3037,-1.299,-1.2885,-1.2591,-1.2136,-1.1627,-1.1164,-1.0761,-1.0428,-1.0322,-1.0322,-1.0322,-1.0351,-1.0508,-1.0818,-2.2861,-2.2473,-2.2455,-2.2398,-2.2168,-2.1539,-2.1145,-2.0979,-2.0263,-1.951,-1.9117,-1.8924,-1.8008,-1.6689,-1.5756,-1.479,-1.3518,-1.2471,-1.1335,-0.9664,-0.8074,-0.7193,-0.7728,-0.8521,-0.927,-0.9247,-0.934,-0.9394,-0.933,-0.9033,-0.8876,-0.8226,-0.7015,-0.6396,-0.5707,-0.4834,-0.4351,-0.4139,-0.4027,-0.3811,-0.3535,-0.345,-0.3225,-0.2909,-0.1988,-0.184,-0.2213,-0.2257,-0.2966,-0.4994,-0.8117,-1.0673,-1.2127,-1.4798,-1.6705,-1.8078,-2.0443,-2.2299,-2.3451,-2.48,-2.6561,-2.7389,-2.8152,-2.9318,-2.9297,-2.9453,-2.9694,-2.9833,-2.9582,-2.9453,-2.9601,-2.9567,-2.9453,-2.9452,-2.9635,-2.9049,-2.7468,-2.6684,-2.6556,-2.6721,-2.6654,-2.6498,-2.5656,-2.5349,-2.4653,-2.3585,-2.2785,-2.2181,-2.1648,-2.1168,-2.0305,-1.941,-1.8634,-1.7568,-1.6957,-1.6195,-1.5479,-1.4822,-1.4002,-1.3373,-1.3221,-1.2803,-1.272,-1.2461,-1.211,-1.1575,-1.095,-1.0657,-1.0322,-1.0322,-1.0322,-1.0322,-1.0361,-1.0498,-1.0763,-2.0714,-2.0673,-2.066,-2.066,-2.046,-1.9421,-1.9158,-1.9219,-1.7765,-1.7185,-1.7251,-1.6905,-1.5967,-1.4954,-1.4222,-1.3221,-1.1856,-1.0585,-0.9467,-0.8193,-0.6619,-0.5546,-0.5046,-0.5428,-0.5895,-0.6498,-0.6683,-0.6744,-0.6713,-0.637,-0.5749,-0.5203,-0.4402,-0.3452,-0.3018,-0.2579,-0.209,-0.1818,-0.1767,-0.1502,-0.1143,-0.0774,-0.0555,-0.0062,0.032,0.013,-0.1051,-0.1187,-0.1518,-0.2756,-0.5177,-0.7344,-0.8435,-1.0956,-1.3036,-1.5049,-1.7548,-1.9713,-2.1003,-2.2582,-2.4011,-2.5059,-2.5816,-2.6564,-2.7146,-2.7695,-2.8366,-2.8862,-2.9062,-2.9124,-2.9187,-2.8363,-2.8384,-2.924,-2.9614,-2.9527,-2.8836,-2.7829,-2.7149,-2.735,-2.6958,-2.6593,-2.6233,-2.6099,-2.5349,-2.3995,-2.3412,-2.2792,-2.2219,-2.1669,-2.0906,-2.0124,-1.9561,-1.8877,-1.8304,-1.7459,-1.6491,-1.5644,-1.4673,-1.4085,-1.3699,-1.3153,-1.2567,-1.2186,-1.1723,-1.125,-1.0687,-1.0438,-1.0322,-1.0322,-1.0322,-1.0322,-1.0342,-1.0361,-1.0793,-1.8223,-1.869,-1.8702,-1.8702,-1.8464,-1.7014,-1.6823,-1.7187,-1.5111,-1.4593,-1.5083,-1.4291,-1.3633,-1.2923,-1.2215,-1.1193,-0.9699,-0.8393,-0.7293,-0.6847,-0.4882,-0.3856,-0.3374,-0.2663,-0.2373,-0.3369,-0.3781,-0.3903,-0.3764,-0.3197,-0.2799,-0.1905,-0.1049,-0.0717,-0.0055,0.0441,0.0441,0.0496,0.0332,0.039,0.0632,0.1135,0.1305,0.1419,0.1172,0.0579,-0.0554,-0.0978,-0.1444,-0.2161,-0.2873,-0.3752,-0.4916,-0.6712,-0.8292,-1.1352,-1.3831,-1.5719,-1.7112,-1.8688,-2.0004,-2.095,-2.1972,-2.2915,-2.411,-2.5212,-2.6148,-2.6664,-2.6967,-2.6848,-2.7601,-2.5743,-2.6032,-2.7387,-2.8139,-2.872,-2.9007,-2.8133,-2.7262,-2.7795,-2.7345,-2.6764,-2.6442,-2.6176,-2.5333,-2.4495,-2.3877,-2.3301,-2.265,-2.223,-2.148,-2.1101,-2.0605,-2.0128,-1.9543,-1.817,-1.7267,-1.6251,-1.5299,-1.4323,-1.3741,-1.2883,-1.2133,-1.1667,-1.1228,-1.0819,-1.0544,-1.04,-1.0322,-1.0322,-1.0332,-1.0371,-1.0322,-1.0273,-1.0729,-1.5081,-1.5164,-1.5164,-1.5164,-1.506,-1.4188,-1.3946,-1.3901,-1.2877,-1.2529,-1.2616,-1.2036,-1.1603,-1.1148,-0.9919,-0.832,-0.6844,-0.5812,-0.5337,-0.4885,-0.3021,-0.1661,-0.0719,-0.0173,0.0447,0.0559,-0.0403,-0.1291,-0.1295,-0.0824,-0.0233,0.0,0.1014,0.1598,0.1657,0.2046,0.2764,0.2717,0.2386,0.2343,0.2742,0.2632,0.2579,0.2489,0.2033,0.1029,0.0126,-0.0681,-0.1469,-0.2116,-0.23,-0.2538,-0.3323,-0.5564,-0.7074,-0.8171,-1.0031,-1.1889,-1.2976,-1.3937,-1.5164,-1.6573,-1.8118,-1.9722,-2.0929,-2.2345,-2.2822,-2.3064,-2.2244,-2.1511,-2.2349,-2.0656,-2.0943,-2.254,-2.3791,-2.4395,-2.5099,-2.5086,-2.5361,-2.6228,-2.6482,-2.6704,-2.5982,-2.5344,-2.4548,-2.3634,-2.2947,-2.2542,-2.2113,-2.2123,-2.2111,-2.1904,-2.1797,-2.1305,-2.0806,-1.9135,-1.7799,-1.6771,-1.5632,-1.4017,-1.3242,-1.2327,-1.1622,-1.1174,-1.0887,-1.0629,-1.0418,-1.0244,-1.0196,-1.0079,-1.0205,-1.0361,-1.0205,-1.0084,-1.0361,-1.3149,-1.3113,-1.2875,-1.2724,-1.25,-1.142,-1.1241,-1.1457,-1.0184,-0.9802,-0.9811,-0.9054,-0.8379,-0.8082,-0.7115,-0.5726,-0.468,-0.3945,-0.368,-0.317,-0.1567,0.0678,0.1873,0.215,0.2096,0.2261,0.1997,0.1774,0.1482,0.1637,0.2222,0.3138,0.3761,0.3905,0.4078,0.4692,0.5073,0.5053,0.4754,0.4678,0.5216,0.4702,0.4391,0.3875,0.314,0.2133,0.1067,0.063,-0.0062,-0.0611,-0.0843,-0.1087,-0.189,-0.2948,-0.4451,-0.5124,-0.6723,-0.8064,-0.8884,-0.9748,-1.0682,-1.1322,-1.2857,-1.38,-1.473,-1.5836,-1.7478,-1.7613,-1.6171,-1.5045,-1.6178,-1.4639,-1.4561,-1.5632,-1.7276,-1.8262,-1.8581,-1.8856,-2.0286,-2.2372,-2.3617,-2.3943,-2.4549,-2.3964,-2.348,-2.2787,-2.1821,-2.1232,-2.0717,-2.0371,-2.0018,-2.0538,-2.0019,-1.9478,-1.8848,-1.7552,-1.5864,-1.5174,-1.5969,-1.4374,-1.3116,-1.233,-1.1397,-1.066,-1.0456,-0.9977,-0.9922,-0.9594,-0.9725,-0.982,-0.9785,-0.9753,-0.983,-0.9944,-1.0189,-1.1102,-1.1076,-1.0661,-1.0328,-0.9952,-0.8698,-0.8482,-0.8751,-0.733,-0.7096,-0.7507,-0.6159,-0.54,-0.5107,-0.4485,-0.3673,-0.2844,-0.2258,-0.2144,-0.1654,0.0,0.2428,0.3887,0.412,0.356,0.3792,0.4497,0.4831,0.3862,0.3946,0.4869,0.5405,0.5826,0.6063,0.6357,0.6612,0.7044,0.7065,0.6973,0.7032,0.7052,0.6762,0.6333,0.5784,0.5006,0.3908,0.303,0.2273,0.1834,0.1311,0.0929,0.0556,-0.0062,-0.0318,-0.0889,-0.2132,-0.367,-0.4702,-0.5248,-0.614,-0.6687,-0.6639,-0.6879,-0.7613,-0.8457,-0.985,-1.0555,-1.1128,-0.9631,-0.8531,-0.9527,-0.8247,-0.7502,-0.8083,-0.9749,-1.1172,-1.0894,-1.116,-1.2185,-1.4943,-1.8718,-1.9748,-1.8999,-2.0035,-1.9037,-1.7702,-1.6721,-1.6506,-1.6057,-1.5821,-1.5901,-1.7303,-1.7473,-1.687,-1.5982,-1.4706,-1.2781,-1.0987,-1.3558,-1.471,-1.3581,-1.2584,-1.1221,-0.947,-0.9122,-0.8711,-0.8797,-0.9014,-0.9492,-0.9597,-0.9331,-0.9408,-0.9778,-0.9733,-0.9729,-0.7704,-0.7704,-0.7617,-0.7126,-0.6451,-0.6169,-0.5675,-0.5204,-0.4948,-0.4787,-0.505,-0.4134,-0.3678,-0.3332,-0.2943,-0.1819,-0.0807,-0.027,-0.0204,0.0067,0.2014,0.3926,0.5325,0.5774,0.5472,0.5576,0.6366,0.5904,0.5457,0.5975,0.6459,0.6946,0.7356,0.7306,0.7269,0.8183,0.8131,0.777,0.7687,0.7633,0.7549,0.7573,0.7573,0.7333,0.6729,0.6059,0.5439,0.451,0.3656,0.3589,0.2827,0.2455,0.2306,0.2255,0.2193,0.1059,-0.073,-0.2661,-0.2239,-0.2701,-0.2969,-0.2758,-0.3357,-0.4025,-0.4239,-0.4843,-0.5654,-0.6159,-0.374,-0.2237,-0.2367,-0.0757,-0.0068,-0.058,-0.1975,-0.2786,-0.2794,-0.3526,-0.4554,-0.5143,-0.8203,-1.046,-1.1202,-1.303,-1.4242,-1.287,-1.1717,-1.1393,-1.1363,-1.1105,-1.0965,-1.2104,-1.2136,-1.156,-1.1523,-1.0465,-0.852,-0.6506,-0.8805,-1.2057,-0.9548,-0.7513,-0.9181,-0.7786,-0.6886,-0.5743,-0.5029,-0.5805,-0.8309,-0.9316,-0.9044,-0.9444,-1.0047,-0.9787,-0.9197,-0.4964,-0.5536,-0.5178,-0.4869,-0.4442,-0.4132,-0.3783,-0.3526,-0.3462,-0.3462,-0.3147,-0.2012,-0.0989,-0.0201,0.0414,0.0898,0.1643,0.1977,0.1956,0.2003,0.3682,0.5434,0.6496,0.6659,0.6567,0.7162,0.7675,0.8159,0.758,0.7386,0.77,0.8713,0.9049,0.935,0.8883,1.0057,1.0534,1.0543,1.0426,1.0122,0.9643,0.9211,0.89,0.872,0.7872,0.7543,0.7126,0.6314,0.5895,0.5959,0.5438,0.4987,0.4901,0.492,0.486,0.4641,0.2596,0.1201,0.0933,0.0533,0.0533,0.0737,0.0268,0.0274,0.0558,0.0634,0.0706,0.1644,0.3072,0.4063,0.4597,0.5958,0.6788,0.658,0.5091,0.5039,0.4607,0.4005,0.3276,0.2938,0.2313,-0.0263,-0.2785,-0.4584,-0.6176,-0.6308,-0.5242,-0.4772,-0.5462,-0.629,-0.6201,-0.6356,-0.5948,-0.522,-0.5501,-0.5196,-0.2968,-0.118,-0.0628,-0.2736,-0.1372,-0.076,-0.0791,-0.0744,0.1178,0.1407,0.0305,-0.3266,-0.6449,-0.7778,-0.8785,-0.8609,-0.8414,-0.8568,-0.817,-0.21,-0.2913,-0.3146,-0.3055,-0.2587,-0.2134,-0.1687,-0.1282,-0.1155,-0.1227,-0.0955,0.0205,0.159,0.2603,0.2693,0.2765,0.3203,0.4034,0.4241,0.455,0.5321,0.6645,0.7432,0.7474,0.7659,0.8137,0.8766,0.9367,0.9668,0.9419,0.9349,1.0555,1.0643,1.0886,1.1264,1.1742,1.215,1.2335,1.2274,1.1958,1.1441,1.0792,1.0301,0.9825,0.9186,0.8613,0.8544,0.7817,0.7757,0.7887,0.7293,0.675,0.6755,0.6711,0.6715,0.6498,0.5173,0.4587,0.3789,0.3058,0.2935,0.3232,0.3755,0.3809,0.4544,0.5664,0.6598,0.7104,0.8127,0.9493,1.0873,1.0991,1.173,1.1798,1.1416,1.1774,1.1624,1.0214,0.9486,0.933,0.8956,0.902,0.6602,0.4339,0.2615,0.1057,0.1162,0.1819,0.1403,0.0468,0.1045,0.1763,0.3137,0.4049,0.42,0.3876,0.4855,0.5028,0.5643,0.7358,0.9201,1.0726,1.1637,1.149,1.0125,1.0642,1.0804,0.293,-0.4405,-0.4517,-0.486,-0.6067,-0.6388,-0.6651,-0.7203,0.1249,0.0966,-0.1627,-0.1706,-0.0267,-0.0069,0.0972,0.2019,0.2352,0.2439,0.243,0.2884,0.3022,0.3413,0.3812,0.3998,0.4271,0.5047,0.6036,0.7025,0.7792,0.7922,0.8382,0.8689,0.8988,0.9237,0.9786,1.0643,1.1291,1.111,1.1228,1.1872,1.2025,1.2047,1.2282,1.2858,1.3239,1.3298,1.3116,1.2889,1.2494,1.2069,1.1712,1.1432,1.085,1.0428,1.0364,0.9448,0.9122,0.9256,0.8533,0.8151,0.814,0.8242,0.8306,0.8252,0.8122,0.7736,0.7339,0.4979,0.3584,0.4755,0.6131,0.692,0.7247,0.8112,0.9113,1.0405,1.1417,1.2329,1.3408,1.4255,1.479,1.5064,1.4845,1.5028,1.505,1.5204,1.4668,1.5164,1.4869,1.3991,1.3796,1.1082,0.8723,0.7091,0.789,0.8602,0.9892,0.9557,1.0376,1.1389,1.316,1.4474,1.5726,1.5447,1.3773,1.4151,1.5097,1.778,2.0626,2.1837,1.9702,2.003,1.8269,1.9843,1.9369,1.0784,0.4009,0.0918,-0.0761,-0.1358,-0.3456,-0.4725,-0.5638,0.2501,0.241,0.1327,0.1297,0.1901,0.1991,0.2357,0.2938,0.311,0.384,0.4847,0.4986,0.5682,0.6438,0.6753,0.6895,0.7258,0.7962,0.8211,0.826,0.8562,0.9171,0.9509,0.9484,0.953,1.0135,1.0781,1.1561,1.2417,1.2562,1.3441,1.3766,1.3378,1.3314,1.3539,1.3967,1.4336,1.444,1.4276,1.4096,1.3602,1.3425,1.3061,1.252,1.1779,1.1663,1.1779,1.0696,1.0508,1.0458,0.9945,0.9786,0.9746,1.0053,1.0367,1.051,1.0477,1.0817,1.0797,0.8043,0.633,0.7074,0.8737,0.9826,0.9964,1.1627,1.3013,1.3962,1.4305,1.4932,1.6115,1.6184,1.6303,1.7056,1.7398,1.7472,1.7699,1.7689,1.7675,1.7187,1.7413,1.7219,1.7289,1.7168,1.4906,1.3089,1.4272,1.5255,1.5825,1.645,1.6378,1.6434,1.7756,1.8348,1.9368,2.0362,2.131,2.2151,2.2987,2.385,2.4698,2.4405,2.2991,2.4277,2.4188,2.2606,2.0078,1.6348,1.227,0.8357,0.5663,0.3953,0.1286,-0.1788,-0.3341,0.3559,0.3585,0.3888,0.3817,0.3568,0.3871,0.4174,0.44,0.4646,0.531,0.6695,0.7044,0.7777,0.8906,0.9064,0.893,0.8979,0.9422,0.9082,0.9237,0.9712,1.0647,1.083,1.0778,1.0724,1.1226,1.1531,1.2205,1.3364,1.3914,1.4436,1.4694,1.4735,1.4473,1.4615,1.505,1.542,1.542,1.5352,1.5167,1.456,1.4204,1.3726,1.307,1.2389,1.2143,1.2313,1.1792,1.1866,1.2022,1.1926,1.1723,1.188,1.218,1.2662,1.284,1.3084,1.3489,1.3092,1.1774,0.9766,1.0454,1.1057,1.2026,1.3009,1.4445,1.4967,1.6309,1.6665,1.7125,1.7881,1.7307,1.7259,1.7864,1.776,1.7876,1.8585,1.885,1.8939,1.8802,1.9189,1.9598,1.9459,1.9371,1.8413,1.6815,1.7328,1.8013,1.8475,1.9044,1.9534,1.9686,2.0171,2.0562,2.0903,2.1678,2.2365,2.2892,2.3635,2.4039,2.4559,2.4499,2.4516,2.4509,2.4049,2.3225,2.169,1.9503,1.7462,1.5171,1.2058,0.8516,0.7114,0.41,0.0801,0.4683,0.4841,0.5777,0.5544,0.4896,0.5705,0.6508,0.6982,0.7609,0.7966,0.8337,0.8859,0.9251,0.9632,0.9974,1.0103,1.026,1.0605,1.0271,0.9964,1.1141,1.2296,1.2437,1.2251,1.1779,1.252,1.2634,1.2992,1.4195,1.4492,1.4972,1.543,1.5555,1.5371,1.5371,1.5362,1.542,1.5449,1.5508,1.5439,1.5281,1.4823,1.4221,1.3743,1.3314,1.3083,1.3132,1.3288,1.3377,1.3465,1.378,1.3695,1.3672,1.4005,1.4281,1.436,1.4488,1.4589,1.4387,1.3407,1.3467,1.3604,1.3998,1.4348,1.4783,1.5615,1.649,1.8041,1.7755,1.7638,1.7678,1.7853,1.826,1.8479,1.8425,1.8517,1.9202,1.9606,1.9527,1.9724,2.0716,2.1417,2.1233,2.1019,2.0765,2.036,2.0537,2.0774,2.0976,2.1338,2.1749,2.1601,2.1773,2.1911,2.2104,2.2763,2.3406,2.3869,2.4066,2.427,2.441,2.4373,2.4417,2.4484,2.4302,2.3812,2.3813,2.3501,2.1274,1.8875,1.5585,1.2657,1.1629,0.9709,0.6088,0.6167,0.6777,0.7169,0.7479,0.7588,0.7342,0.745,0.7841,0.8566,0.9357,0.989,1.0201,1.1156,1.1816,1.2184,1.233,1.2971,1.3228,1.2899,1.1465,1.2785,1.3785,1.4021,1.3397,1.2883,1.307,1.3183,1.3786,1.4915,1.5342,1.6073,1.6673,1.643,1.6306,1.6029,1.5869,1.5957,1.624,1.6299,1.6237,1.6218,1.5932,1.5604,1.5212,1.4747,1.4603,1.4603,1.4789,1.4859,1.4868,1.5129,1.5027,1.4959,1.5223,1.6088,1.6603,1.7041,1.7985,1.8039,1.776,1.7396,1.7005,1.6769,1.709,1.7753,1.9034,1.964,1.9635,1.9586,1.9597,1.9834,1.935,1.9465,1.9515,1.9488,1.9341,1.9651,1.9759,1.9902,2.026,2.103,2.1796,2.1963,2.2245,2.2152,2.222,2.2197,2.2545,2.281,2.3097,2.3422,2.2922,2.2805,2.2978,2.3227,2.3412,2.3608,2.3919,2.4016,2.4049,2.4142,2.4274,2.4325,2.4413,2.4506,2.4513,2.4372,2.4241,2.4068,2.211,1.8643,1.698,1.6568,1.4137,1.0511,0.7706,0.8313,0.8313,0.8694,0.9221,0.8988,0.8983,0.9442,1.0121,1.0956,1.1768,1.1903,1.2625,1.3803,1.4314,1.4458,1.5163,1.5147,1.4887,1.3454,1.4229,1.5077,1.5123,1.4613,1.44,1.4215,1.4353,1.493,1.6267,1.6622,1.7101,1.7371,1.7326,1.6869,1.656,1.6484,1.6396,1.6602,1.6548,1.6568,1.6587,1.6534,1.6417,1.6145,1.5944,1.5944,1.6147,1.6168,1.6132,1.6132,1.6169,1.6262,1.6355,1.6908,1.7955,1.8743,1.9318,2.0172,2.0366,2.0538,1.9979,1.9665,1.9748,1.9846,2.0019,2.0571,2.0894,2.1128,2.1455,2.1123,2.0711,2.0211,2.0179,2.0287,2.0241,2.0098,2.032,2.0469,2.0617,2.097,2.1531,2.2179,2.2754,2.3231,2.3501,2.3622,2.3774,2.4027,2.4147,2.4253,2.4177,2.3611,2.3273,2.3256,2.3372,2.3546,2.3759,2.3966,2.3999,2.4,2.4249,2.4464,2.4398,2.4298,2.4127,2.4156,2.4566,2.4526,2.3799,2.306,2.1412,2.063,2.1183,1.8808,1.5479,0.9301,0.9377,0.9372,0.9448,0.9669,1.0628,1.1459,1.2231,1.2372,1.3018,1.4099,1.3738,1.4227,1.5013,1.5234,1.5376,1.5587,1.5587,1.547,1.5377,1.5744,1.6271,1.629,1.5844,1.5649,1.5801,1.6019,1.6355,1.7788,1.7916,1.7997,1.7909,1.7534,1.7316,1.7189,1.7051,1.6924,1.7002,1.6967,1.6977,1.6986,1.6889,1.6725,1.6531,1.6522,1.6448,1.6588,1.6721,1.7147,1.7358,1.7628,1.8302,1.8843,1.9286,1.9878,2.0403,2.0726,2.1244,2.1705,2.1854,2.2101,2.1786,2.1335,2.1423,2.1509,2.1537,2.162,2.1673,2.1758,2.1327,2.0848,2.0765,2.0668,2.0724,2.0804,2.0905,2.1199,2.1422,2.1538,2.1874,2.246,2.3043,2.3437,2.3912,2.4074,2.3941,2.3891,2.3743,2.3925,2.4254,2.4089,2.3525,2.3289,2.3362,2.3406,2.3231,2.342,2.3466,2.3986,2.4081,2.4388,2.4388,2.4159,2.3888,2.3616,2.3685,2.4034,2.3703,2.2962,2.228,2.1989,2.2019,2.1862,2.3378,2.179,0.9744,1.034,1.034,1.1149,1.2478,1.3484,1.371,1.344,1.4008,1.4665,1.4887,1.4807,1.5296,1.614,1.621,1.6576,1.6941,1.7217,1.7257,1.7147,1.6853,1.7214,1.7161,1.6799,1.6606,1.6762,1.7059,1.7503,1.86,1.9039,1.9227,1.9109,1.828,1.8021,1.774,1.7695,1.7607,1.7549,1.7519,1.7519,1.7539,1.7529,1.7264,1.7321,1.7311,1.7235,1.7378,1.7513,1.7841,1.7929,1.793,1.8462,1.9222,1.9888,2.0757,2.22,2.2421,2.2555,2.2689,2.2763,2.2898,2.3155,2.2604,2.258,2.2592,2.2494,2.2372,2.2286,2.2274,2.2005,2.1932,2.1837,2.1693,2.1595,2.1614,2.1703,2.1939,2.1903,2.2085,2.2903,2.3507,2.3772,2.4176,2.4173,2.425,2.4074,2.3903,2.3646,2.3549,2.3856,2.3701,2.3126,2.296,2.2915,2.2555,2.2306,2.2675,2.3009,2.345,2.3764,2.3705,2.3682,2.3644,2.3493,2.3165,2.3211,2.3418,2.2924,2.2329,2.2451,2.2259,2.242,2.2829,2.4028,2.4912,1.0795,1.1385,1.1822,1.2844,1.4307,1.5305,1.5371,1.4944,1.5141,1.535,1.5713,1.5764,1.6289,1.707,1.7217,1.7432,1.7862,1.7794,1.7842,1.7775,1.7734,1.7782,1.7671,1.7534,1.7334,1.7501,1.7955,1.8625,1.9643,2.0375,2.0668,1.9972,1.9265,1.8532,1.8103,1.793,1.7959,1.7949,1.7969,1.8008,1.8008,1.8008,1.8008,1.8008,1.8008,1.8008,1.8134,1.8192,1.8452,1.8586,1.8721,1.9431,2.0333,2.1186,2.1773,2.2982,2.3292,2.3293,2.3442,2.3716,2.3716,2.3716,2.3704,2.3779,2.3492,2.3331,2.3106,2.2919,2.2992,2.3053,2.3065,2.3027,2.2827,2.2614,2.2555,2.2437,2.2385,2.2287,2.2948,2.3854,2.435,2.4623,2.47,2.4579,2.4295,2.3911,2.3596,2.3414,2.3211,2.3231,2.2964,2.2405,2.2348,2.2275,2.1932,2.1765,2.2208,2.2552,2.2795,2.3037,2.2973,2.2786,2.2627,2.2629,2.2629,2.2586,2.2454,2.2264,2.1876,2.1945,2.1903,2.1828,2.2294,2.3663,2.4354,1.2372,1.2519,1.3528,1.445,1.5376,1.6289,1.6682,1.6605,1.5903,1.5931,1.662,1.6711,1.7148,1.7725,1.7794,1.7862,1.8008,1.8008,1.8008,1.8008,1.7949,1.8055,1.8257,1.8172,1.8278,1.8344,1.8908,1.9979,2.0717,2.1116,2.0922,2.0526,1.9444,1.8633,1.8056,1.8008,1.8008,1.8008,1.8008,1.8008,1.8008,1.8008,1.8008,1.8008,1.8008,1.8066,1.8327,1.871,1.9365,1.9628,2.0151,2.0948,2.1863,2.2725,2.3157,2.3538,2.4039,2.4103,2.4242,2.4532,2.4684,2.4721,2.473,2.4543,2.4179,2.3904,2.374,2.3439,2.3439,2.3439,2.3439,2.3263,2.3037,2.3025,2.3002,2.288,2.2786,2.3084,2.408,2.4797,2.499,2.5165,2.487,2.4716,2.3997,2.363,2.3441,2.3224,2.2979,2.2817,2.2465,2.1949,2.189,2.1876,2.1716,2.1645,2.1925,2.2248,2.221,2.2304,2.2269,2.1974,2.156,2.1382,2.1156,2.1335,2.1267,2.1015,2.0858,2.0987,2.093,2.0923,2.1751,2.3199,2.4069,1.3382,1.3528,1.5217,1.607,1.6349,1.7285,1.7657,1.7676,1.7451,1.7472,1.7658,1.7696,1.7794,1.8066,1.8134,1.8134,1.8202,1.8395,1.8076,1.8144,1.8212,1.8757,1.91,1.91,1.9299,2.0052,2.0744,2.1304,2.1942,2.1604,2.0846,2.0462,1.9365,1.8337,1.8008,1.8008,1.8008,1.8008,1.8008,1.8037,1.8076,1.8027,1.8008,1.8076,1.8066,1.8452,1.8787,1.9264,1.9759,2.0226,2.0852,2.1835,2.3031,2.3909,2.433,2.4507,2.5036,2.5063,2.5103,2.5333,2.5473,2.4947,2.4716,2.4653,2.4528,2.4442,2.4293,2.3991,2.3791,2.3791,2.3728,2.3489,2.3326,2.3414,2.3401,2.3276,2.3185,2.4129,2.5108,2.5452,2.5618,2.54,2.5046,2.4525,2.3836,2.3473,2.3439,2.3245,2.2777,2.2565,2.2393,2.1958,2.1666,2.1572,2.1368,2.1016,2.1064,2.0972,2.0861,2.1114,2.145,2.1108,2.0633,1.99,1.9585,1.9938,2.0014,1.9611,1.9572,2.0029,2.0599,2.0806,2.1559,2.2872,2.369,1.3673,1.3954,1.579,1.6853,1.7345,1.8182,1.8586,1.8664,1.8977,1.9166,1.8988,1.8462,1.8202,1.8529,1.8586,1.8844,1.8977,1.9166,1.9306,1.9204,1.9054,1.9553,1.9814,1.9966,2.0063,2.0782,2.1491,2.2113,2.275,2.2002,2.1112,2.0473,1.9187,1.8424,1.8163,1.8018,1.8047,1.8008,1.8047,1.8135,1.8203,1.8135,1.8289,1.8395,1.8721,1.911,1.9845,2.0369,2.1045,2.1765,2.2462,2.3096,2.3986,2.4437,2.4936,2.5422,2.5894,2.6214,2.6089,2.6193,2.6361,2.5635,2.5394,2.5544,2.5661,2.5498,2.5059,2.4745,2.4418,2.4356,2.4356,2.4167,2.4155,2.4205,2.3974,2.3821,2.3909,2.4477,2.5385,2.6044,2.5879,2.5223,2.492,2.4586,2.3906,2.3404,2.3349,2.3109,2.2695,2.2413,2.2214,2.1764,2.136,2.0853,2.0409,1.998,1.9751,1.9612,1.9703,1.9784,2.0029,1.9952,1.9661,1.9216,1.8894,1.8909,1.8858,1.8846,1.9202,1.9838,2.0422,2.0888,2.1759,2.268,2.3736,1.4235,1.4522,1.621,1.7413,1.8192,1.911,1.9431,1.9562,2.0204,2.0526,2.0268,1.8977,1.8921,1.9243,1.9497,2.0009,2.0257,2.0139,2.0368,2.0422,2.0377,2.0542,2.0624,2.0808,2.0991,2.129,2.1939,2.2506,2.3017,2.2137,2.1325,2.0582,1.979,1.8977,1.8408,1.8193,1.8301,1.834,1.8398,1.8596,1.8468,1.835,1.866,1.8972,1.9396,1.9846,2.0933,2.1806,2.255,2.3361,2.3989,2.4567,2.4975,2.5219,2.5742,2.6259,2.6993,2.7163,2.7154,2.7444,2.7103,2.6667,2.6577,2.6508,2.6471,2.6244,2.5724,2.546,2.5121,2.4921,2.4908,2.4808,2.4808,2.4745,2.4478,2.4229,2.4498,2.4678,2.5445,2.6205,2.5754,2.5073,2.4681,2.4419,2.393,2.3446,2.315,2.2847,2.2667,2.2498,2.2334,2.1522,2.0682,2.0133,1.9889,1.9227,1.8948,1.9109,1.9206,1.8834,1.8614,1.8754,1.8888,1.8907,1.8684,1.8578,1.8734,1.8894,1.9275,1.9837,2.057,2.1313,2.2147,2.3084,2.4193,1.6498,1.7295,1.8355,1.89,1.9177,2.0009,2.0344,2.0398,2.0526,2.059,2.0666,2.0462,2.0257,2.0398,2.0333,2.0722,2.1149,2.1047,2.0692,2.0602,2.0951,2.1253,2.154,2.1753,2.2051,2.2481,2.2813,2.2946,2.3268,2.2466,2.1661,2.1085,2.024,1.954,1.9118,1.8965,1.8896,1.8877,1.911,1.9413,1.9595,1.9402,1.893,1.9157,1.9488,2.0665,2.1758,2.245,2.3377,2.4258,2.5015,2.5598,2.5824,2.5992,2.6406,2.7052,2.7806,2.7913,2.8061,2.8295,2.7881,2.6645,2.6521,2.6521,2.6496,2.6496,2.6138,2.6076,2.5787,2.5498,2.5398,2.5109,2.5021,2.4943,2.4823,2.452,2.4503,2.4619,2.4939,2.5315,2.5218,2.4705,2.43,2.3923,2.3513,2.3178,2.3178,2.2908,2.2942,2.272,2.2517,2.15,2.0428,2.0653,2.0887,1.9065,1.8494,1.8675,1.8771,1.8527,1.8209,1.7856,1.7972,1.8543,1.8491,1.8366,1.8607,1.9111,1.9684,2.0271,2.1064,2.1799,2.2626,2.3699,2.4964]},{"header":{"parameterUnit":"m.s-1","parameterCategory":1,"la1":31.0,"la2":29.5877,"lo1":-88.7671,"lo2":-86.6584,"dy":0.0162,"dx":0.0185,"nx":115,"ny":88,"refTime":"2025-09-05T12:00:00:Z","depth":0,"parameterNumber":3,"parameterNumberName":"V-component_of_WINDS"},"data":[0.0,0.0,0.0,0.0,0.0,0.0,0.0,0.0,0.0,0.0,0.0,0.0,0.0,0.0,0.0,0.0,0.0,0.0,0.0,0.0,0.0,0.0,0.0,0.0,0.0,0.0,0.0,0.0,0.0,0.0,0.0,0.0,0.0,0.0,0.0,0.0,0.0,0.0,0.0,0.0,0.0,0.0,0.0,0.0,0.0,0.0,0.0,0.0,0.0,0.0,0.0,0.0,0.0,0.0,0.0,0.0,0.0,0.0,0.0,0.0,0.0,0.0,0.0,0.0,0.0,0.0,0.0,0.0,0.0,0.0,0.0,0.0,0.0,0.0,0.0,0.0,0.0,0.0,0.0,0.0,0.0,0.0,0.0,0.0,0.0,0.0,0.0,0.0,0.0,0.0,0.0,0.0,0.0,0.0,0.0,0.0,0.0,0.0,0.0,0.0,0.0,0.0,0.0,0.0,0.0,0.0,0.0,0.0,0.0,0.0,0.0,0.0,0.0,0.0,0.0,0.0,0.0,0.0,0.0,0.0,0.0,0.0,0.0,0.0,0.0,0.0,0.0,0.0,0.0,0.0,0.0,0.0,0.0,0.0,0.0,0.0,0.0,0.0,0.0,0.0,0.0,0.0,0.0,0.0,0.0,0.0,0.0,0.0,0.0,0.0,0.0,0.0,0.0,0.0,0.0,0.0,0.0,0.0,0.0,0.0,0.0,0.0,0.0,0.0,0.0,0.0,0.0,0.0,0.0,0.0,0.0,0.0,0.0,0.0,0.0,0.0,0.0,0.0,0.0,0.0,0.0,0.0,0.0,0.0,0.0,0.0,0.0,0.0,0.0,0.0,0.0,0.0,0.0,0.0,0.0,0.0,0.0,0.0,0.0,0.0,0.0,0.0,0.0,0.0,0.0,0.0,0.0,0.0,0.0,0.0,0.0,0.0,0.0,0.0,0.0,0.0,0.0,0.0,0.0,0.0,0.0,0.0,0.0,0.0,0.0,0.0,0.0,0.0,0.0,0.0,0.0,0.0,0.0,0.0,0.0,0.0,0.0,0.0,0.0,0.0,0.0,0.0,0.0,0.0,0.0,0.0,0.0,0.0,0.0,0.0,0.0,0.0,0.0,0.0,0.0,0.0,0.0,0.0,0.0,0.0,0.0,0.0,0.0,0.0,0.0,0.0,0.0,0.0,0.0,0.0,0.0,0.0,0.0,0.0,0.0,0.0,0.0,0.0,0.0,0.0,0.0,0.0,0.0,0.0,0.0,0.0,0.0,0.0,0.0,0.0,0.0,0.0,0.0,0.0,0.0,0.0,0.0,0.0,0.0,0.0,0.0,0.0,0.0,0.0,0.0,0.0,0.0,0.0,0.0,0.0,0.0,0.0,0.0,0.0,0.0,0.0,0.0,0.0,0.0,0.0,0.0,0.0,0.0,0.0,0.0,0.0,0.0,0.0,0.0,0.0,0.0,0.0,0.0,0.0,0.0,0.0,0.0,0.0,0.0,0.0,0.0,0.0,0.0,0.0,0.0,0.0,0.0,0.0,0.0,0.0,0.0,0.0,0.0,0.0,0.0,0.0,0.0,0.0,0.0,0.0,0.0,0.0,0.0,0.0,0.0,0.0,0.0,0.0,0.0,0.0,0.0,0.0,0.0,0.0,0.0,0.0,0.0,0.0,0.0,0.0,0.0,0.0,0.0,0.0,0.0,0.0,0.0,0.0,0.0,0.0,0.0,0.0,0.0,0.0,0.0,0.0,0.0,0.0,0.0,0.0,0.0,0.0,0.0,0.0,0.0,0.0,0.0,0.0,0.0,0.0,0.0,0.0,0.0,0.0,0.0,0.0,0.0,0.0,0.0,0.0,0.0,0.0,0.0,0.0,0.0,0.0,0.0,0.0,0.0,0.0,0.0,0.0,0.0,0.0,0.0,0.0,0.0,0.0,0.0,0.0,0.0,0.0,0.0,0.0,0.0,0.0,0.0,0.0,0.0,0.0,0.0,0.0,0.0,0.0,0.0,0.0,0.0,0.0,0.0,0.0,0.0,0.0,0.0,0.0,0.0,0.0,0.0,0.0,0.0,0.0,0.0,0.0,0.0,0.0,0.0,0.0,0.0,0.0,0.0,0.0,0.0,0.0,0.0,0.0,0.0,0.0,0.0,0.0,0.0,0.0,0.0,0.0,0.0,0.0,0.0,0.0,0.0,0.0,0.0,0.0,0.0,0.0,0.0,0.0,0.0,0.0,0.0,0.0,0.0,0.0,0.0,0.0,0.0,0.0,0.0,0.0,0.0,0.0,0.0,0.0,0.0,0.0,0.0,0.0,0.0,0.0,0.0,0.0,0.0,0.0,0.0,0.0,0.0,0.0,0.0,0.0,0.0,0.0,0.0,0.0,0.0,0.0,0.0,0.0,0.0,0.0,0.0,0.0,0.0,0.0,0.0,0.0,0.0,0.0,0.0,0.0,0.0,0.0,0.0,0.0,0.0,0.0,0.0,0.0,0.0,0.0,0.0,0.0,0.0,0.0,0.0,0.0,0.0,0.0,0.0,0.0,0.0,0.0,0.0,0.0,0.0,0.0,0.0,0.0,0.0,0.0,0.0,0.0,0.0,0.0,0.0,0.0,0.0,0.0,0.0,0.0,0.0,0.0,0.0,0.0,0.0,0.0,0.0,0.0,0.0,0.0,0.0,0.0,0.0,0.0,0.0,0.0,0.0,0.0,0.0,0.0,0.0,0.0,0.0,0.0,0.0,0.0,0.0,0.0,0.0,0.0,0.0,0.0,0.0,0.0,0.0,0.0,0.0,0.0,0.0,0.0,0.0,0.0,0.0,0.0,0.0,0.0,0.0,0.0,0.0,0.0,0.0,0.0,0.0,0.0,0.0,0.0,0.0,0.0,0.0,0.0,0.0,0.0,0.0,0.0,0.0,0.0,0.0,0.0,0.0,0.0,0.0,0.0,0.0,0.0,0.0,0.0,0.0,0.0,0.0,0.0,0.0,0.0,0.0,0.0,0.0,0.0,0.0,0.0,0.0,0.0,0.0,0.0,0.0,0.0,0.0,0.0,0.0,0.0,0.0,0.0,0.0,0.0,0.0,0.0,0.0,0.0,0.0,0.0,0.0,0.0,0.0,0.0,0.0,0.0,0.0,0.0,0.0,0.0,0.0,0.0,0.0,0.0,0.0,0.0,0.0,0.0,0.0,0.0,0.0,0.0,0.0,0.0,0.0,0.0,0.0,0.0,0.0,0.0,0.0,0.0,0.0,0.0,0.0,0.0,0.0,0.0,0.0,0.0,0.0,0.0,0.0,0.0,0.0,0.0,0.0,0.0,0.0,0.0,0.0,0.0,0.0,0.0,0.0,0.0,0.0,0.0,0.0,0.0,0.0,0.0,0.0,0.0,0.0,0.0,0.0,0.0,0.0,0.0,0.0,0.0,0.0,0.0,0.0,0.0,0.0,0.0,0.0,0.0,0.0,0.0,0.0,0.0,0.0,0.0,0.0,0.0,0.0,0.0,0.0,0.0,0.0,0.0,0.0,0.0,0.0,0.0,0.0,0.0,0.0,0.0,0.0,0.0,0.0,0.0,0.0,0.0,0.0,0.0,0.0,0.0,0.0,0.0,0.0,0.0,0.0,0.0,0.0,0.0,0.0,0.0,0.0,0.0,0.0,0.0,0.0,0.0,0.0,0.0,0.0,0.0,0.0,0.0,0.0,0.0,0.0,0.0,0.0,0.0,0.0,0.0,0.0,0.0,0.0,0.0,0.0,0.0,0.0,0.0,0.0,0.0,0.0,0.0,0.0,0.0,0.0,0.0,0.0,0.0,0.0,0.0,0.0,0.0,0.0,0.0,0.0,0.0,0.0,0.0,0.0,0.0,0.0,0.0,0.0,0.0,0.0,0.0,0.0,0.0,0.0,0.0,0.0,0.0,0.0,0.0,0.0,0.0,0.0,0.0,0.0,0.0,0.0,0.0,0.0,0.0,0.0,0.0,0.0,0.0,0.0,0.0,0.0,0.0,0.0,0.0,0.0,0.0,0.0,0.0,0.0,0.0,0.0,0.0,0.0,0.0,0.0,0.0,0.0,0.0,0.0,0.0,0.0,0.0,0.0,0.0,0.0,0.0,0.0,0.0,0.0,0.0,0.0,0.0,0.0,0.0,0.0,0.0,0.0,0.0,0.0,0.0,0.0,0.0,0.0,0.0,0.0,0.0,0.0,0.0,0.0,0.0,0.0,0.0,0.0,0.0,0.0,0.0,0.0,0.0,0.0,0.0,-0.8188,0.0,0.0,0.0,0.0,0.0,0.0,0.0,0.0,0.0,0.0,0.0,0.0,0.0,0.0,0.0,0.0,0.0,0.0,0.0,0.0,0.0,0.0,0.0,0.0,0.0,0.0,0.0,0.0,0.0,0.0,0.0,0.0,0.0,0.0,0.0,0.0,0.0,0.0,0.0,0.0,0.0,0.0,0.0,0.0,0.0,0.0,0.0,0.0,0.0,0.0,0.0,0.0,0.0,0.0,0.0,0.0,0.0,0.0,0.0,0.0,0.0,0.0,0.0,0.0,0.0,0.0,0.0,0.0,0.0,0.0,0.0,0.0,0.0,0.0,0.0,0.0,0.0,0.0,0.0,0.0,0.0,0.0,0.0,0.0,0.0,0.0,0.0,0.0,0.0,0.0,0.0,0.0,0.0,0.0,0.0,0.0,0.0,0.0,0.0,0.0,0.0,0.0,0.0,0.0,0.0,0.0,0.0,0.0,0.0,0.0,0.4547,0.0907,-0.5523,-0.8785,-0.8396,0.0,0.0,0.0,0.0,0.0,0.0,0.0,0.0,0.0,0.0,0.0,0.0,0.0,0.0,0.0,0.0,0.0,0.0,0.0,0.0,0.0,0.0,0.0,0.0,0.0,0.0,0.0,0.0,0.0,0.0,0.0,0.0,0.0,0.0,0.0,0.0,0.0,0.0,0.0,0.0,0.0,0.0,0.0,0.0,0.0,0.0,0.0,0.0,0.0,0.0,0.0,0.0,0.0,0.0,0.0,0.0,0.0,0.0,0.0,0.0,0.0,0.0,0.0,0.0,0.0,0.0,0.0,0.0,0.0,0.0,0.0,0.0,0.0,0.0,0.0,0.0,0.0,0.0,0.0,0.0,0.0,0.0,0.0,0.0,0.0,0.0,0.0,0.0,0.0,0.0,0.0,0.0,0.0,0.0,0.0,0.0,0.0,0.0,0.0,0.0,0.0,0.0,0.0,0.0,0.0,0.0,0.0,0.0,0.0,0.0,0.0,0.0,-0.5392,-0.9347,-0.8651,0.0,0.0,0.0,0.0,0.0,0.0,0.0,0.0,0.0,0.0,0.0,0.0,0.0,0.0,0.0,0.0,0.0,0.0,0.0,0.0,0.0,0.0,0.0,0.0,0.0,0.0,0.0,0.0,0.0,0.0,0.0,0.0,0.0,0.0,0.0,0.0,0.0,0.0,0.0,0.0,0.0,0.0,0.0,0.0,0.0,0.0,0.0,0.0,0.0,0.0,0.0,0.0,0.0,0.0,0.0,0.0,0.0,0.0,0.0,0.0,0.0,0.0,0.0,0.0,0.0,0.0,0.0,0.0,0.0,0.0,0.0,0.0,0.0,0.0,0.0,0.0,0.0,0.0,0.0,0.0,0.0,0.0,0.0,0.0,0.0,0.0,0.0,0.0,0.0,0.0,0.0,0.0,0.0,0.0,0.0,0.0,0.0,0.0,0.0,0.0,0.0,0.0,0.0,0.0,0.0,0.0,0.0,0.0,0.0,0.0,0.9005,0.6094,-0.301,0.0,-0.966,0.0,0.0,0.0,0.0,0.0,0.0,0.0,0.0,0.0,0.0,0.0,0.0,0.0,0.0,0.0,0.0,0.0,0.0,0.0,0.0,0.0,0.0,0.0,0.0,0.0,0.0,0.0,0.0,0.0,0.0,0.0,0.0,0.0,0.0,0.0,0.0,0.0,0.0,0.0,0.0,0.0,0.0,0.0,0.0,0.0,0.0,0.0,0.0,0.0,0.0,0.0,0.0,0.0,0.0,0.0,0.0,0.0,0.0,0.0,0.0,0.0,0.0,0.0,0.0,0.0,0.0,0.0,0.0,0.0,0.0,0.0,0.0,0.0,0.0,0.0,0.0,0.0,0.0,0.0,0.0,0.0,0.0,0.0,0.0,0.0,0.0,0.0,0.0,0.0,0.0,0.0,0.0,0.0,0.0,0.0,0.0,0.0,0.0,0.0,0.0,0.0,0.0,0.0,0.0,0.0,0.0,0.0,0.0,0.0,0.0,1.1883,0.7377,-0.14,-0.7719,0.0,0.0,0.0,0.0,0.0,0.0,0.0,0.0,0.0,0.0,0.0,0.0,0.0,0.0,0.0,0.0,0.0,0.0,0.0,0.0,0.0,0.0,0.0,0.0,0.0,0.0,0.0,0.0,0.0,0.0,0.0,0.0,0.0,0.0,0.0,0.0,0.0,0.0,0.0,0.0,0.0,0.0,0.0,0.0,0.0,0.0,0.0,0.0,0.0,0.0,0.0,0.0,0.0,0.0,0.0,0.0,0.0,0.0,0.0,0.0,0.0,0.0,0.0,0.0,0.0,0.0,0.0,0.0,0.0,0.0,0.0,0.0,0.0,0.0,0.0,0.0,0.0,0.0,0.0,0.0,0.0,0.0,0.0,0.0,0.0,0.0,0.0,0.0,0.0,0.0,0.0,0.0,0.0,0.0,0.0,0.0,0.0,0.0,0.0,0.0,0.0,0.0,0.0,0.0,0.0,0.0,0.0,0.0,0.0,0.0,1.272,0.9974,0.2898,-0.4701,-1.0089,-1.2869,0.0,0.0,0.0,0.0,0.0,0.0,0.0,0.0,0.0,0.0,0.0,0.0,0.0,0.0,0.0,0.0,0.0,0.0,0.0,0.0,0.0,0.0,0.0,0.0,0.0,0.0,0.0,0.0,0.0,0.0,0.0,0.0,0.0,0.0,0.0,0.0,0.0,0.0,0.0,0.0,0.0,0.0,0.0,0.0,0.0,0.0,0.0,0.0,0.0,0.0,0.0,0.0,0.0,0.0,0.0,0.0,0.0,0.0,0.0,0.0,0.0,0.0,0.0,0.0,0.0,0.0,0.0,0.0,0.0,0.0,0.0,0.0,0.0,0.0,0.0,0.0,0.0,0.0,0.0,0.0,0.0,0.0,0.0,0.0,0.0,0.0,0.0,0.0,0.0,0.0,0.0,0.0,0.0,0.0,0.0,0.0,0.0,0.0,0.0,0.0,0.0,0.0,0.0,0.0,0.0,0.0,0.0,0.0,1.2441,0.7978,0.0739,-0.9112,-1.4998,-1.693,0.0,0.0,0.0,0.0,0.0,0.0,0.0,0.0,0.0,0.0,0.0,0.0,0.0,0.0,0.0,0.0,0.0,0.0,0.0,0.0,0.0,0.0,0.0,0.0,0.0,0.0,0.0,0.0,0.0,0.0,0.0,0.0,0.0,0.0,0.0,0.0,0.0,0.0,0.0,0.0,0.0,0.0,0.0,0.0,0.0,0.0,0.0,0.0,0.0,0.0,0.0,0.0,0.0,0.0,0.0,0.0,0.0,0.0,0.0,0.0,0.0,0.0,0.0,0.0,0.0,0.0,0.0,0.0,0.0,0.0,0.0,0.0,0.0,0.0,0.0,0.0,0.0,0.0,0.0,0.0,0.0,0.0,0.0,0.0,0.0,0.0,0.0,0.0,0.0,0.0,0.0,0.0,0.0,0.0,0.0,0.0,0.0,0.0,0.0,0.0,0.0,0.0,0.0,0.0,0.0,0.0,0.0,0.0,0.0,1.2038,0.1773,-0.8193,-1.6922,-1.6497,-1.5516,0.0,0.0,0.0,0.0,0.0,0.0,0.0,0.0,0.0,0.0,0.0,0.0,0.0,0.0,0.0,0.0,0.0,0.0,0.0,0.0,0.0,0.0,0.0,0.0,0.0,0.0,0.0,0.0,0.0,0.0,0.0,0.0,0.0,0.0,0.0,0.0,0.0,0.0,0.0,0.0,0.0,0.0,0.0,0.0,0.0,0.0,0.0,0.0,0.0,0.0,0.0,0.0,0.0,0.0,0.0,0.0,0.0,0.0,0.0,0.0,0.0,0.0,0.0,0.0,0.0,0.0,0.0,0.0,0.0,0.0,0.0,0.0,0.0,0.0,0.0,0.0,0.0,0.0,0.0,0.0,0.0,0.0,0.0,0.0,0.0,0.0,0.0,0.0,0.0,0.0,0.0,0.0,0.0,0.0,0.0,0.0,0.0,0.0,0.0,0.0,0.0,0.0,0.0,0.0,0.0,0.0,0.0,0.0,0.0,0.8168,0.0,-1.1438,-1.8276,-1.6652,-1.5367,0.0,0.0,0.0,0.0,0.0,0.0,0.0,0.0,0.0,0.0,0.0,0.0,0.0,0.0,0.0,0.0,0.0,0.0,0.0,0.0,0.0,0.0,0.0,0.0,0.0,0.0,0.0,0.0,0.0,0.0,0.0,0.0,0.0,0.0,0.0,0.0,0.0,0.0,0.0,0.0,0.0,0.0,0.0,0.0,0.0,0.0,0.0,0.0,0.0,0.0,0.0,0.0,0.0,0.0,0.0,0.0,0.0,0.0,0.0,0.0,0.0,0.0,0.0,0.0,0.0,0.0,0.0,0.0,0.0,0.0,0.0,0.0,0.0,0.0,0.0,0.0,0.0,0.0,0.0,0.0,0.0,0.0,0.0,0.0,0.0,0.0,0.0,0.0,0.0,0.0,0.0,0.0,0.0,0.0,0.0,0.0,0.0,0.0,0.0,0.0,0.0,0.0,0.0,0.0,0.0,0.0,0.0,0.0,0.4964,0.0449,-0.3939,-0.872,-1.3139,-1.6121,-1.7066,0.0,0.0,0.0,0.0,0.0,0.0,0.0,0.0,0.0,0.0,0.0,0.0,0.0,0.0,0.0,0.0,0.0,0.0,0.0,0.0,0.0,0.0,0.0,0.0,0.0,0.0,0.0,0.0,0.0,0.0,0.0,0.0,0.0,0.0,0.0,0.0,0.0,0.0,0.0,0.0,0.0,0.0,0.0,0.0,0.0,0.0,0.0,0.0,0.0,0.0,0.0,0.0,0.0,0.0,0.0,0.0,0.0,0.0,0.0,0.0,0.0,0.0,0.0,0.0,0.0,0.0,0.0,0.0,0.0,0.0,0.0,0.0,0.0,0.0,0.0,0.0,0.0,0.0,0.0,0.0,0.0,0.0,0.0,0.0,0.0,0.0,0.0,0.0,0.0,0.0,0.0,0.0,0.0,0.0,0.0,0.0,0.0,0.0,0.0,0.0,0.0,0.0,0.0,0.0,0.0,0.0,0.0,0.0,0.0,-0.2282,-0.648,-1.0302,-1.3494,-1.5231,-1.606,0.0,0.0,0.0,0.0,0.0,0.0,0.0,0.0,0.0,0.0,0.0,0.0,0.0,0.0,0.0,0.0,0.0,0.0,0.0,0.0,0.0,0.0,0.0,0.0,0.0,0.0,0.0,0.0,0.0,0.0,0.0,0.0,0.0,0.0,0.0,0.0,0.0,0.0,0.0,0.0,0.0,0.0,0.0,0.0,0.0,0.0,0.0,0.0,0.0,0.0,0.0,0.0,0.0,0.0,0.0,0.0,0.0,0.0,0.0,0.0,0.0,0.0,0.0,0.0,0.0,0.0,0.0,0.0,0.0,0.0,0.0,0.0,0.0,0.0,0.0,0.0,0.0,0.0,0.0,0.0,0.0,0.0,0.0,0.0,0.0,0.0,0.0,0.0,0.0,0.0,0.0,0.0,0.0,0.0,0.0,0.0,0.0,0.0,0.0,0.0,0.0,0.0,0.0,0.0,0.0,0.0,0.0,0.0,0.0,-0.8164,-1.0277,-1.2979,-1.6026,-1.6104,-1.6046,-1.5925,0.0,0.0,0.0,0.0,0.0,0.0,0.0,0.0,0.0,0.0,0.0,0.0,0.0,0.0,0.0,0.0,0.0,0.0,0.0,0.0,0.0,0.0,0.0,0.0,0.0,0.0,0.0,0.0,0.0,0.0,0.0,0.0,0.0,0.0,0.0,0.0,0.0,0.0,0.0,0.0,0.0,0.0,0.0,0.0,0.0,0.0,0.0,0.0,0.0,0.0,0.0,0.0,0.0,0.0,0.0,0.0,0.0,0.0,0.0,0.0,0.0,0.0,0.0,0.0,0.0,0.0,0.0,0.0,0.0,0.0,0.0,0.0,0.0,0.0,0.0,0.0,0.0,0.0,0.0,0.0,0.0,0.0,0.0,0.0,0.0,0.0,0.0,0.0,0.0,0.0,0.0,0.0,0.0,0.0,0.0,0.0,0.0,0.0,0.0,0.0,0.0,0.0,0.0,0.0,0.0,0.0,0.0,0.0,-1.6115,-1.5175,-1.6384,-1.9731,-1.8218,-1.6928,0.0,0.0,0.0,0.0,0.0,0.0,0.0,0.0,0.0,0.0,0.0,0.0,0.0,0.0,0.0,0.0,0.0,0.0,0.0,0.0,0.0,0.0,0.0,0.0,0.0,0.0,0.0,0.0,0.0,0.0,0.0,0.0,0.0,0.0,0.0,0.0,0.0,0.0,0.0,0.0,0.0,0.0,0.0,0.0,0.0,0.0,0.0,0.0,0.0,0.0,0.0,0.0,0.0,0.0,0.0,0.0,0.0,0.0,0.0,0.0,0.0,0.0,0.0,0.0,0.0,0.0,0.0,0.0,0.0,0.0,0.0,0.0,0.0,0.0,0.0,0.0,0.0,0.0,0.0,0.0,0.0,0.0,0.0,0.0,0.0,0.0,0.0,0.0,0.0,0.0,0.0,0.0,0.0,0.0,0.0,0.0,0.0,0.0,0.0,0.0,0.0,0.0,0.0,0.0,0.0,0.0,0.0,0.0,0.0,-1.7855,-1.9585,-2.0633,-2.074,-1.8801,-1.7707,0.0,0.0,0.0,0.0,0.0,0.0,0.0,0.0,0.0,0.0,0.0,0.0,0.0,0.0,0.0,0.0,0.0,0.0,0.0,0.0,0.0,0.0,0.0,0.0,0.0,0.0,0.0,0.0,0.0,0.0,0.0,0.0,0.0,0.0,0.0,0.0,0.0,0.0,0.0,0.0,0.0,0.0,0.0,0.0,0.0,0.0,0.0,0.0,0.0,0.0,0.0,0.0,0.0,0.0,0.0,0.0,0.0,0.0,0.0,0.0,0.0,0.0,0.0,0.0,0.0,0.0,0.0,0.0,0.0,0.0,0.0,0.0,0.0,0.0,0.0,0.0,0.0,0.0,0.0,0.0,0.0,0.0,0.0,0.0,0.0,0.0,0.0,0.0,0.0,0.0,0.0,0.0,0.0,0.0,0.0,0.0,0.0,0.0,0.0,0.0,0.0,0.0,0.0,0.0,0.0,0.0,0.0,0.0,-1.4957,-1.7718,-2.1262,-2.3278,-2.3716,-2.1054,-1.9218,0.0,0.0,0.0,0.0,0.0,0.0,0.0,0.0,0.0,0.0,0.0,0.0,0.0,0.0,0.0,0.0,0.0,0.0,0.0,0.0,0.0,0.0,0.0,0.0,0.0,0.0,0.0,0.0,0.0,0.0,0.0,0.0,0.0,0.0,0.0,0.0,0.0,0.0,0.0,0.0,0.0,0.0,0.0,0.0,0.0,0.0,0.0,0.0,0.0,0.0,0.0,0.0,0.0,0.0,0.0,0.0,0.0,0.0,0.0,0.0,0.0,0.0,0.0,0.0,0.0,0.0,0.0,0.0,0.0,0.0,0.0,0.0,0.0,0.0,0.0,0.0,0.0,0.0,0.0,0.0,0.0,0.0,0.0,0.0,0.0,0.0,0.0,0.0,0.0,0.0,0.0,0.0,0.0,0.0,0.0,0.0,0.0,0.0,0.0,0.0,0.0,0.0,0.0,0.0,0.0,0.0,0.0,0.0,-1.1209,-1.5877,-2.0921,-2.4638,-2.6956,-2.391,-2.1126,0.0,0.0,0.0,0.0,0.0,0.0,0.0,0.0,0.0,0.0,0.0,0.0,0.0,0.0,0.0,0.0,0.0,0.0,0.0,0.0,0.0,0.0,0.0,0.0,0.0,0.0,0.0,0.0,0.0,0.0,0.0,0.0,0.0,0.0,0.0,0.0,0.0,0.0,0.0,0.0,0.0,0.0,0.0,0.0,0.0,0.0,0.0,0.0,0.0,0.0,0.0,0.0,0.0,0.0,0.0,0.0,0.0,0.0,0.0,0.0,0.0,0.0,0.0,0.0,0.0,0.0,0.0,0.0,0.0,0.0,0.0,0.0,0.0,0.0,0.0,0.0,0.0,0.0,0.0,0.0,0.0,0.0,0.0,0.0,0.0,0.0,0.0,0.0,0.0,0.0,0.0,0.0,0.0,0.0,0.0,0.0,0.0,0.0,0.0,0.0,0.0,0.0,0.0,0.0,0.0,0.0,0.0,0.0,-0.8866,-1.0731,-1.8983,-2.4137,-2.5785,-2.3998,-2.247,0.0,0.0,0.0,0.0,0.0,0.0,0.0,0.0,0.0,0.0,0.0,0.0,0.0,0.0,0.0,0.0,0.0,0.0,0.0,0.0,0.0,0.0,0.0,0.0,0.0,0.0,0.0,0.0,0.0,0.0,0.0,0.0,0.0,0.0,0.0,0.0,0.0,0.0,0.0,0.0,0.0,0.0,0.0,0.0,0.0,0.0,0.0,0.0,-0.6363,0.0,0.0,0.0,0.0,0.0,0.0,0.0,0.0,0.0,0.0,0.0,0.0,0.0,0.0,0.0,0.0,0.0,0.0,0.0,0.0,0.0,0.0,0.0,0.0,0.0,0.0,0.0,0.0,0.0,0.0,0.0,0.0,0.0,0.0,0.0,0.0,0.0,0.0,0.0,0.0,0.0,0.0,0.0,0.0,0.0,0.0,0.0,0.0,0.0,0.0,0.0,0.0,0.0,0.0,0.0,0.0,0.0,0.0,0.0,-0.1382,-0.7509,-1.7372,-2.3146,-2.4404,-2.4327,-2.353,0.0,0.0,0.0,0.0,0.0,0.0,0.0,0.0,0.0,0.0,0.0,0.0,0.0,0.0,0.0,0.0,0.0,0.0,0.0,0.0,0.0,0.0,0.0,0.0,0.0,0.0,0.0,0.0,0.0,0.0,0.0,0.0,0.0,0.0,0.0,0.0,0.0,0.0,0.0,0.0,0.0,0.0,0.0,0.0,0.0,0.0,0.0,0.0,0.0,0.0,0.0,0.0,0.0,0.0,0.0,0.0,0.0,0.0,0.0,0.0,0.0,0.0,0.0,0.0,0.0,0.0,0.0,0.0,0.0,0.0,0.0,0.0,0.0,0.0,0.0,0.0,0.0,0.0,0.0,0.0,0.0,0.0,0.0,0.0,0.0,0.0,0.0,0.0,0.0,0.0,0.0,0.0,0.0,0.0,0.0,0.0,0.0,0.0,0.0,0.0,0.0,0.0,0.0,0.0,0.0,0.0,0.0,1.159,0.6196,-0.5067,-1.5283,-2.1352,-2.2922,-2.4311,-2.3931,-2.1645,0.0,0.0,0.0,0.0,0.0,0.0,0.0,0.0,0.0,0.0,0.0,0.0,0.0,0.0,0.0,0.0,0.0,0.0,0.0,0.0,0.0,0.0,0.0,0.0,0.0,0.0,0.0,0.0,0.0,0.0,0.0,0.0,0.0,0.0,0.0,0.0,0.0,0.0,-1.2422,-0.8909,0.0,0.0,0.0,0.0,0.0,0.0,0.0,0.0,-0.7372,0.0,0.0,0.0,0.0,0.0,0.0,0.0,0.0,0.0,0.0,0.0,0.0,0.0,0.0,0.0,0.0,0.0,0.0,0.0,0.0,0.0,0.0,0.0,0.0,0.0,0.0,0.0,0.0,0.0,0.0,0.0,0.0,0.0,0.0,0.0,0.0,0.0,0.0,0.0,0.0,0.0,0.0,0.0,0.0,0.0,0.0,0.0,0.0,0.0,0.0,0.0,0.0,0.0,0.0,0.0,0.0,1.3509,1.1616,0.623,-0.2701,-1.1226,-1.732,-2.0746,-2.2824,-2.2546,-1.9831,0.0,0.0,0.0,0.0,0.0,0.0,0.0,0.0,0.0,0.0,0.0,0.0,0.0,0.0,0.0,0.0,0.0,0.0,0.0,0.0,0.0,0.0,0.0,0.0,0.0,0.0,0.0,0.0,0.0,0.0,0.0,0.0,0.0,0.0,0.0,0.0,0.0,0.0,0.0,-0.925,-0.7891,0.0,0.0,0.0,0.0,0.0,0.0,0.0,0.0,-0.867,0.0,0.0,0.0,0.0,0.0,0.0,0.0,0.0,0.0,0.0,0.0,0.0,0.0,0.0,0.0,0.0,0.0,0.0,0.0,0.0,0.0,0.0,0.0,0.0,0.0,0.0,0.0,0.0,0.0,0.0,0.0,0.0,0.0,0.0,0.0,0.0,0.0,0.0,0.0,0.0,0.0,0.0,0.0,0.0,0.0,0.0,0.0,0.0,0.0,0.0,0.0,0.0,0.0,0.0,0.0,1.2635,1.0668,0.587,-0.1642,-0.9609,-1.5156,-1.8163,-2.0254,-1.9977,0.0,0.0,0.0,0.0,0.0,0.0,0.0,0.0,0.0,0.0,0.0,0.0,0.0,0.0,0.0,0.0,0.0,0.0,0.0,0.0,0.0,0.0,0.0,0.0,0.0,0.0,0.0,0.0,0.0,0.0,0.0,0.0,0.0,0.0,0.0,0.0,0.0,0.0,0.0,0.0,-0.9172,-0.7722,-0.6806,0.0,0.0,0.0,0.0,0.0,0.0,-0.5556,-0.9135,0.0,0.0,0.0,0.0,0.0,0.0,0.0,0.0,0.0,0.0,0.0,0.0,0.0,0.0,0.0,0.0,0.0,0.0,0.0,0.0,0.0,0.0,0.0,0.0,0.0,0.0,0.0,0.0,0.0,0.0,0.0,0.0,0.0,0.0,0.0,0.0,0.0,0.0,0.0,0.0,0.0,0.0,0.0,0.0,0.0,0.0,0.0,0.0,0.0,0.0,0.0,0.0,0.0,0.0,0.0,1.0556,0.8555,0.4659,-0.1302,-0.8408,-1.3193,-1.5288,-1.7299,-1.7155,0.0,0.0,0.0,0.0,0.0,0.0,0.0,0.0,0.0,0.0,0.0,0.0,0.0,0.0,0.0,0.0,0.0,0.0,0.0,0.0,0.0,0.0,0.0,0.0,0.0,0.0,0.0,0.0,0.0,0.0,0.0,0.0,0.0,0.0,0.0,0.0,0.0,0.0,0.0,0.0,0.0,-0.7793,-0.6389,-0.5821,0.0,0.0,0.0,0.0,-0.364,-0.6639,0.0,0.0,0.0,0.0,0.0,0.0,0.0,0.0,0.0,0.0,0.0,0.0,0.0,0.0,0.0,0.0,0.0,0.0,0.0,0.0,0.0,0.0,0.0,0.0,0.0,0.0,0.0,0.0,0.0,0.0,0.0,0.0,0.0,0.0,0.0,0.0,0.0,0.0,0.0,0.0,0.0,0.0,0.0,0.0,0.0,0.0,0.0,0.0,0.0,0.0,0.0,0.0,0.0,0.0,0.0,0.0,0.7371,0.4688,0.1777,-0.135,-0.658,-1.0241,-1.2109,-1.4355,-1.4573,0.0,0.0,0.0,0.0,0.0,0.0,0.0,0.0,0.0,0.0,0.0,0.0,0.0,0.0,0.0,0.0,0.0,0.0,0.0,0.0,0.0,0.0,0.0,0.0,0.0,0.0,0.0,0.0,0.0,0.0,0.0,0.0,0.0,0.0,0.0,0.0,0.0,0.0,0.0,0.0,0.0,-0.9003,-0.766,-0.6758,-0.5806,0.0,0.0,-0.4443,-0.5716,-0.6709,0.0,0.0,0.0,0.0,0.0,0.0,0.0,0.0,0.0,0.0,0.0,0.0,0.0,0.0,0.0,0.0,0.0,0.0,0.0,0.0,0.0,0.0,0.0,0.0,0.0,0.0,0.0,0.0,0.0,0.0,0.0,0.0,0.0,0.0,0.0,0.0,0.0,0.0,0.0,0.0,0.0,0.0,0.0,0.0,0.0,0.0,0.0,0.0,0.0,0.0,0.0,0.0,0.0,0.0,0.0,0.6404,0.512,0.2956,0.0315,-0.2733,-0.6353,-0.94,-1.169,-1.2315,-1.2244,0.0,0.0,0.0,0.0,0.0,0.0,0.0,0.0,0.0,0.0,0.0,0.0,0.0,0.0,0.0,0.0,0.0,0.0,0.0,0.0,0.0,0.0,0.0,0.0,0.0,0.0,0.0,0.0,0.0,0.0,0.0,0.0,0.0,0.0,0.0,0.0,0.0,0.0,0.0,0.0,0.0,0.0,-0.709,-0.7617,0.0,0.0,0.0,-0.5723,-0.6237,0.0,0.0,0.0,0.0,0.0,0.0,0.0,0.0,0.0,0.0,0.0,0.0,0.0,0.0,0.0,0.0,0.0,0.0,0.0,0.0,0.0,0.0,0.0,0.0,0.0,0.0,0.0,0.0,0.0,0.0,0.0,0.0,0.0,0.0,0.0,0.0,0.0,0.0,0.0,0.0,0.0,0.0,0.0,0.0,0.0,0.0,0.0,0.0,0.0,0.0,0.0,0.0,0.0,0.0,0.0,0.0,0.0,0.2703,0.1327,-0.0923,-0.4134,-0.6625,-0.888,-1.0939,-1.0793,0.0,0.0,0.0,0.0,0.0,0.0,0.0,0.0,0.0,0.0,0.0,0.0,0.0,0.0,0.0,0.0,0.0,0.0,0.0,0.0,0.0,0.0,0.0,0.0,0.0,0.0,0.0,-0.9497,0.0,0.0,0.0,0.0,0.0,0.0,0.0,0.0,0.0,0.0,0.0,0.0,0.0,0.0,-0.957,-0.7683,-0.8799,-0.8908,0.0,0.0,-0.6473,-0.6311,-0.8016,-0.9983,0.0,0.0,0.0,0.0,0.0,0.0,0.0,0.0,0.0,0.0,0.0,0.0,0.0,0.0,0.0,0.0,0.0,0.0,0.0,0.0,0.0,0.0,0.0,0.0,0.0,0.0,0.0,0.0,0.0,0.0,0.0,0.0,0.0,0.0,0.0,0.0,0.0,0.0,0.0,0.0,0.0,0.0,0.0,0.0,0.0,0.0,0.0,0.0,0.0,0.0,0.0,0.0,0.0,0.0,0.0,-0.0353,-0.0853,-0.2457,-0.5117,-0.7028,-0.8297,-0.9003,-0.9733,-0.9577,0.0,0.0,0.0,0.0,0.0,0.0,0.0,0.0,0.0,0.0,0.0,0.0,0.0,0.0,0.0,0.0,0.0,0.0,0.0,0.0,0.0,0.0,0.0,0.0,0.0,0.0,0.0,0.0,0.0,0.0,0.0,0.0,0.0,0.0,0.0,0.0,0.0,0.0,0.0,0.0,0.0,-1.1601,-1.0875,-1.0785,-1.0199,0.0,0.0,-0.6431,-0.6301,-0.7952,-0.9863,-1.1488,0.0,0.0,0.0,0.0,0.0,0.0,0.0,0.0,0.0,0.0,0.0,0.0,0.0,0.0,0.0,0.0,0.0,0.0,0.0,0.0,0.0,0.0,0.0,0.0,0.0,0.0,0.0,0.0,0.0,0.0,0.0,0.0,0.0,0.0,0.0,0.0,0.0,0.0,0.0,0.0,0.0,0.0,0.0,0.0,0.0,0.0,0.0,0.0,0.0,0.0,0.0,0.0,0.0,-0.0339,-0.0975,-0.2199,-0.389,-0.5878,-0.7107,-0.8272,-0.9547,-0.9415,-0.8954,0.0,0.0,0.0,0.0,0.0,0.0,0.0,0.0,0.0,0.0,0.0,0.0,0.0,0.0,0.0,0.0,0.0,0.0,0.0,0.0,0.0,0.0,0.0,0.0,0.0,0.0,0.0,0.0,-1.1468,-1.3311,-1.5246,0.0,0.0,0.0,0.0,0.0,0.0,0.0,0.0,0.0,0.0,-1.2001,-1.2813,-1.2725,0.0,0.0,-0.8306,-0.6822,-0.5907,-0.8981,-1.1668,-1.2174,-1.3543,0.0,0.0,0.0,0.0,0.0,0.0,0.0,0.0,0.0,0.0,0.0,0.0,0.0,0.0,0.0,0.0,0.0,0.0,0.0,0.0,0.0,0.0,0.0,0.0,0.0,0.0,0.0,0.0,0.0,0.0,0.0,0.0,0.0,0.0,0.0,0.0,0.0,0.0,0.0,0.0,0.0,0.0,0.0,0.0,0.0,0.0,0.0,0.0,0.0,0.0,0.0,0.0,-0.1767,-0.1742,-0.3312,-0.4908,-0.6639,-0.7389,-0.8414,-0.9781,-0.9259,-0.8626,0.0,0.0,0.0,0.0,0.0,0.0,0.0,0.0,0.0,0.0,0.0,0.0,0.0,0.0,0.0,0.0,0.0,0.0,0.0,0.0,0.0,0.0,0.0,0.0,0.0,0.0,0.0,0.0,-1.2233,-1.4253,-1.6458,0.0,0.0,0.0,0.0,0.0,0.0,0.0,0.0,0.0,0.0,-1.2805,-1.4012,-1.3967,-1.3206,-1.1496,-0.9658,-0.7797,-0.5948,-0.9349,-1.2615,-1.3598,0.0,0.0,0.0,0.0,0.0,0.0,0.0,0.0,0.0,0.0,0.0,0.0,0.0,0.0,0.0,0.0,0.0,0.0,0.0,0.0,0.0,0.0,0.0,0.0,0.0,0.0,0.0,0.0,0.0,0.0,0.1876,0.0,0.0,0.0,0.0,0.0,0.0,0.0,0.0,0.0,0.0,0.0,0.0,0.0,0.0,0.0,0.0,0.0,0.0,0.0,0.0,0.0,0.0,-0.2271,-0.3216,-0.4185,-0.5543,-0.7235,-0.801,-0.8601,-0.9216,-0.9176,-0.8758,-0.7943,0.0,0.0,0.0,0.0,0.0,0.0,0.0,0.0,0.0,0.0,0.0,0.0,0.0,0.0,0.0,0.0,0.0,0.0,0.0,0.0,0.0,0.0,0.0,0.0,0.0,0.0,-0.9229,-1.1593,-1.4026,0.0,0.0,0.0,0.0,0.0,0.0,0.0,0.0,0.0,0.0,-1.2401,-1.4226,-1.4381,-1.4401,-1.3888,-1.2684,-1.1397,-0.9577,-0.6768,-0.8891,-1.2104,0.0,0.0,0.0,0.0,0.0,0.0,0.0,0.0,0.0,0.0,0.0,0.0,0.0,0.0,0.0,0.0,0.0,0.0,0.0,0.0,0.0,0.0,0.0,0.0,0.0,0.0,0.0,0.243,0.2558,0.0,0.0,0.0,0.0,0.0,0.0,0.0,0.0,0.0,0.0,0.0,-0.1902,-0.2941,0.0,0.0,0.0,0.0,0.0,0.0,0.0,0.0,0.0,0.0,0.0,0.0,-0.3147,-0.3263,-0.4663,-0.5972,-0.7135,-0.776,-0.8329,-0.8911,-0.8951,-0.8631,-0.7908,0.0,0.0,0.0,0.0,0.0,0.0,0.0,0.0,0.0,0.0,0.0,0.0,0.0,0.0,0.0,0.0,0.0,0.0,0.0,0.0,0.0,0.0,0.0,0.0,0.0,-1.1337,0.0,0.0,0.0,0.0,0.0,0.0,0.0,0.0,0.0,0.0,0.0,-0.971,-1.1659,-1.2437,-1.3293,-1.4459,-1.464,-1.4464,0.0,0.0,0.0,0.0,0.0,0.0,0.0,0.0,0.0,0.0,0.0,0.0,0.0,0.0,-2.5046,-2.2311,-2.3745,-2.5178,-2.4392,0.0,0.0,0.0,0.0,0.0,0.0,0.0,0.0,0.0,0.0,0.0,0.0,0.0,0.0,0.2836,0.0,0.1636,0.0,0.0,0.0,0.0,0.0,0.0,0.0,0.0,0.0,-0.0885,-0.2078,-0.3143,-0.4185,0.0,-0.5724,-0.5698,0.0,0.0,0.0,0.0,0.0,0.0,0.0,0.0,-0.37,-0.3569,-0.5185,-0.6314,-0.6798,-0.7612,-0.8196,-0.8466,-0.8339,-0.8216,-0.8096,-0.7315,-0.693,0.0,0.0,0.0,0.0,0.0,0.0,0.0,0.0,0.0,0.0,0.0,0.0,0.0,0.0,0.0,0.0,0.0,0.0,0.0,0.0,0.0,0.0,0.0,-1.205,0.0,0.0,0.0,0.0,0.0,0.0,0.0,0.0,0.0,-0.8435,-0.9426,-1.0849,-1.2753,-1.3118,-1.3629,-1.4755,0.0,0.0,0.0,0.0,0.0,0.0,0.0,-0.9975,-1.341,-1.4068,-1.5419,-1.9381,-2.2033,-2.359,-2.3519,0.0,0.0,-2.4397,-2.551,-2.6872,-2.6605,-2.7502,-2.7825,-2.6352,-2.659,-2.7026,0.0,0.0,0.0,0.0,0.0,0.0,0.0,0.0,0.409,0.4035,0.0,0.232,0.0,0.0,0.0,0.0,0.0,0.0967,0.0,0.0,-0.0073,-0.1038,-0.2762,-0.2689,-0.3582,-0.5359,-0.5767,-0.5875,-0.5636,-0.5402,0.0,0.0,0.0,0.0,0.0,0.0,-0.3944,-0.4285,-0.5779,-0.6483,-0.6309,-0.7652,-0.8243,-0.7928,-0.7511,-0.7646,-0.832,-0.7395,-0.7208,-0.8024,-0.7546,0.0,0.0,0.0,0.0,0.0,0.0,0.0,0.0,0.0,0.0,0.0,0.0,0.0,0.0,0.0,0.0,0.0,0.0,0.0,0.0,-1.0928,0.0,0.0,0.0,0.0,0.0,0.0,0.0,0.0,0.0,0.0,-0.8751,-1.0869,-1.2687,-1.2923,0.0,0.0,0.0,0.0,-1.5823,-1.4157,-1.4751,-1.4812,-1.3243,-1.0759,-1.0657,-1.5502,0.0,0.0,-2.2484,-2.3865,-2.4388,-2.4264,-2.6965,-2.86,-2.714,-2.7247,-2.7924,-2.8908,-2.8912,-2.8464,-2.7887,-2.7913,-2.8337,-0.066,0.0,0.0,0.0,0.0,0.2225,0.324,0.4114,0.4189,0.4298,0.4394,0.3179,0.0,0.0,0.0,0.0,0.0,0.0,0.0197,-0.0067,-0.0776,-0.1426,-0.202,-0.3337,-0.4212,-0.4745,-0.541,-0.5962,-0.6485,-0.5743,-0.5289,-0.518,0.0,0.0,0.0,0.0,-0.4296,-0.502,-0.6047,-0.6696,-0.6979,-0.7911,-0.8387,-0.825,-0.7407,-0.7473,-0.8612,-0.7905,-0.7591,-0.7963,-0.8077,0.0,0.0,0.0,0.0,0.0,0.0,0.0,0.0,0.0,0.0,0.0,0.0,0.0,0.0,0.0,0.0,0.0,0.0,0.0,-1.1542,-1.2605,-1.3496,0.0,0.0,0.0,0.0,0.0,0.0,0.0,0.0,0.0,-1.1716,-1.2212,-1.2622,0.0,0.0,-1.3659,-1.4094,-1.5412,-1.6214,-1.5994,-1.5574,0.0,0.0,-1.3561,-1.3198,-1.4906,-1.8042,-2.1259,-2.3992,-2.5951,-2.7428,-2.8102,-2.9536,-3.0412,-3.0053,-3.0014,-3.0179,-3.0557,-3.0817,-3.0834,-3.033,-3.0217,-3.0323,-0.0244,-0.0603,-0.0218,0.0497,0.141,0.2393,0.3456,0.4412,0.4861,0.5058,0.5105,0.4128,0.3134,0.1975,0.1282,0.0,0.0,0.0,0.0,-0.007,-0.0637,-0.1127,-0.1526,-0.2685,-0.3407,-0.379,-0.4565,-0.5213,-0.5738,-0.5467,-0.5118,-0.4835,0.0,0.0,-0.4113,-0.4094,-0.4488,-0.5381,-0.6196,-0.6802,-0.7296,-0.7788,-0.8125,-0.819,-0.7309,-0.7431,-0.8725,-0.8103,-0.7896,-0.824,-0.84,-0.8339,0.0,0.0,0.0,0.0,0.0,0.0,0.0,0.0,0.0,0.0,0.0,-1.2746,-1.1415,0.0,0.0,0.0,-1.027,-1.1306,-1.353,-1.4048,0.0,0.0,0.0,0.0,0.0,0.0,0.0,-1.7154,-1.5063,-1.3606,-1.3658,-1.4011,-1.4099,-1.3758,-1.4371,-1.4882,-1.496,0.0,-1.741,-1.7071,-1.6746,-1.6513,-1.6342,-1.6328,-1.6569,-1.7136,-1.9697,-2.2325,-2.4158,-2.62,-2.8023,-2.9433,-3.0309,-3.0874,-3.1133,-3.1179,-3.1269,-3.1428,-3.1781,-3.1974,-3.1747,-3.1453,-3.1202,0.0,0.0,0.0,0.0597,0.1666,0.2649,0.3677,0.4763,0.5864,0.6105,0.5788,0.5132,0.4084,0.2642,0.0923,0.0,0.0,0.0,0.0,0.0,0.0,-0.0425,-0.1143,-0.1308,-0.1785,-0.2611,-0.3478,-0.3877,-0.3931,-0.4549,-0.4794,-0.452,-0.4558,-0.4532,-0.4429,-0.4294,-0.4665,-0.5567,-0.6284,-0.6887,-0.7392,-0.7468,-0.7649,-0.7908,-0.7194,-0.7413,-0.858,-0.796,-0.7906,-0.8652,-0.8435,-0.87,-0.9414,0.0,0.0,0.0,0.0,0.0,0.0,0.0,0.0,0.0,0.0,0.0,0.0,0.0,0.0,0.0,-1.1373,0.0,-1.5636,-1.5332,0.0,0.0,0.0,-1.7735,-1.7852,-1.9108,-1.987,-1.9654,0.0,0.0,-1.4817,-1.5997,-1.6543,-1.5705,-1.6917,-1.7595,-1.6922,-1.8263,-1.897,-1.7663,-1.8265,-1.8524,-1.7897,-1.867,-1.9666,-2.0476,-2.1412,-2.2216,-2.354,-2.5111,-2.6976,-2.8681,-2.9576,-3.0142,-3.0874,-3.0951,-3.1176,-3.1418,-3.177,-3.2066,-3.2204,-3.1692,-3.1207,0.0,0.0,0.0,0.064,0.1632,0.2636,0.373,0.4763,0.5864,0.622,0.6156,0.5992,0.4862,0.2935,0.1732,0.0801,0.0,0.0,0.0,0.0,0.0,-0.0142,-0.0337,-0.1014,-0.1416,-0.1675,-0.2544,-0.2979,-0.298,-0.3151,-0.3235,-0.3173,-0.3088,-0.3398,-0.4134,-0.4541,-0.5208,-0.6171,-0.6805,-0.7457,-0.8112,-0.7913,-0.7963,-0.8257,-0.7285,-0.7132,-0.7776,-0.7001,-0.6949,-0.7743,-0.7872,-0.8339,-0.9369,-0.8654,0.0,0.0,0.0,0.0,0.0,0.0,0.0,0.0,0.0,-1.2816,-1.0902,0.0,-1.2539,0.0,-1.4142,-1.6723,-1.7974,-1.735,0.0,0.0,-1.9746,-2.0092,-2.0125,-2.0715,-2.0432,-1.8614,-1.9975,-1.9906,-1.6779,-1.7516,-1.83,-1.807,-1.7186,-1.6737,-1.717,-1.8612,-1.9465,-1.8821,-1.9458,-1.9972,-1.9368,-1.9531,-2.0003,-2.0633,-2.128,-2.2142,-2.3393,-2.4732,-2.603,-2.6921,-2.7951,-2.8782,-2.9448,-2.9797,-2.9935,-2.9819,-3.0568,-3.1419,-3.1509,-3.1342,-3.1202,0.0,0.0,0.0,0.0892,0.2349,0.2846,0.3944,0.5467,0.5953,0.6159,0.6156,0.5692,0.4873,0.3738,0.2706,0.1952,0.1382,0.1317,0.1072,0.0715,0.0636,0.0346,0.0,-0.0465,-0.0726,-0.0725,-0.1625,-0.2048,-0.2142,-0.2519,-0.2644,-0.264,-0.2533,-0.2848,-0.348,-0.3913,-0.4795,-0.6207,-0.7232,-0.7955,-0.837,-0.821,-0.815,-0.817,-0.7364,-0.7055,-0.7302,-0.6856,-0.685,-0.732,-0.7609,-0.8317,-0.9438,-0.867,-0.8768,0.0,0.0,0.0,0.0,0.0,0.0,0.0,0.0,0.0,0.0,0.0,-1.3379,-1.505,-1.7593,-1.9309,-1.9762,-1.9356,-1.9609,-2.0901,-2.112,-2.1377,-2.1832,-2.2038,-2.1691,-2.0455,-2.1494,-2.1224,-1.8197,-1.7754,-1.7856,-1.8127,-1.739,-1.7179,-1.8152,-1.9384,-1.9999,-1.951,-1.9886,-2.019,-1.9813,-1.9825,-2.0041,-2.0716,-2.1281,-2.2118,-2.3363,-2.438,-2.517,-2.5767,-2.6841,-2.8014,-2.8827,-2.9386,-2.9401,-2.8593,-2.8838,-2.9805,-3.0925,-3.1179,-3.119,0.0165,0.0,0.0,0.1198,0.3129,0.3115,0.4291,0.622,0.6088,0.603,0.5956,0.5061,0.4736,0.458,0.3718,0.3229,0.3069,0.2928,0.2443,0.1744,0.1567,0.1078,0.0336,0.0196,0.0194,0.0129,-0.0688,-0.1106,-0.1164,-0.1958,-0.2282,-0.2204,-0.2201,-0.2375,-0.2756,-0.2894,-0.3972,-0.6079,-0.7561,-0.8337,-0.837,-0.8387,-0.8196,-0.7895,-0.7361,-0.6996,-0.6949,-0.6901,-0.6895,-0.6949,-0.75,-0.8438,-0.9668,-0.888,-0.9218,0.0,-1.1355,0.0,0.0,0.0,0.0,0.0,0.0,0.0,0.0,-1.2958,-1.4743,-2.0075,-2.1014,-2.1304,-2.1209,-2.1419,-2.186,-2.2561,-2.2086,-2.2103,-2.2993,-2.3122,-2.3125,-2.3125,-2.2135,-2.0808,-1.8761,-1.7369,-1.6778,-1.7307,-1.7611,-1.805,-1.905,-1.9932,-2.0263,-1.9786,-1.9635,-1.9548,-1.957,-1.956,-1.9821,-2.0707,-2.1158,-2.1949,-2.317,-2.3888,-2.4415,-2.4823,-2.5815,-2.7038,-2.8215,-2.869,-2.859,-2.7275,-2.7129,-2.802,-3.0068,-3.0583,-3.0836,0.0793,0.0,0.0,0.118,0.3125,0.3139,0.4187,0.6071,0.6044,0.603,0.604,0.593,0.5466,0.454,0.4355,0.3724,0.2775,0.2762,0.2651,0.2512,0.243,0.2326,0.2143,0.1435,0.1031,0.1029,0.0188,-0.0244,-0.0238,-0.0415,-0.0518,-0.0489,-0.0488,-0.0991,-0.1975,0.0,0.0,0.0,-0.7519,-0.813,-0.84,-0.8136,-0.7941,-0.7882,-0.7127,0.0,-0.5975,-0.5893,-0.5841,-0.5985,-0.6884,0.0,0.0,0.0,0.0,0.0,0.0,0.0,0.0,0.0,0.0,0.0,-1.757,-1.7009,-1.623,-1.6774,-1.9219,-2.3931,-2.3237,-2.2505,-2.2855,-2.3859,-2.4213,-2.3296,-2.2968,-2.2896,-2.3197,-2.3134,-2.3125,-2.3065,-2.2355,-2.0665,-1.7846,-1.7611,-1.7798,-1.7489,-1.8061,-1.8489,-1.8537,-1.9328,-1.9709,-1.9271,-1.8808,-1.8616,-1.8882,-1.8712,-1.896,-1.9795,-2.0206,-2.0913,-2.2289,-2.3233,-2.3428,-2.3117,-2.3966,-2.4958,-2.5341,-2.5691,-2.613,-2.6018,-2.6221,-2.7001,-2.8755,-2.8608,-2.8707,0.1539,0.0,0.1001,0.1999,0.0,0.3834,0.4613,0.5918,0.5915,0.5878,0.5823,0.5969,0.569,0.5173,0.5246,0.484,0.42,0.4167,0.3837,0.3275,0.3299,0.3234,0.2952,0.2232,0.1812,0.1722,0.0896,0.0525,0.0517,0.0172,0.0,0.0,0.0,-0.0462,-0.1332,-0.2227,-0.3727,-0.5934,-0.6704,-0.7209,-0.7512,-0.7349,-0.7215,-0.7037,0.0,0.0,0.0,0.0,0.0,0.0,0.0,0.0,0.0,0.0,0.0,-1.3852,-1.7115,-1.8539,-1.7663,-1.8586,-1.9447,-1.997,-2.0025,-1.933,-1.7712,-1.9727,-2.207,-2.4353,-2.4273,-2.3914,-2.3514,-2.4449,-2.469,-2.362,-2.3349,-2.3194,-2.2878,-2.2782,-2.2738,-2.2417,-2.1409,-1.9831,-1.8291,-1.7481,-1.7109,-1.665,-1.6972,-1.7322,-1.7329,-1.8231,-1.8743,-1.824,-1.8042,-1.8044,-1.8359,-1.8308,-1.808,-1.8288,-1.9162,-2.0496,-2.2037,-2.2465,-2.2535,-2.2247,-2.2871,-2.3631,-2.458,-2.4579,-2.4399,-2.4556,-2.4469,-2.471,-2.5947,-2.6809,-2.772,0.2399,0.2773,0.21,0.2845,0.4412,0.4415,0.4941,0.5762,0.0,0.0,0.0,0.581,0.5858,0.5983,0.5967,0.5937,0.5927,0.5873,0.5326,0.448,0.4654,0.4347,0.3594,0.3173,0.2777,0.2401,0.1645,0.1229,0.1061,0.0501,0.0164,0.016,0.0053,-0.0306,-0.0954,-0.2559,-0.3806,-0.4706,-0.5644,-0.6237,-0.6463,-0.6473,-0.643,-0.6289,-0.6339,-0.6312,-0.6228,-0.6894,-0.7382,-0.7641,-0.904,-1.022,-1.0948,-1.0677,-1.1879,-1.5088,-1.9044,-2.0826,-1.9777,-2.0735,-2.1535,-2.1871,-2.1744,-2.095,-1.9206,-2.1721,-2.3325,-2.3289,-2.4496,-2.4767,-2.3637,-2.4146,-2.4319,-2.3654,-2.3533,-2.3278,-2.2671,-2.2323,-2.1992,-2.1462,-2.0029,-1.8865,-1.8598,-1.7132,-1.5929,-1.5578,-1.5748,-1.5786,-1.6003,-1.6985,-1.7645,-1.7291,-1.7278,-1.7498,-1.7771,-1.7847,-1.7488,-1.687,-1.8233,-1.9977,-2.1333,-2.1713,-2.1609,-2.1477,-2.1949,-2.2745,-2.384,-2.3528,-2.3054,-2.292,-2.2591,-2.2495,-2.3496,-2.5072,-2.6413,0.3431,0.2701,0.263,0.3212,0.4232,0.4232,0.4745,0.562,0.5616,0.6011,0.668,0.6086,0.6149,0.6704,0.5982,0.5971,0.6539,0.6577,0.6548,0.0,0.7172,0.6535,0.4895,0.4758,0.4267,0.3397,0.2493,0.173,0.1169,0.1031,0.0854,0.0743,0.0259,-0.0299,-0.0954,-0.2309,-0.3042,-0.326,-0.4806,-0.5748,-0.6066,-0.5962,-0.6188,-0.6644,-0.6271,-0.6352,-0.6954,-0.7598,-0.7984,-0.8078,-0.9805,-1.1115,-1.1769,-1.2431,-1.4155,-1.7198,-1.9032,-2.0561,-2.2038,-2.2819,-2.304,-2.2589,-2.2039,-2.1699,-2.186,-2.1941,-2.1955,-2.2044,-2.322,-2.3898,-2.3635,-2.3737,-2.3786,-2.3572,-2.3523,-2.3427,-2.3225,-2.2168,-2.1026,-1.9838,-1.9034,-1.781,-1.6475,-1.5987,-1.572,-1.5467,-1.518,-1.5247,-1.5371,-1.6063,-1.6558,-1.6539,-1.6586,-1.6672,-1.6848,-1.6779,-1.6716,-1.6552,-1.7321,-1.8521,-1.9864,-2.0607,-2.0744,-2.0181,-2.0995,-2.1407,-2.1016,-2.1362,-2.1413,-2.0852,-2.1139,-2.2197,-2.3266,-2.3522,-2.3717,0.4262,0.4192,0.3765,0.4048,0.4977,0.4977,0.5183,0.5535,0.5993,0.6388,0.6735,0.6506,0.6757,0.7403,0.717,0.7176,0.7377,0.7437,0.7497,0.7603,0.7703,0.7684,0.7476,0.616,0.5212,0.4548,0.3368,0.2599,0.2174,0.1765,0.151,0.1403,0.111,0.0516,-0.0414,-0.1007,-0.1655,-0.2322,-0.3966,-0.4863,-0.5024,-0.5084,-0.5241,-0.5548,-0.6024,-0.6494,-0.6848,-0.825,-0.9076,-0.93,-1.1209,-1.267,-1.3442,-1.5018,-1.6791,-1.878,-2.0713,-2.2025,-2.2634,-2.2965,-2.3006,-2.2677,-2.1746,-2.1293,-2.1493,-2.1635,-2.1688,-2.1704,-2.2591,-2.3077,-2.297,-2.3389,-2.3484,-2.3094,-2.3353,-2.3374,-2.2867,-2.172,-2.0248,-1.8701,-1.7958,-1.7066,-1.5611,-1.5299,-1.5004,-1.4562,-1.4232,-1.4033,-1.4297,-1.4819,-1.52,-1.5337,-1.5985,-1.645,-1.651,-1.6529,-1.6529,-1.6524,-1.7024,-1.7717,-1.8508,-1.9282,-1.974,-1.9735,-2.0286,-2.0333,-1.9745,-2.0169,-2.0235,-2.0123,-2.1021,-2.2156,-2.254,-2.2883,-2.3602,0.4912,0.5467,0.4771,0.4974,0.5809,0.5874,0.5933,0.6017,0.6724,0.7111,0.7265,0.7212,0.7593,0.8252,0.8215,0.8195,0.8301,0.8285,0.8393,0.8515,0.821,0.8636,0.92,0.725,0.6066,0.5449,0.4333,0.3558,0.3086,0.253,0.2172,0.2067,0.226,0.1777,0.0622,0.0311,-0.0311,-0.1439,-0.306,-0.3906,-0.3941,-0.432,-0.4684,-0.5066,-0.6041,-0.675,-0.7176,-0.9013,-1.0135,-1.0493,-1.2337,-1.3772,-1.467,-1.7099,-1.8859,-1.9824,-2.2141,-2.3329,-2.2737,-2.2324,-2.21,-2.2063,-2.1033,-2.0427,-2.0427,-2.1094,-2.154,-2.1608,-2.2086,-2.2537,-2.2758,-2.3215,-2.3421,-2.2965,-2.3201,-2.2976,-2.2108,-2.0939,-1.9345,-1.7481,-1.6791,-1.6234,-1.5409,-1.4851,-1.434,-1.3642,-1.3142,-1.3076,-1.3459,-1.3892,-1.4283,-1.45,-1.5182,-1.602,-1.6532,-1.664,-1.6554,-1.6491,-1.6951,-1.7282,-1.7596,-1.8214,-1.8851,-1.9281,-1.9583,-1.9758,-1.9735,-1.9735,-1.9766,-1.9797,-2.0803,-2.174,-2.1811,-2.3245,-2.4492,0.5316,0.5382,0.5319,0.5771,0.6556,0.6622,0.7003,0.7637,0.7832,0.835,0.8882,0.8242,0.8447,0.9011,0.8447,0.8506,0.9186,0.9204,0.9599,1.0207,1.0019,0.9544,0.8991,0.8253,0.7133,0.5719,0.5316,0.4516,0.3329,0.3125,0.2863,0.2744,0.3628,0.3578,0.2478,0.137,0.0532,-0.018,-0.2059,-0.3107,-0.3229,-0.4034,-0.512,-0.6367,-0.6534,-0.7235,-0.8427,-0.9961,-1.0728,-1.0887,-1.2545,-1.3811,-1.466,-1.7633,-1.9568,-1.9864,-2.2168,-2.3329,-2.2649,-2.1148,-2.0281,-2.0213,-1.9626,-1.9282,-1.9294,-2.026,-2.0997,-2.1233,-2.1614,-2.2331,-2.329,-2.3523,-2.3508,-2.3363,-2.2965,-2.2314,-2.1135,-1.9711,-1.797,-1.5843,-1.5501,-1.5311,-1.4637,-1.4473,-1.408,-1.3188,-1.3007,-1.3077,-1.354,-1.4146,-1.4548,-1.4331,-1.3948,-1.4818,-1.6823,-1.7114,-1.6604,-1.6534,-1.6909,-1.7089,-1.7186,-1.7894,-1.8846,-1.8922,-1.9191,-1.9669,-1.9705,-1.9726,-1.9711,-1.9833,-2.0373,-2.0919,-2.1582,-2.3476,-2.5244,0.5428,0.5428,0.5428,0.5877,0.6719,0.7242,0.7697,0.8027,0.8549,0.9011,0.9396,0.9939,1.0205,1.004,1.0192,1.0289,1.039,1.0873,1.1063,1.1045,1.085,1.0401,0.9618,0.8802,0.7901,0.6784,0.6231,0.5535,0.4877,0.4518,0.4471,0.4712,0.5214,0.4995,0.4121,0.302,0.1985,0.1035,-0.121,-0.2411,-0.2591,-0.3687,-0.4858,-0.586,-0.6367,-0.7074,-0.8203,-0.9843,-1.0813,-1.0973,-1.2949,-1.4478,-1.5017,-1.7743,-1.9514,-1.9947,-2.0871,-2.1356,-2.1096,-1.9774,-1.8943,-1.8951,-1.9003,-1.9168,-1.9594,-2.0332,-2.1135,-2.1923,-2.2211,-2.2665,-2.3421,-2.3275,-2.3054,-2.295,-2.209,-2.1102,-2.0192,-1.8211,-1.6181,-1.4407,-1.4101,-1.3856,-1.334,-1.3284,-1.3193,-1.2941,-1.289,-1.3145,-1.3861,-1.4414,-1.4697,-1.4911,-1.4925,-1.5336,-1.646,-1.6591,-1.6479,-1.6541,-1.668,-1.6723,-1.7253,-1.7733,-1.85,-1.8874,-1.9383,-1.9669,-1.9705,-1.9711,-1.9732,-2.0008,-2.1665,-2.2815,-2.3511,-2.4465,-2.5527,0.6079,0.6079,0.6145,0.6597,0.7437,0.8091,0.8441,0.8717,0.9539,0.992,1.0039,1.1472,1.1841,1.1421,1.1896,1.189,1.1546,1.2121,1.2094,1.1526,1.1366,1.1006,1.0478,0.9694,0.8822,0.7945,0.7161,0.6546,0.6145,0.6057,0.6247,0.6719,0.7182,0.7038,0.624,0.5035,0.3648,0.2125,-0.0365,-0.1891,-0.2399,-0.3527,-0.4561,-0.5453,-0.623,-0.6966,-0.7723,-0.9688,-1.0813,-1.0864,-1.3158,-1.4716,-1.5297,-1.7459,-1.8987,-1.9569,-1.9582,-1.942,-1.9274,-1.8131,-1.7636,-1.7907,-1.835,-1.8893,-1.9668,-2.0368,-2.1161,-2.1927,-2.2314,-2.2634,-2.3201,-2.2965,-2.2589,-2.2118,-2.0919,-1.9898,-1.9162,-1.6916,-1.4777,-1.3204,-1.2724,-1.2436,-1.2112,-1.2202,-1.2459,-1.2813,-1.2931,-1.3183,-1.407,-1.4573,-1.4958,-1.5306,-1.5961,-1.623,-1.5808,-1.613,-1.646,-1.6548,-1.6637,-1.6976,-1.7474,-1.7894,-1.8193,-1.8698,-1.9317,-1.9705,-1.9726,-1.9747,-2.0089,-2.0634,-2.1997,-2.3704,-2.3902,-2.4435,-2.4892,0.7897,0.7832,0.7897,0.8291,0.9139,0.9268,0.9574,1.0017,1.1152,1.1478,1.1316,1.2414,1.294,1.2838,1.2926,1.2734,1.2372,1.2481,1.2414,1.2157,1.1648,1.1419,1.143,1.0905,0.9972,0.8803,0.8363,0.7538,0.6486,0.7166,0.7858,0.8439,0.9734,1.0038,0.9056,0.741,0.5449,0.3375,0.0655,-0.1527,-0.2825,-0.3568,-0.4317,-0.5197,-0.6158,-0.6961,-0.7812,-0.9681,-1.0813,-1.0813,-1.2783,-1.4165,-1.4834,-1.6667,-1.8067,-1.8674,-1.8421,-1.7972,-1.7375,-1.6348,-1.6157,-1.7134,-1.746,-1.791,-1.9166,-2.0197,-2.0818,-2.0894,-2.1472,-2.1993,-2.2377,-2.2331,-2.189,-2.0726,-1.9652,-1.8732,-1.8295,-1.568,-1.379,-1.2439,-1.1566,-1.1177,-1.1406,-1.1718,-1.2068,-1.2582,-1.2842,-1.3192,-1.39,-1.4704,-1.5268,-1.5487,-1.5947,-1.6466,-1.6411,-1.6442,-1.6485,-1.6565,-1.6837,-1.7258,-1.7626,-1.7999,-1.8264,-1.8616,-1.9244,-1.966,-1.9747,-2.012,-2.0665,-2.1197,-2.1724,-2.2836,-2.3369,-2.3285,-2.3691,0.8027,0.8027,0.8613,0.9005,0.9402,1.0458,1.1016,1.1247,1.215,1.2382,1.2236,1.2965,1.3442,1.357,1.4099,1.3959,1.3387,1.3941,1.4084,1.3782,1.3555,1.3076,1.2344,1.215,1.1373,1.0105,0.945,0.8731,0.8,0.8488,0.9346,1.0352,1.135,1.1955,1.1834,1.022,0.8162,0.6027,0.2878,0.0459,-0.1014,-0.2181,-0.3089,-0.3918,-0.5668,-0.6897,-0.7528,-0.9672,-1.0813,-1.0813,-1.3062,-1.4468,-1.4789,-1.6099,-1.6962,-1.7082,-1.6362,-1.5796,-1.5568,-1.5127,-1.5154,-1.6095,-1.7114,-1.8166,-1.9448,-2.0355,-2.0756,-2.0703,-2.0811,-2.0846,-2.0278,-2.0466,-2.0273,-1.8971,-1.7433,-1.6541,-1.6148,-1.3903,-1.1851,-1.1772,-1.074,-0.9767,-1.0126,-1.0353,-1.0869,-1.179,-1.2897,-1.3734,-1.4384,-1.5348,-1.5969,-1.5959,-1.5892,-1.5982,-1.6488,-1.6481,-1.6552,-1.668,-1.6909,-1.7382,-1.7799,-1.8226,-1.853,-1.8885,-1.9409,-1.9587,-1.9717,-2.0313,-2.0925,-2.1311,-2.1852,-2.2303,-2.2496,-2.279,-2.2898,0.9603,0.9673,1.0255,1.0521,1.064,1.1703,1.2135,1.2187,1.3011,1.3101,1.2843,1.3564,1.4061,1.4294,1.4893,1.5014,1.4676,1.5099,1.511,1.4731,1.4709,1.4272,1.3538,1.3396,1.2898,1.1895,1.1204,1.0575,1.0082,1.0426,1.1376,1.2746,1.3677,1.4582,1.4981,1.3728,1.1938,0.9624,0.6476,0.3909,0.2225,0.0352,-0.0942,-0.1945,-0.416,-0.6212,-0.7493,-0.9395,-1.0695,-1.1349,-1.3253,-1.4662,-1.528,-1.5626,-1.5637,-1.5185,-1.4707,-1.4241,-1.4055,-1.3957,-1.4468,-1.5681,-1.6502,-1.7701,-1.9331,-1.9687,-1.9724,-1.9635,-1.9623,-1.9108,-1.8242,-1.8095,-1.7833,-1.7002,-1.5635,-1.4552,-1.4253,-1.2012,-1.0824,-1.0678,-0.9962,-0.9343,-0.9437,-0.9992,-1.0653,-1.1402,-1.2838,-1.3841,-1.443,-1.5199,-1.6138,-1.6411,-1.6132,-1.5633,-1.5499,-1.5377,-1.612,-1.6373,-1.6573,-1.7153,-1.7688,-1.819,-1.8673,-1.9125,-1.9401,-1.9524,-1.9865,-2.0432,-2.0831,-2.1106,-2.1776,-2.2329,-2.2436,-2.2505,-2.259,1.2879,1.2749,1.2948,1.2757,1.2696,1.2846,1.2846,1.2881,1.3744,1.3844,1.3477,1.4347,1.4861,1.508,1.5252,1.5618,1.6033,1.5728,1.5289,1.4903,1.4835,1.4789,1.4641,1.4595,1.4358,1.3839,1.3527,1.3022,1.2444,1.2869,1.3852,1.5461,1.6724,1.7647,1.8555,1.7597,1.6377,1.4009,1.1037,0.859,0.6699,0.3959,0.2146,0.1084,-0.1555,-0.4321,-0.7083,-0.8833,-1.0359,-1.1648,-1.3034,-1.4587,-1.5614,-1.5222,-1.4182,-1.3429,-1.348,-1.3478,-1.3046,-1.3057,-1.4073,-1.5588,-1.5698,-1.6428,-1.8008,-1.8139,-1.7884,-1.7686,-1.7643,-1.728,-1.649,-1.5706,-1.5199,-1.5155,-1.4428,-1.3122,-1.1707,-1.064,-0.9828,-0.92,-0.9138,-0.9679,-0.9978,-1.037,-1.1019,-1.1657,-1.2363,-1.318,-1.3867,-1.4596,-1.5244,-1.6013,-1.594,-1.5304,-1.4627,-1.4138,-1.5184,-1.6005,-1.6227,-1.6623,-1.71,-1.76,-1.8042,-1.847,-1.9188,-1.9336,-1.9264,-1.9785,-1.9829,-2.0212,-2.1204,-2.1678,-2.1352,-2.1267,-2.2129,1.3009,1.3009,1.3009,1.3009,1.3036,1.3279,1.3593,1.3942,1.459,1.4702,1.4704,1.4959,1.5263,1.5402,1.5475,1.6049,1.6939,1.6741,1.6393,1.6032,1.5964,1.5744,1.5421,1.532,1.5043,1.4552,1.409,1.3848,1.3853,1.4208,1.5053,1.6436,1.807,1.9436,2.0499,2.0029,1.8963,1.7248,1.4771,1.2142,0.9468,0.7681,0.6112,0.441,0.1879,-0.061,-0.2769,-0.7211,-1.0038,-1.0981,-1.2385,-1.3344,-1.3707,-1.3546,-1.3246,-1.2988,-1.3055,-1.3152,-1.2959,-1.3154,-1.3771,-1.4932,-1.5394,-1.5924,-1.6708,-1.7191,-1.698,-1.6239,-1.6001,-1.5658,-1.476,-1.401,-1.3642,-1.3756,-1.2508,-1.1597,-1.074,-0.9838,-0.8689,-0.7764,-0.8571,-0.9637,-1.0144,-1.0477,-1.0627,-1.1619,-1.1969,-1.2436,-1.3693,-1.4339,-1.4814,-1.5349,-1.5032,-1.493,-1.4362,-1.4246,-1.5069,-1.5717,-1.593,-1.6149,-1.6599,-1.6936,-1.7362,-1.7876,-1.8577,-1.8966,-1.8924,-1.8957,-1.9001,-1.9098,-1.9663,-1.9723,-1.9469,-2.015,-2.1275,1.4634,1.4565,1.4079,1.4085,1.4287,1.4562,1.5064,1.5608,1.5891,1.5883,1.5708,1.583,1.5893,1.5949,1.612,1.6718,1.7544,1.7585,1.749,1.7313,1.7146,1.6883,1.6591,1.6722,1.6654,1.6278,1.5995,1.5871,1.5905,1.6213,1.6917,1.8125,1.9608,2.1013,2.221,2.2376,2.1797,2.0528,1.8629,1.6424,1.4243,1.2358,1.0822,0.9392,0.7289,0.5124,0.2946,-0.1065,-0.4796,-0.7766,-0.9413,-1.0507,-1.1731,-1.2058,-1.2304,-1.2771,-1.2654,-1.251,-1.2518,-1.2526,-1.3058,-1.3871,-1.4355,-1.4812,-1.5087,-1.5812,-1.538,-1.4914,-1.4532,-1.3927,-1.2783,-1.2177,-1.1783,-1.1367,-1.1059,-1.0275,-0.9688,-0.8532,-0.8039,-0.7648,-0.8287,-0.9343,-1.0143,-1.0537,-1.0506,-1.1528,-1.196,-1.2186,-1.3465,-1.4105,-1.437,-1.4593,-1.4738,-1.4524,-1.4154,-1.4443,-1.5021,-1.5382,-1.5677,-1.5866,-1.6206,-1.6362,-1.6652,-1.7074,-1.7685,-1.8032,-1.8073,-1.8151,-1.8198,-1.8277,-1.8476,-1.8485,-1.8726,-1.9965,-2.1073,1.7424,1.7233,1.6035,1.5853,1.6358,1.6398,1.6706,1.7412,1.7486,1.704,1.6623,1.6966,1.7051,1.6901,1.7306,1.7747,1.8212,1.8235,1.8579,1.8777,1.8627,1.8335,1.8101,1.8236,1.8356,1.8639,1.8645,1.8682,1.8496,1.8584,1.9337,2.0125,2.1294,2.2597,2.3419,2.4518,2.4423,2.355,2.222,2.0914,1.9899,1.7719,1.6019,1.5496,1.3638,1.1665,0.979,0.8221,0.4196,-0.2432,-0.4136,-0.6187,-0.9431,-1.0359,-1.0439,-1.1488,-1.1628,-1.1309,-1.1285,-1.0862,-1.1253,-1.2133,-1.233,-1.2697,-1.3438,-1.3595,-1.3545,-1.3432,-1.3086,-1.2173,-1.08,-1.0159,-0.9607,-0.8903,-0.9606,-0.9418,-0.7782,-0.6838,-0.6792,-0.7796,-0.8157,-0.8534,-1.0295,-1.0812,-1.1419,-1.1781,-1.2325,-1.2774,-1.3087,-1.3563,-1.3828,-1.404,-1.4223,-1.4364,-1.4119,-1.4867,-1.5404,-1.548,-1.5659,-1.5769,-1.5905,-1.5995,-1.6069,-1.6458,-1.6922,-1.7179,-1.7404,-1.7585,-1.7765,-1.7973,-1.7987,-1.7833,-1.8391,-1.9538,-2.0576,1.7944,1.7489,1.7179,1.7124,1.7247,1.7004,1.7266,1.7774,1.7561,1.7909,1.821,1.8485,1.8968,1.9586,1.8879,1.9287,1.9968,1.9553,1.9813,2.0655,2.0671,1.9959,1.911,1.8688,1.904,1.9732,1.998,1.9929,1.9828,1.9871,2.028,2.103,2.2169,2.3117,2.3965,2.4582,2.4866,2.4777,2.4051,2.2901,2.1852,2.1275,2.0486,1.9528,1.7956,1.6986,1.6448,1.5607,1.133,0.3909,0.2288,-0.0666,-0.4956,-0.494,-0.5039,-0.6147,-0.7306,-0.7747,-0.774,-0.7716,-0.8148,-0.9106,-0.9714,-1.0576,-1.0905,-1.2224,-1.2296,-1.1834,-1.1183,-1.0428,-0.9029,-0.8513,-0.8094,-0.7795,-0.8029,-0.8086,-0.7447,-0.6583,-0.5973,-0.5862,-0.7385,-0.854,-0.9542,-1.0737,-1.1716,-1.1903,-1.2393,-1.2987,-1.3125,-1.344,-1.3881,-1.3483,-1.3577,-1.4011,-1.444,-1.5241,-1.5679,-1.5696,-1.5757,-1.5772,-1.5846,-1.5875,-1.5889,-1.6008,-1.6645,-1.7029,-1.7207,-1.7388,-1.7536,-1.7805,-1.7777,-1.7792,-1.8007,-1.8785,-1.9815,1.8978,1.8368,1.7822,1.7786,1.8078,1.8108,1.8509,1.907,1.9164,1.9347,1.9849,2.0124,2.0599,2.1098,2.0416,2.0625,2.1415,2.0769,2.0926,2.1641,2.2109,2.159,2.0637,2.0052,2.0398,2.1108,2.137,2.1352,2.1278,2.1286,2.1585,2.2089,2.299,2.3748,2.4143,2.4639,2.4892,2.4898,2.4586,2.3936,2.318,2.3673,2.3765,2.3313,2.2643,2.26,2.2217,2.1331,1.72,1.1052,0.8858,0.6873,0.292,0.1545,0.112,0.0446,-0.1759,-0.3247,-0.3111,-0.3403,-0.4109,-0.49,-0.6069,-0.705,-0.7793,-0.9188,-0.9409,-1.0621,-0.9291,-0.7595,-0.6209,-0.5754,-0.5886,-0.6141,-0.6024,-0.6262,-0.7214,-0.6778,-0.6428,-0.6602,-0.7394,-0.8583,-0.9197,-1.0729,-1.141,-1.1867,-1.2452,-1.2938,-1.3314,-1.3658,-1.3976,-1.386,-1.3638,-1.4075,-1.4749,-1.5528,-1.5852,-1.5886,-1.5787,-1.58,-1.5871,-1.5871,-1.5928,-1.607,-1.649,-1.685,-1.7085,-1.7344,-1.7612,-1.7789,-1.7789,-1.7822,-1.7974,-1.8234,-1.9212,2.0366,1.9721,1.8503,1.8412,1.9153,1.9698,2.0341,2.0975,2.1464,2.1573,2.1462,2.1758,2.2147,2.214,2.191,2.1887,2.2411,2.1861,2.2068,2.2678,2.317,2.3102,2.2603,2.2159,2.227,2.2613,2.294,2.2968,2.2845,2.2935,2.3046,2.3307,2.3989,2.4251,2.4441,2.479,2.493,2.4892,2.4784,2.4598,2.4568,2.5281,2.5788,2.5899,2.6999,2.6955,2.6426,2.5541,2.2362,1.5792,1.576,1.4195,1.191,0.8859,0.7358,0.6969,0.4439,0.278,0.2465,0.1895,0.0821,0.006,-0.1254,-0.2781,-0.4218,-0.5145,-0.6647,-0.9173,-0.6685,-0.4118,-0.2683,-0.2141,-0.298,-0.4017,-0.3971,-0.4627,-0.6337,-0.6855,-0.714,-0.8306,-0.7852,-0.8429,-0.9355,-1.035,-1.0912,-1.1116,-1.1972,-1.3016,-1.3507,-1.3954,-1.4433,-1.4868,-1.4597,-1.4264,-1.5025,-1.5806,-1.597,-1.6014,-1.5862,-1.5842,-1.5957,-1.597,-1.6055,-1.6262,-1.6628,-1.6917,-1.7109,-1.7389,-1.7704,-1.7789,-1.7789,-1.7789,-1.7839,-1.8109,-1.8833,2.179,2.1233,2.0939,2.0886,2.1129,2.1633,2.1992,2.2204,2.2702,2.3046,2.3398,2.3579,2.4116,2.4859,2.358,2.3554,2.4015,2.3209,2.3112,2.4532,2.4484,2.4879,2.4698,2.4063,2.3533,2.3626,2.3862,2.4156,2.4306,2.4001,2.4059,2.4763,2.4463,2.4511,2.4721,2.4867,2.4995,2.5071,2.5069,2.5123,2.5557,2.6653,2.7251,2.711,2.8427,2.9043,2.8919,2.8681,2.7084,2.4277,2.1424,1.896,1.6924,1.5059,1.3228,1.1572,1.11,0.9987,0.8885,0.8238,0.7491,0.5759,0.3581,0.1024,-0.0128,-0.1866,-0.3843,-0.526,-0.2718,0.0064,0.0711,0.1162,0.0129,-0.1543,-0.2072,-0.2541,-0.472,-0.5308,-0.5827,-0.6415,-0.6769,-0.6668,-0.7175,-0.9101,-0.9836,-1.0316,-1.1423,-1.2871,-1.3527,-1.3879,-1.4618,-1.5097,-1.5774,-1.5543,-1.5952,-1.648,-1.6383,-1.6247,-1.6037,-1.6008,-1.6109,-1.6095,-1.6136,-1.6386,-1.6744,-1.7,-1.7271,-1.7476,-1.7789,-1.7789,-1.7789,-1.7789,-1.7856,-1.8093,-1.8549,2.3006,2.2462,2.2448,2.2448,2.2525,2.284,2.3137,2.3314,2.3468,2.3872,2.4185,2.4143,2.4587,2.5261,2.4264,2.4224,2.5137,2.4936,2.5152,2.5985,2.5825,2.5817,2.5959,2.5263,2.4556,2.4464,2.5163,2.5389,2.5054,2.5083,2.5152,2.5291,2.4966,2.4958,2.5033,2.5063,2.5148,2.5208,2.527,2.5464,2.6186,2.7294,2.8276,2.8301,2.9295,2.9687,2.832,2.8628,2.781,2.6223,2.4358,2.2771,2.1552,2.0498,1.8792,1.6936,1.6436,1.625,1.512,1.4317,1.3447,1.2155,0.9974,0.7554,0.5585,0.3462,0.0867,-0.0567,0.1523,0.5004,0.4623,0.6158,0.4813,0.2109,0.1422,0.0515,-0.2016,-0.3787,-0.4848,-0.5564,-0.6348,-0.6017,-0.6601,-0.681,-0.7328,-0.7222,-0.8987,-1.0507,-1.2127,-1.2701,-1.4167,-1.5096,-1.6341,-1.6922,-1.7143,-1.7232,-1.6928,-1.663,-1.6224,-1.6275,-1.6398,-1.6315,-1.6231,-1.6543,-1.6898,-1.724,-1.7526,-1.7721,-1.7789,-1.7789,-1.7789,-1.7789,-1.7822,-1.7946,-1.8599,2.3856,2.3392,2.3407,2.3407,2.3421,2.3634,2.3914,2.4207,2.4183,2.4408,2.4613,2.4382,2.4979,2.4958,2.4769,2.514,2.5941,2.6618,2.6981,2.746,2.6666,2.6597,2.6524,2.5879,2.5221,2.5166,2.6075,2.6116,2.5959,2.6035,2.6081,2.5632,2.5291,2.5263,2.5293,2.5289,2.525,2.5269,2.533,2.5544,2.634,2.7359,2.8466,2.9536,2.984,2.9506,2.8217,2.801,2.756,2.6004,2.5719,2.5487,2.5288,2.4832,2.4081,2.1923,2.1711,2.134,2.0393,1.9693,1.8983,1.8292,1.686,1.4739,1.1694,0.9364,0.6459,0.6401,0.7988,1.2806,1.0664,1.1664,1.159,0.943,0.787,0.4935,0.2347,-0.0798,-0.1847,-0.3598,-0.4392,-0.4779,-0.3247,-0.2636,-0.3448,-0.4374,-0.6119,-0.7796,-0.9267,-1.0603,-1.1481,-1.3768,-1.497,-1.5445,-1.5685,-1.7623,-1.7342,-1.7427,-1.6843,-1.6919,-1.7045,-1.7096,-1.7088,-1.6818,-1.7044,-1.7399,-1.7635,-1.7743,-1.7789,-1.7789,-1.7805,-1.7783,-1.7789,-1.7794,-1.8771,2.3902,2.3803,2.3803,2.3803,2.3869,2.4329,2.4649,2.4696,2.5136,2.5267,2.5442,2.6109,2.6369,2.6585,2.7068,2.7214,2.7199,2.7638,2.8111,2.8431,2.7589,2.7156,2.7451,2.6425,2.5621,2.5638,2.6384,2.6883,2.6961,2.696,2.6698,2.6875,2.582,2.5223,2.5278,2.5288,2.524,2.5323,2.5357,2.5498,2.6087,2.7334,2.8752,2.9955,3.0009,2.9455,2.8925,2.839,2.8028,2.7653,2.6972,2.6971,2.7062,2.6752,2.5947,2.5336,2.5962,2.579,2.4534,2.4384,2.3803,2.2602,2.0843,1.9722,1.7718,1.5072,1.265,1.345,1.8337,2.4101,2.1024,1.9431,2.0402,1.9767,1.5897,1.1182,1.0141,0.7729,0.4415,0.2295,-0.0347,-0.1984,0.0851,0.2888,0.2797,0.1653,-0.03,-0.227,-0.4048,-0.5567,-0.6971,-0.9867,-1.3097,-1.3377,-1.3576,-1.6271,-1.7722,-1.8223,-1.8062,-1.8022,-1.8142,-1.8189,-1.8069,-1.7289,-1.7172,-1.7516,-1.7687,-1.7833,-1.7839,-1.7905,-1.7856,-1.7856,-1.7946,-1.8193,-1.9487,2.4729,2.4793,2.5268,2.552,2.563,2.6108,2.6482,2.6666,2.653,2.657,2.6775,2.706,2.7195,2.7285,2.7513,2.7835,2.8347,2.8991,2.9439,2.9537,2.8707,2.8234,2.8571,2.7318,2.6636,2.6505,2.6879,2.7071,2.7147,2.6766,2.6744,2.6514,2.5545,2.5009,2.5041,2.5013,2.5217,2.5401,2.5339,2.5552,2.6224,2.7729,2.8946,2.9433,2.9874,2.9572,2.8769,2.888,2.8457,2.8001,2.7585,2.7674,2.7905,2.8049,2.7711,2.7316,2.8274,2.8592,2.7343,2.7151,2.6944,2.6512,2.5234,2.5154,2.4758,2.2935,2.0646,2.2748,2.5384,3.0342,2.653,2.5355,2.5737,2.5261,2.1145,1.733,1.498,1.3388,1.1303,0.87,0.5452,0.4871,0.7681,0.902,0.919,0.7791,0.5643,0.3648,0.163,0.0133,-0.1268,-0.5455,-0.8913,-1.1302,-1.2181,-1.5057,-1.7464,-1.8245,-1.9286,-1.9249,-1.9353,-1.9448,-1.8327,-1.706,-1.7232,-1.8185,-1.7992,-1.8236,-1.81,-1.8181,-1.8599,-1.8836,-1.8487,-1.8802,-2.0214,2.5841,2.5937,2.6721,2.7082,2.716,2.7587,2.7961,2.8184,2.7598,2.7437,2.7773,2.7782,2.7781,2.7896,2.8319,2.8869,2.9531,3.0385,3.0667,3.0287,2.9551,2.9216,2.9038,2.8414,2.7505,2.6981,2.6872,2.7052,2.6635,2.6406,2.6271,2.5987,2.5235,2.4777,2.4804,2.4676,2.5186,2.5261,2.5145,2.5574,2.7025,2.8164,2.8864,2.9079,2.9916,2.9685,2.8826,2.8875,2.8946,2.8603,2.8364,2.8315,2.8574,2.9119,2.9107,2.869,2.9361,2.9273,2.9021,2.8886,2.8965,2.8755,2.9502,2.9704,2.9739,2.8812,2.96,3.209,3.2774,3.2694,2.9988,2.9737,2.9007,2.7509,2.5233,2.2408,1.9553,1.7946,1.7813,1.4943,1.1358,1.1575,1.4252,1.7111,1.7674,1.4788,1.26,1.0873,0.8901,0.6962,0.4635,-0.0227,-0.4276,-0.8137,-1.078,-1.3955,-1.6212,-1.7754,-1.9452,-2.0528,-2.0616,-2.0738,-1.9435,-1.8388,-1.8911,-1.9682,-1.9193,-1.8898,-1.9143,-1.9461,-1.9785,-1.9835,-1.9612,-2.0178,-2.1473,2.709,2.709,2.7236,2.7308,2.7395,2.754,2.7586,2.7739,2.7706,2.7497,2.7926,2.851,2.8908,2.9244,3.0562,3.0845,3.0829,3.0975,3.1093,3.0508,2.9736,2.9328,2.9087,2.8065,2.7826,2.7407,2.6773,2.6359,2.6235,2.6142,2.6148,2.5921,2.5239,2.4663,2.4939,2.4634,2.4301,2.4644,2.4568,2.5361,2.6992,2.8018,2.8766,2.9412,2.9736,2.978,2.9344,2.9303,2.9245,2.9765,2.9356,2.9547,3.0146,3.0346,3.0409,3.0333,3.0401,3.0411,3.0132,3.0113,3.0147,3.001,3.0047,3.0064,3.0646,3.1465,3.248,3.493,3.4151,3.303,3.1846,3.1534,3.0976,2.9525,2.739,2.5964,2.4057,2.1648,2.1655,2.1422,1.7897,1.8677,2.0632,2.375,2.5959,2.2632,1.9596,1.7543,1.5427,1.2887,1.1158,0.6606,0.1115,-0.2963,-0.5466,-0.9218,-1.418,-1.6309,-1.7281,-1.987,-2.1959,-2.1974,-2.1628,-2.0964,-2.1194,-2.1431,-2.157,-2.1293,-2.0826,-2.0802,-2.1177,-2.1087,-2.0829,-2.1726,-2.2763,2.9666,2.8152,2.828,2.8335,2.8444,2.8945,2.9229,2.9241,2.9249,2.9249,2.9324,2.9698,3.0199,3.0781,3.1657,3.1667,3.1344,3.1207,3.0876,3.0559,2.999,2.9682,2.9608,2.9131,2.8732,2.7944,2.7443,2.6895,2.6435,2.5759,2.5585,2.6618,2.5554,2.5008,2.5261,2.5049,2.5275,2.561,2.5805,2.6198,2.7043,2.7729,2.8445,2.9439,2.9636,2.9702,2.9684,2.9707,2.9634,2.996,2.9702,2.98,3.0092,3.0207,3.0257,3.0153,3.0436,3.0562,3.0533,3.0562,3.0562,3.0714,3.0741,3.1346,3.1948,3.2279,3.2375,3.2732,3.2649,3.2501,3.2706,3.2545,3.1264,2.999,2.8871,2.7868,2.6814,2.6022,2.4883,2.4827,2.4579,2.41,2.3979,2.5668,2.7018,2.53,2.2483,2.0467,1.8589,1.6602,1.5252,1.3867,0.8039,0.2393,0.0542,-0.2205,-1.01,-1.2542,-1.0646,-1.4411,-2.1656,-2.321,-2.1313,-2.1296,-2.1569,-2.2202,-2.3279,-2.2873,-2.1597,-2.1964,-2.259,-2.2428,-2.2356,-2.307,-2.3896,3.2041,3.0251,2.9933,2.9687,2.9574,3.0511,3.0891,3.0911,3.1131,3.1226,3.1255,3.1308,3.1659,3.218,3.2408,3.2421,3.1812,3.1166,3.0665,3.0443,3.0179,2.9975,2.981,2.9699,2.9349,2.8612,2.8016,2.7594,2.6744,2.5878,2.5862,2.7141,2.5695,2.5338,2.56,2.5471,2.5473,2.5861,2.6322,2.6702,2.7119,2.7573,2.8301,2.8944,2.9358,2.9551,2.9551,2.9691,2.9727,2.9693,2.9804,2.9832,2.9851,2.9961,2.998,2.9928,3.0106,3.024,3.0311,3.0374,3.0484,3.0749,3.1142,3.1588,3.1826,3.2122,3.1723,3.0773,3.1709,3.2306,3.2733,3.2612,3.1583,3.0534,2.974,2.8778,2.772,2.6435,2.5541,2.512,2.4945,2.5295,2.5527,2.6641,2.7159,2.6893,2.5344,2.3112,2.1399,1.9487,1.9132,1.8314,1.6521,1.083,0.7898,0.4103,-0.381,-0.8326,-0.6378,-0.8066,-1.4725,-1.8118,-1.7499,-1.8477,-1.9347,-2.0443,-2.0003,-2.1185,-2.2403,-2.3237,-2.3886,-2.389,-2.4049,-2.4605,-2.4714,3.3668,3.4068,3.24,3.1242,3.0604,3.1426,3.1801,3.187,3.2611,3.282,3.2703,3.296,3.2889,3.3165,3.3455,3.3158,3.1903,3.2323,3.1418,3.043,2.9859,2.9825,2.9719,2.957,2.9399,2.9076,2.8421,2.8091,2.7773,2.6495,2.5978,2.5604,2.5641,2.5544,2.5605,2.5649,2.5432,2.582,2.6306,2.6722,2.7102,2.7593,2.8276,2.8474,2.8827,2.9044,2.9067,2.9295,2.9378,2.9357,2.9514,2.9642,2.9604,2.9718,2.97,2.9756,2.9792,2.9914,2.9994,3.0158,3.0277,3.0451,3.0822,3.1215,3.108,3.1653,3.1013,3.0005,3.1157,3.1501,3.1779,3.1644,3.0835,3.0049,2.8978,2.7822,2.6873,2.6201,2.5406,2.5113,2.4993,2.4982,2.4889,2.5488,2.7456,2.7418,2.4647,2.241,2.3024,2.1849,2.2379,2.2474,2.3499,2.048,1.6499,1.0867,0.4047,-0.0494,-0.1089,-0.2856,-0.6802,-0.8934,-0.9187,-1.116,-1.1305,-1.4089,-1.6837,-1.7512,-1.9275,-2.3361,-2.491,-2.3907,-2.4208,-2.4887,-2.4917,3.4675,3.4467,3.3763,3.3002,3.2229,3.2556,3.2688,3.2759,3.3057,3.3059,3.2926,3.336,3.3506,3.3508,3.3566,3.3517,3.274,3.2234,3.1466,3.0827,3.0359,2.9997,2.9706,2.9407,2.933,2.9023,2.8456,2.8084,2.7888,2.7093,2.6667,2.6303,2.5976,2.6272,2.6288,2.613,2.5997,2.6051,2.643,2.6792,2.7133,2.7373,2.7851,2.812,2.8438,2.8507,2.8438,2.88,2.887,2.8929,2.9089,2.9246,2.9342,2.9403,2.948,2.9678,2.9793,2.9921,2.9866,3.0015,3.0103,3.0639,3.0979,3.1163,3.0894,3.0892,3.1415,3.1176,3.0676,3.0615,3.1289,3.0437,2.9261,2.8669,2.7843,2.6776,2.5873,2.5262,2.501,2.466,2.4189,2.3919,2.3796,2.3739,2.608,2.7752,2.4596,2.2197,2.2705,2.2957,2.2961,2.304,2.367,2.4129,2.0232,1.5909,1.1631,0.7953,0.426,0.2717,0.1186,0.3593,0.2823,0.0106,-0.4319,-0.7895,-1.0788,-1.283,-1.5991,-2.03,-2.23,-2.2705,-2.3559,-2.4799,-2.4953,3.5349,3.4836,3.4803,3.4162,3.3247,3.3331,3.3392,3.3422,3.3586,3.3527,3.3278,3.3865,3.4025,3.3828,3.3826,3.3619,3.3222,3.2591,3.1673,3.0935,3.0339,2.9858,2.9355,2.902,2.8874,2.8682,2.854,2.8237,2.7707,2.7457,2.7009,2.6646,2.6446,2.6656,2.6779,2.6873,2.6708,2.6708,2.6725,2.6808,2.7098,2.7286,2.753,2.7869,2.8156,2.8264,2.8318,2.8644,2.8825,2.8845,2.8969,2.9199,2.922,2.9224,2.9295,2.9707,3.0091,3.0297,3.0109,3.0083,3.0281,3.102,3.1225,3.1743,3.1797,3.0977,3.1379,3.0835,3.0065,2.9963,3.1128,3.0129,2.8867,2.8312,2.7218,2.6131,2.5001,2.4236,2.4241,2.4174,2.3591,2.2946,2.3191,2.3086,2.3462,2.4466,2.1303,2.0181,2.1824,2.2005,2.1886,2.196,2.2206,2.2538,2.2221,1.7949,1.4112,1.2236,0.9489,0.9896,0.986,1.1424,1.0915,0.6854,0.2316,-0.1879,-0.3971,-0.5089,-1.0753,-1.7375,-1.9204,-2.1079,-2.2393,-2.3552,-2.4459,3.5572,3.557,3.547,3.4518,3.3255,3.3641,3.3873,3.3938,3.4323,3.4503,3.4395,3.4566,3.4524,3.444,3.422,3.3836,3.3299,3.2883,3.2087,3.0894,3.0198,2.9323,2.8775,2.8515,2.8438,2.812,2.8047,2.7862,2.7269,2.7112,2.6872,2.6725,2.6539,2.6759,2.6759,2.6742,2.6708,2.6759,2.686,2.7012,2.7147,2.7444,2.7761,2.8022,2.8229,2.8379,2.8486,2.8823,2.9018,2.9042,2.9218,2.9538,2.9828,2.9198,2.9281,2.9937,3.0547,3.0586,3.0162,3.029,3.0606,3.11,3.1075,3.1667,3.2627,3.2194,3.085,2.9878,2.9844,3.0705,3.093,3.0308,2.894,2.7656,2.6559,2.5487,2.4357,2.3679,2.3794,2.3402,2.2608,2.2081,2.2473,2.254,2.1787,2.0629,1.7696,1.79,2.0256,2.106,2.1003,2.1043,2.1118,2.0975,2.0885,1.927,1.6695,1.5133,1.3824,1.3178,1.2707,1.2352,1.1778,1.1223,0.8606,0.4199,0.3453,0.3146,-0.2706,-0.8552,-1.6713,-1.9772,-2.1088,-2.2464,-2.3542,3.5424,3.5273,3.5235,3.4811,3.4227,3.4541,3.4677,3.4651,3.468,3.4617,3.4489,3.4439,3.408,3.3836,3.3705,3.3423,3.2928,3.2741,3.1926,3.1078,3.0304,2.9561,2.8908,2.8405,2.8106,2.7869,2.7794,2.75,2.677,2.6708,2.6229,2.5921,2.6811,2.7138,2.7348,2.7486,2.7638,2.8129,2.823,2.8266,2.8232,2.8304,2.8442,2.861,2.8786,2.8816,2.8816,2.9181,2.9321,2.9338,2.9534,2.9652,2.9839,2.9244,2.9023,2.9496,2.9966,2.9638,2.9582,2.9705,2.9829,3.0211,3.0565,3.0991,3.1538,3.046,2.9394,2.8973,2.9312,2.9891,2.9405,2.9235,2.819,2.6983,2.5862,2.4868,2.3945,2.3653,2.3405,2.26,2.1777,2.1513,2.1678,2.1388,2.0748,2.0272,1.8055,1.73,1.8971,1.9901,2.0182,2.0191,2.0176,1.9799,1.9232,1.879,1.8033,1.6439,1.4934,1.3815,1.3451,1.3455,1.3484,1.3324,1.1952,1.0532,0.8931,0.7353,0.6001,0.0917,-0.6328,-1.297,-1.4787,-1.8424,-2.3199,3.5122,3.4963,3.4963,3.487,3.4714,3.4755,3.4736,3.4634,3.4442,3.4227,3.3935,3.3847,3.3543,3.3118,3.2921,3.2858,3.2517,3.2482,3.2107,3.1314,3.069,2.9911,2.9207,2.8679,2.8568,2.8202,2.7869,2.7497,2.7207,2.6601,2.6459,2.6749,2.7196,2.8076,2.8395,2.8552,2.8399,2.8755,2.8808,2.8842,2.8876,2.8929,2.9017,2.9125,2.9213,2.9213,2.928,2.947,2.9712,2.9712,2.978,2.9796,2.9812,2.9434,2.9015,2.928,2.9326,2.9079,2.9086,2.9061,2.907,2.8882,2.9416,2.9843,3.0103,2.9515,2.9023,2.8683,2.8732,2.8808,2.877,2.8598,2.7901,2.6678,2.6024,2.5042,2.4432,2.4179,2.351,2.2586,2.1531,2.1232,2.0759,2.0105,1.9545,1.9214,1.8742,1.8353,1.7868,1.8443,1.9491,1.99,1.9877,1.9775,1.9699,1.9583,1.873,1.7653,1.6494,1.529,1.5079,1.5213,1.5319,1.5257,1.407,1.2979,1.2315,1.1177,1.041,0.9084,0.5587,-0.0765,-0.673,-1.1696,-1.6383,3.4713,3.4693,3.4674,3.4653,3.4572,3.4228,3.4,3.3834,3.3762,3.3476,3.3014,3.3166,3.2916,3.2565,3.2484,3.2417,3.2316,3.2316,3.1895,3.1354,3.0733,3.0125,2.9692,2.9334,2.8973,2.8802,2.8458,2.7904,2.7921,2.7069,2.7062,2.7843,2.8334,2.9106,2.9475,2.9533,2.9313,2.9448,2.9536,2.9553,2.957,2.9401,2.9561,2.967,2.9653,2.9672,2.9773,3.0011,3.0153,3.037,3.0688,3.061,3.0303,2.9697,2.947,2.9275,2.9191,2.8841,2.8544,2.848,2.8288,2.8137,2.8701,2.8951,2.8936,2.8842,2.856,2.8372,2.8356,2.856,2.8695,2.832,2.7931,2.7254,2.6748,2.6047,2.5377,2.4752,2.4025,2.305,2.1784,2.1022,2.0284,1.9537,1.915,1.9129,1.9004,1.897,1.8358,1.7221,1.8401,2.0092,2.0067,1.9953,1.9991,2.0283,1.9914,1.9002,1.8405,1.7496,1.7235,1.6997,1.7153,1.6961,1.6155,1.5455,1.5091,1.5247,1.5415,1.399,1.2695,0.946,0.2878,-0.0153,-0.4285,3.4551,3.4357,3.4357,3.4061,3.3597,3.3164,3.3304,3.3687,3.3201,3.2745,3.2666,3.2681,3.2433,3.2022,3.1986,3.1842,3.1694,3.1545,3.1456,3.1093,3.072,3.0272,2.9875,2.9542,2.9202,2.8887,2.8531,2.8146,2.7575,2.694,2.7332,2.8197,2.8973,2.9844,3.042,3.0649,3.0497,3.0395,3.0345,3.0345,3.0378,3.0362,3.0513,3.0459,3.0442,3.0462,3.0561,3.0641,3.0746,3.0898,3.1055,3.0878,3.0318,2.9486,2.8833,2.8161,2.8061,2.7978,2.7894,2.786,2.7901,2.784,2.8164,2.8008,2.8024,2.8152,2.8125,2.8018,2.8003,2.8165,2.8198,2.795,2.7641,2.727,2.693,2.6682,2.6031,2.542,2.4636,2.3306,2.2016,2.094,2.0107,1.9401,1.9117,1.915,1.927,1.9492,1.9241,1.8223,1.8104,1.9927,2.0764,2.0814,2.1033,2.1353,2.0961,2.0446,1.994,1.9503,1.9111,1.8922,1.9062,1.8688,1.7936,1.7972,1.8214,1.8399,1.8571,1.9603,1.8595,1.5992,1.3114,0.9344,0.6327,3.4237,3.4025,3.3854,3.3459,3.2903,3.2451,3.2592,3.2983,3.2657,3.2364,3.2038,3.2143,3.1968,3.1603,3.1545,3.1449,3.1252,3.1291,3.1218,3.1099,3.0717,3.0644,3.0302,3.0065,3.0023,2.9563,2.9015,2.8543,2.7924,2.7661,2.7931,2.879,2.9384,3.0242,3.0886,3.1055,3.1106,3.1089,3.1123,3.119,3.119,3.119,3.119,3.119,3.119,3.119,3.1095,3.1038,3.0861,3.0781,3.0699,3.0208,2.9585,2.8762,2.8247,2.7755,2.8006,2.8132,2.8186,2.8389,2.8389,2.8389,2.8374,2.8464,2.8246,2.8177,2.7906,2.768,2.7645,2.7595,2.761,2.7565,2.7325,2.707,2.712,2.7218,2.6677,2.6094,2.4934,2.3543,2.2313,2.1123,2.0271,1.9551,1.9499,2.0242,2.0785,2.099,2.0807,2.0105,1.9787,2.062,2.1394,2.189,2.2124,2.2342,2.2208,2.1969,2.1632,2.1202,2.0867,2.0607,2.0463,2.0197,1.9845,1.9982,2.0129,2.0944,2.1404,2.2138,2.2289,2.0266,1.8215,1.6569,1.399,3.3762,3.3707,3.3273,3.284,3.2417,3.1968,3.1875,3.2069,3.2249,3.1952,3.1422,3.1595,3.1582,3.1329,3.1291,3.1252,3.119,3.119,3.119,3.119,3.1089,3.096,3.0841,3.1004,3.0419,3.0379,2.9824,2.8666,2.891,2.8668,2.8665,2.9451,3.0084,3.0707,3.1117,3.119,3.119,3.119,3.119,3.119,3.119,3.119,3.119,3.119,3.119,3.1134,3.0958,3.0683,3.0251,3.0081,2.9874,2.9369,2.9013,2.8442,2.8092,2.7927,2.8271,2.8472,2.8636,2.8851,2.9158,2.9331,2.9604,2.9379,2.8944,2.8614,2.8293,2.7934,2.7934,2.7934,2.7934,2.7724,2.7455,2.744,2.7535,2.751,2.7156,2.6438,2.5265,2.3947,2.2799,2.178,2.1524,2.0923,2.0861,2.1653,2.2342,2.2624,2.2483,2.2034,2.1694,2.1664,2.2082,2.2752,2.2985,2.3212,2.3512,2.3342,2.2999,2.2304,2.1505,2.15,2.1749,2.1569,2.1435,2.1616,2.1927,2.2438,2.2663,2.2704,2.2942,2.3238,2.2328,2.0615,1.7973,3.3332,3.3273,3.2449,3.2057,3.1915,3.1507,3.1368,3.1402,3.1483,3.1359,3.121,3.1278,3.1291,3.1134,3.1095,3.1095,3.1055,3.0918,3.1151,3.1112,3.1072,3.0608,3.0418,3.0418,3.0293,2.9729,2.9082,2.8529,2.8338,2.867,2.9225,2.9496,3.0251,3.0975,3.119,3.119,3.119,3.119,3.119,3.1241,3.1309,3.1224,3.119,3.1151,3.1134,3.0861,3.0658,3.0384,2.9995,2.9705,3.0057,3.0054,3.0014,2.9394,2.9124,2.9077,2.8674,2.8832,2.9005,2.9142,2.9304,2.96,2.9717,2.9642,2.9492,2.9259,2.8951,2.8592,2.8353,2.8353,2.8278,2.7993,2.7799,2.7904,2.7889,2.7739,2.7509,2.6448,2.5438,2.4365,2.327,2.2871,2.2651,2.2671,2.2521,2.3067,2.3956,2.4388,2.4533,2.4197,2.3392,2.324,2.3032,2.3439,2.3836,2.4069,2.4338,2.434,2.3997,2.3144,2.2212,2.2243,2.2419,2.2892,2.3033,2.2936,2.2922,2.3165,2.3325,2.3245,2.2978,2.3107,2.2325,2.0775,1.8343,3.3214,3.3075,3.2196,3.1696,3.1452,3.1021,3.0781,3.0757,3.0518,3.0377,3.0535,3.0878,3.1055,3.0838,3.0781,3.0601,3.0518,3.0377,3.045,3.0584,3.0493,2.9966,2.9794,2.974,2.9745,2.9271,2.8779,2.8304,2.7845,2.8415,2.9058,2.9512,3.041,3.0969,3.1145,3.1207,3.1258,3.119,3.1258,3.141,3.1529,3.141,3.1049,3.0918,3.0699,3.0435,3.0125,2.9915,2.9779,2.9548,2.9808,2.9964,2.9885,2.9644,2.9456,2.9245,2.9012,2.8986,2.923,2.9347,2.9406,3.0015,3.0398,3.0578,3.0582,3.0387,2.9864,2.949,2.9101,2.9026,2.9026,2.8801,2.8786,2.8846,2.807,2.7402,2.6437,2.5126,2.4407,2.376,2.3302,2.3727,2.396,2.5238,2.4972,2.4236,2.5148,2.5553,2.5766,2.6012,2.533,2.4817,2.4572,2.4852,2.5543,2.5459,2.5167,2.5102,2.4882,2.4215,2.3451,2.3156,2.3122,2.3519,2.3753,2.3666,2.3707,2.3692,2.3606,2.3434,2.3083,2.2795,2.1855,2.0782,1.8378,3.2934,3.2809,3.1986,3.1414,3.1038,3.0435,3.0208,3.0123,2.9673,2.9451,2.9629,3.0518,3.0576,3.0351,3.0166,2.9805,2.9613,2.9717,2.9774,2.9714,2.9649,2.9201,2.9048,2.9037,2.9025,2.8904,2.8463,2.8042,2.7675,2.8334,2.8951,2.9531,3.0185,3.0817,3.1251,3.1512,3.1698,3.1765,3.1867,3.1888,3.1827,3.1624,3.1056,3.0659,3.03,2.9984,2.9619,2.9469,2.9521,2.9633,2.9757,3.0068,3.0162,3.0188,2.9743,2.955,2.9201,2.9256,2.9504,2.9688,3.0367,3.1086,3.1394,3.1452,3.1407,3.1138,3.0657,3.0342,2.9939,2.9699,2.9684,2.9564,2.9564,2.949,2.8409,2.7147,2.5703,2.4571,2.4146,2.3699,2.4016,2.4532,2.5446,2.6765,2.6811,2.6039,2.5937,2.6282,2.654,2.6811,2.6617,2.6225,2.6,2.6476,2.6879,2.5984,2.5144,2.5707,2.5488,2.5108,2.4589,2.379,2.3534,2.4092,2.424,2.4321,2.3979,2.3753,2.3697,2.3537,2.2846,2.2263,2.1574,2.0333,1.8231,3.1861,3.1524,3.0851,3.0543,3.0393,2.9805,2.9601,2.954,2.9451,2.9406,2.9377,2.9496,2.9613,2.954,2.9585,2.9457,2.9513,2.937,2.9143,2.9016,2.9102,2.8591,2.8326,2.8606,2.8352,2.8262,2.8171,2.7836,2.8101,2.8498,2.914,3.0252,3.0871,3.1732,3.2782,3.2848,3.273,3.2696,3.2605,3.2631,3.2133,3.1816,3.1349,3.0958,3.0589,3.0068,2.9675,2.9524,2.9521,2.969,3.0078,3.0507,3.0776,3.0839,3.0511,2.9782,2.943,2.9543,2.97,2.9558,3.0162,3.1336,3.1467,3.1467,3.1437,3.1437,3.115,3.1076,3.0731,3.0387,3.0268,2.9924,2.9819,2.9858,2.9193,2.7594,2.6048,2.583,2.5713,2.5425,2.5439,2.5694,2.5944,2.6922,2.7409,2.6899,2.6899,2.7181,2.7101,2.744,2.7682,2.7519,2.7232,2.6915,2.6734,2.53,2.4655,2.5469,2.5955,2.5384,2.4721,2.3912,2.385,2.4275,2.4876,2.5163,2.4692,2.3705,2.3563,2.3319,2.2392,2.1704,2.1099,1.9886,1.7807]}]]